GFSSW_850_spd_000.txt.gz
Wind_Speed
19 19 21 18 16 12 12 12 11 10 8 8 7 10 12 13 13 15 15 11 8 14 8 8 8 8 7 5 8 5 1 6 6 7 6 3 1 3 3 7 5 5 5 5 4
22 20 19 21 17 15 12 11 11 10 9 7 7 10 14 12 12 18 13 9 11 8 10 8 7 4 3 4 6 5 4 7 6 6 4 5 8 12 5 6 6 9 8 8 9
22 22 20 21 20 17 13 11 10 9 9 9 8 11 13 13 12 20 18 17 15 13 11 7 5 3 5 6 7 5 8 4 3 5 11 8 7 13 4 6 12 13 11 9 10
23 22 21 19 20 18 13 11 9 7 7 8 10 10 12 11 6 3 7 9 17 20 13 10 4 3 3 5 8 3 6 8 3 9 7 3 4 7 12 15 10 10 15 12 11
20 25 22 19 17 19 12 11 9 7 7 7 8 11 11 10 10 5 7 5 8 21 20 10 7 4 4 3 1 4 3 6 8 12 16 20 17 13 20 27 27 27 24 20 17
21 21 25 21 17 18 13 11 10 8 6 7 7 10 13 6 12 14 12 9 9 14 16 14 5 5 4 5 3 3 7 8 7 10 16 11 16 16 26 24 24 22 21 19 23
19 21 25 21 18 16 13 11 9 6 6 8 6 9 14 21 9 13 16 13 14 10 10 6 9 5 1 3 3 5 4 6 6 8 6 8 16 19 29 27 29 25 20 22 24
16 21 22 22 22 14 14 11 8 8 8 7 9 8 9 7 14 14 18 18 13 10 6 2 3 2 5 6 5 3 1 2 4 8 8 8 13 5 13 30 32 36 33 29 26
24 15 22 22 24 20 15 12 13 10 11 10 9 9 9 8 12 16 15 9 14 15 10 7 4 4 3 3 3 5 4 4 6 2 4 12 8 5 16 24 25 29 28 27 27
25 22 21 23 24 23 14 13 12 11 11 10 12 6 10 3 4 9 17 13 8 10 7 6 4 2 3 4 6 5 5 5 7 2 4 11 16 12 21 20 22 27 29 30 31
28 26 21 24 23 28 22 18 7 4 17 12 9 5 1 6 5 5 5 16 9 6 5 3 3 9 13 10 8 2 4 8 6 8 7 9 14 15 14 21 20 27 28 35 34
24 26 22 24 24 33 25 24 16 4 4 29 21 16 3 7 4 6 7 10 7 5 4 2 12 8 5 5 6 8 11 13 9 9 9 11 23 18 15 20 21 23 28 30 33
24 24 23 24 26 37 32 24 16 9 1 6 25 22 16 12 4 13 15 8 3 6 9 9 3 4 10 5 6 5 10 5 11 10 14 13 28 19 25 29 31 33 34 35 36
23 23 22 25 24 38 34 28 16 7 4 4 5 6 13 14 6 22 21 10 3 10 7 9 8 7 4 5 7 14 7 12 11 4 4 5 10 8 8 10 15 28 27 32 38
25 23 22 25 17 41 34 32 20 8 2 3 4 5 10 19 4 6 22 11 7 7 6 5 3 5 12 12 7 5 5 8 7 5 5 8 7 5 6 10 14 11 22 24 31
26 24 18 31 19 38 28 30 21 5 6 5 5 6 9 10 2 6 9 9 3 5 7 6 4 5 5 4 12 1 4 5 3 5 9 11 9 11 5 6 8 11 27 26 25
23 20 17 27 8 34 40 35 5 4 1 6 6 7 9 7 5 5 11 10 6 4 7 4 15 4 4 4 4 7 4 2 4 6 7 7 10 20 9 11 8 11 22 28 21
19 15 16 28 23 41 48 5 4 6 5 3 6 7 6 5 5 6 11 8 13 4 2 5 5 13 11 14 7 11 10 4 6 3 4 6 7 6 10 19 30 31 30 30 19
14 15 7 34 42 45 34 5 8 6 7 8 9 5 7 5 2 6 8 8 9 14 7 3 5 1 3 7 10 5 8 13 5 4 4 5 8 9 10 11 14 17 26 31 26
13 14 10 15 44 50 9 6 5 5 7 4 6 5 6 7 7 7 7 4 12 14 12 3 7 5 3 6 10 6 1 3 5 5 5 7 11 10 13 9 8 14 18 24 27
7 10 9 12 38 18 4 4 4 7 10 6 5 4 3 5 6 4 4 4 6 4 15 5 6 1 3 10 11 8 5 4 2 3 4 3 6 8 10 3 11 14 22 28 30
2 1 5 26 8 3 4 6 5 5 3 3 3 4 6 7 6 6 7 6 8 10 9 9 4 6 14 4 12 13 11 12 5 5 4 3 16 4 1 5 9 16 19 17 25
5 5 25 40 3 4 4 3 3 3 4 5 5 5 4 6 3 7 4 7 14 10 10 9 5 3 3 2 4 9 12 15 13 3 8 4 8 2 4 10 14 13 3 10 19
6 2 14 21 5 8 9 4 3 1 4 4 4 5 4 6 5 3 4 4 18 11 11 15 5 7 8 3 2 6 12 16 16 8 14 17 17 16 18 16 11 10 4 15 22
3 3 5 5 4 10 5 6 5 2 1 9 4 8 5 4 6 8 7 6 6 13 8 7 6 11 19 19 9 6 10 17 21 19 11 16 19 18 13 18 15 21 10 18 23
4 4 6 10 14 10 6 6 11 7 3 4 7 7 8 5 7 2 3 6 5 8 9 4 5 5 10 15 18 14 17 16 21 23 24 20 22 14 19 26 20 14 18 18 22
9 8 12 15 8 9 8 5 7 7 7 10 10 8 9 13 18 21 17 13 6 5 8 2 3 3 6 8 12 11 24 21 14 19 18 17 25 11 16 5 6 17 13 19 25

GFSSW_850_spd_003.txt.gz
Wind_Speed
20 21 20 18 18 18 15 13 11 9 8 6 8 5 7 13 16 17 16 12 8 14 5 5 5 5 4 5 7 7 2 7 8 8 6 3 2 3 1 7 5 3 8 5 3
22 21 21 19 18 17 18 13 12 9 7 6 5 4 9 13 13 16 11 8 6 8 13 7 5 4 4 5 6 5 4 8 6 7 4 5 6 8 4 6 11 15 10 10 9
20 21 21 19 19 18 18 15 11 9 7 8 8 6 9 13 13 10 15 17 13 11 8 6 4 4 4 5 6 4 8 3 4 5 3 4 7 9 7 7 12 11 15 11 10
19 20 20 20 20 17 17 16 11 9 7 7 11 9 9 9 3 3 7 7 16 16 12 9 4 4 2 4 5 3 7 7 7 12 7 4 5 6 9 12 12 11 12 15 14
18 15 19 20 18 16 15 15 11 9 8 7 8 11 9 7 7 4 4 5 10 19 14 10 5 5 4 3 1 3 2 4 5 7 9 12 14 15 17 22 23 23 25 23 21
21 19 18 19 18 18 14 14 12 9 7 5 7 8 10 5 10 15 7 6 7 15 16 12 5 7 2 3 2 1 4 7 9 10 11 10 19 12 19 20 27 26 26 24 20
20 20 17 18 19 19 16 12 12 9 8 6 6 7 10 17 11 9 14 9 10 12 12 11 9 5 5 1 0 2 4 7 9 12 7 7 14 15 32 29 32 34 32 32 26
22 19 22 16 18 19 17 11 10 10 7 7 7 6 7 6 15 13 16 13 12 10 10 8 7 4 3 0 3 1 2 3 3 3 8 12 14 7 2 13 25 33 35 31 32
25 23 23 17 16 19 26 15 12 12 9 8 8 7 7 6 10 10 16 18 13 8 7 7 6 4 4 3 1 2 4 5 5 5 2 11 6 4 17 11 13 17 23 26 25
26 24 22 23 17 20 24 20 18 13 10 10 8 4 9 3 5 8 15 12 9 12 8 6 4 3 2 3 5 4 4 5 5 2 3 11 17 15 20 23 23 23 26 24 23
28 24 20 23 17 23 29 24 14 5 16 11 9 3 4 7 9 7 13 15 11 10 4 4 3 8 11 6 4 0 3 9 9 11 11 15 20 17 20 17 19 22 25 29 32
28 22 20 19 18 8 36 31 29 7 6 28 10 15 5 9 6 9 12 11 7 4 5 3 9 8 4 5 8 10 14 16 11 8 11 12 25 17 16 22 26 29 28 30 34
24 20 18 19 17 34 40 35 24 17 4 4 25 17 11 11 5 15 18 9 4 5 7 5 3 2 11 6 10 13 16 14 16 9 13 16 26 19 18 31 31 34 37 38 35
21 24 19 16 18 29 37 33 21 15 4 4 5 6 17 11 4 16 19 8 2 9 7 9 8 4 4 7 8 14 7 11 13 7 8 2 10 7 5 10 9 17 26 32 34
23 20 22 14 15 18 30 30 23 14 2 4 5 9 13 16 9 6 23 7 7 5 5 4 4 4 11 6 7 5 4 7 8 8 7 12 7 6 2 4 9 10 24 29 30
32 32 21 16 19 25 28 37 22 4 6 6 7 7 8 8 4 6 12 6 5 5 5 5 2 4 6 5 9 2 2 4 1 4 9 11 10 17 7 10 3 7 19 23 26
38 37 24 17 22 25 38 31 4 4 1 8 6 9 9 7 4 7 9 8 4 4 5 3 13 4 4 3 2 7 4 3 5 6 8 8 11 20 9 17 16 17 23 19 19
52 31 20 19 24 27 43 5 3 5 3 5 9 10 5 8 5 6 10 7 10 2 1 4 5 11 9 15 7 11 9 5 6 5 4 3 9 8 12 16 21 25 28 28 26
27 7 14 18 22 11 24 4 6 6 9 9 11 5 3 2 2 4 7 6 8 12 5 3 5 2 6 4 9 4 10 11 5 4 3 4 8 11 13 15 11 17 21 30 36
2 14 11 12 16 21 6 5 1 3 11 9 5 5 9 9 6 8 7 3 6 13 12 1 5 4 1 4 6 7 1 4 5 5 5 7 7 13 9 14 6 6 13 24 27
7 5 7 10 17 20 2 3 5 7 9 4 4 5 5 7 7 5 4 3 7 5 13 5 5 1 3 10 11 7 6 6 2 4 3 4 6 5 9 3 3 7 18 27 29
17 2 9 11 5 2 2 5 6 4 2 3 4 5 4 6 4 5 6 5 8 11 10 8 4 6 14 8 14 15 12 15 7 5 5 2 13 12 14 4 5 13 23 32 31
4 3 15 27 3 3 3 4 4 3 2 2 4 4 3 5 4 6 4 6 13 9 9 7 4 4 6 0 3 8 14 16 13 4 15 7 8 1 5 8 12 14 23 28 20
3 1 7 9 2 6 5 3 4 5 3 3 4 5 4 4 4 3 4 3 17 10 9 14 5 7 10 8 2 5 14 19 14 7 10 18 21 19 18 14 17 23 23 24 10
6 2 4 3 2 4 4 4 5 3 2 4 3 3 5 4 6 5 5 3 5 12 8 9 8 11 19 22 15 10 13 18 19 22 12 10 15 12 9 9 12 19 20 15 11
7 3 4 5 12 7 3 3 5 3 4 4 2 8 7 5 6 4 4 5 5 4 8 5 5 4 15 17 19 18 16 18 20 21 21 19 25 15 16 16 9 20 22 12 13
12 11 1 9 6 4 3 6 7 6 2 3 5 4 8 10 11 15 14 7 4 5 10 4 3 3 10 3 8 7 16 21 18 18 13 17 23 8 10 9 15 25 20 10 15

GFSSW_850_spd_006.txt.gz
Wind_Speed
16 18 18 17 19 15 17 15 14 11 10 8 6 6 7 10 16 17 16 12 13 13 7 7 5 5 6 8 7 8 8 13 19 16 12 6 10 9 5 11 7 6 6 2 5
15 18 18 17 18 18 16 16 14 12 10 10 7 5 7 11 13 17 10 7 8 11 13 7 7 6 8 8 8 13 11 17 11 12 10 10 11 10 7 12 14 10 8 5 7
15 16 17 18 17 19 17 17 15 13 11 10 9 7 8 12 11 10 13 15 11 11 8 8 7 7 9 7 10 11 16 14 8 12 11 14 13 14 15 15 17 16 10 6 3
20 17 17 17 17 18 18 16 14 13 11 9 11 11 9 15 5 6 7 8 16 14 11 9 8 8 7 9 10 9 15 16 12 13 11 12 12 15 17 23 15 13 13 10 11
22 15 17 18 18 17 18 15 13 12 11 9 9 10 9 9 5 4 4 4 10 18 15 11 10 8 8 5 8 12 12 11 11 10 14 18 23 22 26 23 20 18 17 18 18
26 21 16 15 20 17 19 16 13 12 11 9 8 10 10 10 9 12 4 3 7 17 15 13 7 7 4 5 9 2 7 12 12 17 19 19 24 21 27 23 24 29 31 27 23
26 24 20 18 15 19 18 20 14 12 12 10 6 7 9 10 9 11 12 8 10 12 14 16 7 6 7 4 4 6 10 12 17 15 13 12 19 23 33 31 33 28 27 28 29
26 24 23 21 17 17 17 24 16 14 13 9 6 5 5 9 16 8 14 10 10 9 11 11 10 5 3 2 2 4 5 5 2 3 8 12 18 6 1 8 20 25 30 32 32
25 25 23 23 18 17 16 25 19 16 13 9 6 5 4 6 11 14 15 13 13 11 10 10 7 4 4 6 5 8 7 9 9 6 5 11 12 3 12 13 16 20 21 21 25
26 23 25 21 23 24 12 19 21 19 15 11 7 4 8 4 8 13 21 16 10 11 7 5 4 5 7 8 5 5 7 7 10 2 7 15 21 19 23 26 26 26 26 23 21
28 23 25 18 16 23 11 19 21 8 18 11 12 3 8 9 10 11 20 14 11 12 10 9 7 11 13 14 9 4 7 11 9 7 15 17 24 21 26 30 28 30 31 32 31
24 22 20 16 16 16 26 18 35 8 9 15 10 8 11 11 6 11 19 12 13 11 9 5 11 12 7 10 12 13 15 16 14 12 12 19 31 23 23 31 34 33 35 35 34
26 17 16 18 16 21 25 19 33 13 4 14 15 11 9 12 6 17 20 10 12 11 15 9 3 0 13 11 12 15 15 13 15 15 17 20 26 15 9 17 25 34 39 40 38
23 14 15 18 15 14 20 31 15 13 2 9 11 9 14 9 4 14 19 8 4 11 9 9 10 7 7 11 12 14 8 12 13 10 6 2 11 14 13 14 13 16 18 25 29
24 21 26 21 22 14 10 23 18 15 7 10 7 9 16 15 14 9 15 4 6 8 6 3 6 10 12 11 13 8 5 8 9 11 11 16 7 13 4 12 9 11 18 21 22
28 29 33 26 19 19 17 20 22 4 6 7 7 11 15 12 7 9 13 4 4 6 7 10 3 5 7 8 13 2 6 9 10 9 7 21 14 17 19 15 14 12 15 18 17
31 38 42 38 32 12 13 27 4 5 9 9 9 14 16 12 9 10 12 10 6 5 8 5 15 6 8 9 8 10 5 3 4 6 9 9 10 20 17 10 14 17 24 19 13
40 35 21 25 28 19 18 4 5 6 6 6 15 16 9 17 6 11 12 10 10 3 2 4 4 15 11 16 4 16 14 6 7 11 14 5 11 16 20 21 24 24 17 21 19
34 10 8 16 25 24 14 4 4 8 12 15 14 8 6 13 6 7 11 8 11 15 7 5 5 2 6 7 11 5 9 15 15 15 9 12 18 19 22 17 16 22 19 12 17
31 7 7 13 15 14 5 0 2 4 17 17 7 8 9 14 8 10 12 6 8 17 15 2 4 6 3 8 11 14 1 5 6 7 17 11 17 14 7 11 13 12 8 15 18
31 2 7 13 16 4 3 2 3 14 14 4 7 9 9 13 9 12 6 3 9 12 16 8 4 4 5 12 13 10 8 6 6 7 7 14 13 3 2 4 2 7 11 15 19
15 1 14 13 3 3 2 3 6 7 0 4 9 10 14 14 11 10 9 5 9 13 11 12 5 7 15 13 13 16 16 19 7 8 6 10 20 12 14 12 8 10 14 19 19
5 1 8 12 2 3 6 3 3 4 2 3 4 3 5 9 6 9 5 3 11 12 12 11 4 4 4 2 6 9 18 20 12 8 17 10 17 1 7 10 13 18 22 19 18
2 2 5 2 3 8 10 4 4 6 5 8 7 5 6 5 1 7 7 4 12 15 7 11 6 7 10 14 6 7 13 17 16 10 17 20 29 22 20 22 20 19 17 15 22
1 3 2 3 5 8 4 4 9 4 3 5 3 3 5 4 5 4 6 2 4 9 9 7 6 11 20 22 21 23 23 17 20 26 16 26 21 19 16 13 14 19 20 17 25
8 4 5 5 9 11 3 4 5 5 4 4 3 7 6 4 5 5 5 6 5 10 11 6 5 3 13 20 22 22 21 17 20 25 26 26 28 24 22 20 14 14 14 18 23
21 11 2 4 4 6 4 5 5 6 4 5 5 5 7 7 7 11 10 6 3 5 12 5 1 3 8 13 19 8 7 12 8 19 22 20 26 14 10 11 13 14 23 24 16

GFSSW_850_spd_009.txt.gz
Wind_Speed
10 16 17 17 18 18 20 17 16 14 13 11 10 10 7 10 16 19 18 13 14 18 7 6 8 10 10 12 12 13 14 15 21 21 15 17 11 15 17 17 14 13 16 4 4
23 14 14 17 18 19 20 19 16 15 13 12 10 7 7 6 10 16 15 16 14 12 11 9 11 12 15 14 10 14 13 20 17 15 16 14 12 13 9 16 18 15 14 6 3
21 21 15 14 18 17 17 22 16 15 14 13 10 7 7 8 12 12 19 14 10 11 11 13 9 11 16 12 17 15 18 15 17 11 11 17 17 17 17 16 16 18 17 13 7
20 22 20 16 16 18 16 19 18 16 13 12 10 10 8 14 5 8 14 17 15 12 13 12 13 14 11 11 15 17 16 23 20 11 12 15 18 19 22 23 22 18 19 15 12
22 22 22 15 16 17 18 16 19 16 13 11 10 11 12 9 9 6 5 7 13 17 15 14 14 15 11 9 12 13 16 17 15 17 20 21 22 21 22 22 20 21 17 18 19
24 23 22 21 19 16 17 16 20 16 13 11 10 11 11 11 7 12 5 5 8 19 16 13 5 11 7 10 10 2 12 17 15 18 19 20 23 23 21 25 28 28 27 27 26
25 23 24 24 20 16 15 17 20 16 14 11 10 9 10 13 5 7 9 6 8 15 15 11 9 4 6 7 11 10 14 14 19 20 14 12 19 23 32 29 30 29 28 28 30
25 25 26 23 24 21 16 16 21 20 15 14 10 6 7 16 8 7 9 8 9 10 7 8 9 6 6 0 4 6 10 10 6 5 15 14 16 12 7 13 19 29 28 30 29
28 24 26 23 25 20 21 13 27 22 17 15 10 8 8 10 12 14 12 10 10 10 9 7 6 5 6 9 8 10 9 12 9 6 7 13 11 5 5 16 20 17 19 22 24
26 28 25 21 21 19 21 16 21 22 21 15 9 5 11 9 12 13 14 13 12 16 13 6 4 8 10 10 6 7 13 10 9 3 8 15 20 19 22 23 22 23 24 25 24
26 24 26 22 18 15 14 17 13 13 28 12 11 4 12 12 11 12 18 17 12 13 7 8 5 12 16 15 16 8 10 12 12 8 14 18 21 20 23 26 28 29 28 29 31
23 21 18 15 17 12 12 14 8 5 8 16 5 8 12 13 9 14 20 14 16 12 12 5 14 15 11 9 11 12 14 15 14 13 12 17 27 23 24 28 29 29 32 34 33
22 20 17 13 17 12 13 22 12 13 3 17 14 14 13 11 8 21 23 14 14 14 16 11 2 2 12 11 11 14 14 14 14 15 18 20 26 20 12 16 22 27 31 35 37
21 18 17 18 10 10 10 13 20 12 3 8 10 10 11 9 5 17 21 12 6 14 13 12 11 5 8 12 11 12 10 11 11 9 7 4 10 10 11 10 10 16 21 22 24
22 22 21 14 16 10 9 8 15 8 5 15 12 10 17 12 19 15 20 6 10 7 8 4 5 12 12 13 10 6 4 4 7 10 14 16 8 9 11 19 19 17 15 15 17
22 23 19 20 16 11 12 7 17 3 5 6 7 11 16 15 7 19 18 7 3 7 11 11 4 7 9 6 10 3 2 5 6 4 8 14 15 19 15 13 15 13 19 16 16
28 33 33 35 35 10 6 12 5 5 8 8 9 13 17 12 11 13 16 11 8 6 10 10 16 6 9 7 6 9 3 2 4 6 8 6 8 18 20 20 22 15 20 21 26
30 29 19 19 28 25 14 4 3 7 8 8 15 17 9 15 11 15 15 12 14 10 5 7 6 18 13 13 5 13 11 5 6 9 13 17 10 14 15 20 31 21 23 17 19
29 17 14 4 22 25 8 6 4 12 12 15 17 11 7 16 8 12 14 12 14 14 7 5 3 2 7 6 11 6 8 16 13 17 12 12 20 23 24 25 23 21 23 22 19
28 12 11 15 20 18 2 2 4 6 18 18 7 7 8 18 9 12 14 14 11 18 12 0 2 6 8 6 11 12 1 2 4 6 12 13 19 15 13 19 10 11 11 15 9
14 5 8 15 18 3 2 1 1 16 13 3 9 10 10 15 12 14 15 5 17 13 15 7 3 5 4 10 10 9 12 6 7 8 7 12 14 11 10 7 5 1 8 9 11
5 2 9 10 2 2 0 1 10 10 3 3 4 4 15 18 11 12 9 3 8 11 11 9 2 5 12 12 12 14 15 17 8 8 8 13 21 13 16 16 13 8 14 15 17
4 3 6 6 2 2 1 2 4 9 6 5 4 2 6 12 6 7 6 6 10 12 11 10 4 3 3 2 8 11 18 17 18 15 21 14 14 3 3 6 7 16 20 21 18
5 3 4 5 4 6 3 3 5 3 5 4 8 8 10 10 3 9 6 4 11 12 7 8 5 8 8 8 11 8 15 17 15 10 19 22 29 24 22 17 15 20 18 15 19
3 3 2 3 2 4 5 8 6 3 2 3 4 3 5 4 5 4 6 5 5 9 6 5 5 9 18 22 20 20 23 23 19 18 16 28 23 21 19 20 19 23 15 18 13
6 4 4 1 8 6 1 7 7 5 2 2 2 6 4 4 1 5 6 7 6 9 11 4 4 2 14 20 21 18 23 18 18 18 15 24 29 23 23 9 8 14 16 12 17
11 8 2 3 6 5 2 5 4 5 3 4 2 5 4 3 3 3 3 4 1 3 10 4 1 2 6 11 20 9 5 6 7 10 11 12 19 20 17 9 12 19 18 21 21

GFSSW_850_spd_012.txt.gz
Wind_Speed
21 21 17 16 13 15 17 17 18 17 15 14 12 11 11 10 13 19 22 16 20 18 8 4 7 10 11 14 18 14 7 11 15 15 11 17 7 7 8 12 14 6 12 4 9
18 19 23 21 14 14 18 16 18 17 15 15 12 9 8 7 6 16 18 9 14 15 16 9 10 12 16 14 11 8 8 11 11 10 10 16 10 10 6 14 13 20 14 8 4
21 20 20 18 20 17 14 15 15 20 15 15 11 8 7 6 7 15 16 17 17 18 16 11 10 13 14 16 19 11 13 9 16 22 11 10 17 10 11 7 11 14 16 15 11
21 23 22 21 18 17 17 15 12 20 14 15 11 8 9 10 5 7 12 19 16 12 12 14 12 10 7 11 16 16 15 20 20 24 10 5 15 15 20 15 18 23 17 14 17
22 22 22 24 21 20 17 18 15 17 16 13 11 8 11 9 10 5 10 16 17 16 16 15 16 15 11 9 15 11 15 18 15 17 16 15 13 14 21 21 20 21 24 21 13
24 24 25 23 24 24 20 17 16 15 16 12 11 9 13 11 9 14 6 5 10 17 16 16 7 9 6 9 8 6 9 14 18 18 12 14 14 20 14 24 27 28 27 23 22
25 27 28 26 26 23 22 19 16 17 16 12 12 10 10 15 4 8 13 5 7 15 19 14 8 4 4 4 11 7 8 11 15 16 9 9 13 17 30 30 28 27 28 31 31
28 28 30 29 26 23 25 20 17 15 18 14 12 10 8 13 11 10 7 7 5 8 16 9 12 2 1 3 1 3 9 7 10 18 15 15 12 12 20 27 30 31 31 32 30
27 26 28 29 27 24 22 21 19 18 19 18 16 10 8 10 20 11 12 11 8 8 7 9 8 6 5 2 3 7 6 10 7 7 4 9 6 12 18 13 13 18 21 23 31
26 27 24 23 23 20 21 18 18 10 17 14 8 8 12 11 13 18 15 11 12 13 11 9 7 5 5 6 5 5 8 7 7 4 4 8 12 12 22 23 18 19 22 20 21
24 24 23 22 18 14 18 7 8 8 33 8 17 2 12 15 16 20 18 16 14 16 5 9 4 8 11 12 12 10 7 11 10 9 8 9 14 13 19 22 23 23 26 28 30
21 23 21 20 16 14 14 6 7 2 5 16 5 15 15 17 11 17 21 13 11 11 7 3 8 9 7 4 3 7 7 10 11 10 6 10 17 16 21 22 25 24 26 31 31
20 21 20 19 15 12 7 13 17 9 4 15 8 15 15 10 9 22 25 15 12 12 12 5 2 10 11 5 4 7 7 9 11 10 11 12 14 10 6 21 27 32 34 33 32
22 20 20 17 10 10 10 14 18 18 2 9 6 11 10 9 6 20 23 11 7 14 11 9 6 3 4 7 5 6 5 6 7 5 4 7 7 7 8 7 6 13 17 22 23
21 18 15 12 14 10 12 10 8 8 6 13 9 13 14 7 21 14 22 6 11 8 5 1 3 5 5 4 6 3 5 5 5 6 7 4 4 7 9 9 6 6 14 24 19
21 23 24 23 16 13 12 13 7 3 4 4 7 13 14 11 3 20 15 3 2 4 9 4 6 1 3 3 2 6 2 2 4 1 4 10 10 13 6 10 6 2 13 15 13
27 30 24 17 19 10 9 9 4 5 6 7 6 13 16 11 8 15 10 8 5 5 8 4 9 4 3 1 3 5 2 1 2 2 7 1 8 16 12 14 12 4 15 18 23
30 20 10 11 10 21 7 1 4 5 1 5 9 16 9 14 7 11 11 8 10 8 6 5 3 14 9 8 6 9 6 3 5 3 4 5 7 5 1 7 11 18 20 23 19
28 16 14 5 22 26 9 3 4 4 9 10 15 5 5 12 7 9 11 7 11 10 4 5 1 11 12 8 7 6 6 3 5 6 5 5 5 11 14 17 14 10 15 18 17
16 9 19 18 23 22 1 2 1 7 16 15 5 7 7 15 7 11 12 12 12 15 9 3 2 2 6 3 7 6 3 2 1 3 6 5 7 7 9 6 9 9 3 5 4
4 6 12 18 16 4 2 3 4 7 18 3 8 9 9 13 7 10 10 3 15 12 12 5 0 4 5 8 9 5 7 2 3 3 3 6 4 5 7 5 4 6 4 8 8
5 2 10 7 1 3 2 3 3 2 6 3 2 11 11 14 9 8 10 3 17 14 11 7 2 3 10 8 13 9 8 13 3 6 4 5 14 19 16 5 7 13 16 6 9
4 5 3 4 1 3 3 4 2 3 4 2 3 4 15 11 6 9 8 6 5 6 10 8 3 2 2 3 7 6 9 10 14 9 16 9 12 9 15 11 12 17 18 16 21
3 2 3 3 3 1 2 1 4 5 5 8 7 4 6 9 5 7 6 2 8 6 5 13 3 5 3 2 2 4 6 9 9 5 11 21 30 24 20 18 4 11 20 28 9
4 2 3 2 2 7 3 3 6 4 4 4 2 2 5 6 4 4 7 7 6 4 5 2 3 4 7 13 12 14 17 16 16 18 13 25 25 28 22 21 21 17 10 14 10
4 4 5 2 15 11 5 1 1 5 5 2 2 5 3 4 6 8 6 6 6 8 5 3 3 3 5 15 16 15 16 18 18 18 18 21 25 19 21 21 14 10 12 13 13
9 5 3 1 4 2 3 3 3 1 5 9 3 4 6 8 8 6 6 3 3 6 9 5 2 2 4 10 12 6 5 5 9 11 11 11 18 17 14 9 3 7 11 15 19

GFSSW_850_spd_015.txt.gz
Wind_Speed
20 20 17 19 19 15 14 14 14 16 16 13 13 11 10 9 11 14 22 20 21 13 6 6 8 15 13 8 15 13 2 5 8 8 7 19 7 10 4 6 8 4 9 18 13
22 22 21 20 19 18 17 15 15 14 17 15 12 11 9 8 11 17 19 8 11 18 15 11 11 13 9 11 6 7 5 7 5 9 7 8 4 11 2 7 5 10 7 15 14
21 21 21 22 22 19 18 16 14 12 16 16 13 10 8 7 7 14 11 18 16 15 14 14 13 13 14 12 14 5 5 4 13 21 13 5 6 8 4 2 8 9 12 14 14
23 22 22 22 22 22 21 21 16 11 12 19 13 10 10 8 5 3 9 13 16 15 15 19 13 7 8 7 15 5 7 20 19 26 17 4 7 7 7 6 9 9 13 10 12
23 21 23 25 23 22 23 23 20 13 12 16 13 10 13 9 12 2 7 17 16 13 18 18 12 9 5 7 14 6 6 20 21 21 16 13 7 8 14 16 16 16 19 16 12
22 22 23 24 25 24 22 22 21 16 10 12 12 12 14 9 8 11 7 13 16 16 18 17 10 14 5 7 6 5 9 5 7 12 15 10 7 11 3 19 25 24 25 27 23
20 21 25 25 25 24 24 22 22 19 13 11 15 14 11 21 6 9 13 9 6 12 21 19 10 9 4 3 4 2 2 6 8 11 6 8 8 7 21 25 27 31 30 30 32
24 24 24 24 24 25 23 21 21 20 15 15 15 14 8 17 10 10 16 12 11 12 16 16 14 8 3 1 4 3 3 2 7 12 11 12 9 9 20 24 28 36 37 38 32
23 22 21 21 23 22 23 18 18 17 14 13 17 12 6 11 24 15 12 14 10 9 16 9 11 4 4 3 2 1 3 6 7 7 6 10 4 13 18 20 20 29 35 34 33
22 21 19 20 19 19 15 17 18 15 14 12 12 8 11 12 24 19 17 13 12 15 13 7 3 2 3 3 7 6 4 4 5 3 1 4 8 8 23 21 21 23 21 22 22
20 19 18 18 18 14 14 16 1 6 19 5 14 5 7 14 18 22 21 17 16 14 4 6 3 6 7 6 6 3 3 4 4 6 4 6 8 10 18 22 24 27 32 32 31
19 18 20 18 16 12 11 7 8 2 3 21 17 6 24 22 13 25 21 13 13 7 6 4 4 5 6 9 9 6 6 5 7 4 6 11 18 16 17 21 27 32 29 34 31
22 20 19 18 12 5 5 8 13 13 4 10 13 19 20 11 8 26 23 11 8 6 7 5 3 10 7 4 3 2 3 4 5 5 4 7 10 8 7 18 27 31 36 35 34
23 19 15 14 8 7 7 11 7 10 3 7 8 11 18 9 5 26 23 15 5 10 9 3 3 5 3 5 3 2 3 5 5 4 3 6 6 6 7 7 6 21 24 29 32
23 20 21 16 14 11 6 12 6 7 4 10 6 21 18 2 22 16 24 1 9 8 5 6 4 6 2 2 3 3 5 6 4 3 4 3 3 7 5 7 8 5 6 6 21
25 27 29 30 17 15 9 8 6 2 4 5 7 10 7 14 4 19 10 3 2 2 7 4 5 3 5 2 3 4 4 5 4 3 2 9 7 4 3 5 2 5 3 4 6
30 31 19 11 11 11 8 13 4 3 3 7 7 14 11 5 6 10 8 3 4 4 2 4 2 2 3 3 2 5 5 3 3 2 6 2 4 9 9 12 8 11 15 9 8
28 18 12 5 7 15 11 2 3 2 5 6 11 16 6 10 5 7 7 3 3 3 4 4 4 8 5 6 6 4 5 4 6 3 4 3 7 6 10 15 10 13 16 18 19
13 19 15 7 18 14 2 2 4 5 4 11 13 5 5 4 7 5 5 5 5 4 5 4 4 5 5 3 6 3 4 4 1 2 3 5 7 8 9 6 5 10 8 15 18
8 14 21 15 17 13 1 3 2 4 11 9 4 3 5 8 5 6 9 9 5 9 4 1 3 3 2 2 4 5 3 3 2 2 5 6 5 9 6 5 7 6 4 6 8
11 8 12 17 7 4 3 5 4 2 7 2 4 5 7 6 5 6 13 4 13 12 7 2 3 2 6 6 7 3 1 3 2 4 4 4 5 6 7 3 6 6 12 12 11
12 4 5 5 3 2 2 4 7 3 10 6 4 6 7 6 5 5 8 2 20 14 8 5 4 4 9 5 8 4 6 5 4 4 4 2 9 13 14 4 7 15 25 22 14
6 5 1 5 2 3 5 3 2 5 5 4 3 4 13 6 6 3 4 3 18 8 9 7 2 0 2 4 3 5 6 6 4 2 12 4 7 4 10 20 30 26 19 15 18
3 2 3 0 2 1 3 5 6 11 4 6 5 15 6 3 2 7 3 3 5 5 13 13 4 5 5 4 4 3 4 6 9 5 9 18 25 26 22 21 21 26 29 25 18
6 1 2 3 2 5 2 4 4 5 6 9 6 6 6 3 4 5 5 4 4 4 3 4 2 1 6 8 5 7 10 11 12 17 11 25 21 27 23 21 21 26 10 2 2
4 5 10 6 1 4 1 2 3 4 7 5 4 9 11 4 1 5 7 4 4 3 3 2 1 0 5 10 8 8 11 13 15 17 20 24 27 19 18 32 24 5 7 11 12
13 5 3 6 3 2 2 3 3 1 5 6 2 7 8 4 7 8 11 6 9 7 6 5 3 1 4 5 8 5 7 10 6 6 8 10 18 18 16 9 7 14 15 15 16

GFSSW_850_spd_018.txt.gz
Wind_Speed
19 18 18 19 19 20 18 16 14 14 12 17 16 13 11 11 11 15 22 19 20 16 15 12 13 17 14 9 11 6 3 5 6 8 5 4 3 8 8 7 6 6 9 11 19
21 19 20 19 18 18 17 18 17 14 14 13 17 13 11 10 14 20 22 13 16 21 15 15 12 15 10 10 7 6 4 7 5 4 2 8 4 6 6 5 4 4 8 21 20
21 22 19 19 20 18 19 17 19 15 14 8 15 15 11 8 10 18 14 18 19 25 23 13 10 12 8 6 8 5 5 8 6 11 6 3 15 4 3 4 2 1 15 20 23
25 24 20 17 19 21 19 18 18 16 15 12 14 18 12 10 7 3 9 18 21 18 20 19 15 5 6 6 10 3 8 12 4 16 9 2 9 3 9 10 6 4 3 13 18
26 23 20 18 20 18 20 20 18 19 17 11 10 14 13 13 15 4 9 19 20 22 22 18 16 9 5 7 11 3 4 9 14 17 16 12 9 12 11 13 19 17 13 11 12
24 20 20 21 22 21 20 18 20 21 19 15 8 15 14 12 15 12 8 21 23 20 20 21 12 12 5 4 7 3 14 10 13 9 8 7 8 13 6 15 22 25 25 20 17
22 21 20 19 21 22 22 20 19 19 16 17 8 13 16 22 5 11 10 16 18 18 17 24 8 12 7 2 4 3 2 3 6 6 4 4 14 7 19 25 28 32 32 33 29
22 20 19 19 20 18 19 19 18 17 14 20 12 15 9 18 9 14 15 13 11 13 19 20 15 9 5 3 2 3 4 1 4 4 9 9 17 3 15 23 28 34 32 29 34
20 19 18 16 18 17 17 17 11 12 14 17 11 12 5 12 22 16 20 18 14 13 16 19 17 6 5 5 2 4 2 4 7 11 6 10 3 14 24 26 19 25 28 29 32
21 19 17 17 17 16 14 15 14 13 11 10 9 7 8 12 26 18 16 12 12 19 14 7 4 3 2 3 6 5 2 3 6 4 1 6 10 10 18 12 20 23 26 29 28
22 20 18 19 18 16 13 11 3 1 12 8 9 5 1 13 23 19 18 14 13 9 5 3 2 7 9 3 4 5 2 4 5 6 4 7 6 10 18 17 21 27 32 36 36
23 22 19 18 15 14 6 2 7 4 4 17 13 3 3 18 17 24 21 11 7 5 6 4 4 4 4 4 2 2 6 6 6 3 3 7 15 14 14 17 25 31 33 39 43
19 18 15 13 14 4 6 4 7 7 1 5 8 10 17 17 10 23 19 10 7 7 5 5 4 9 5 3 5 4 4 3 5 6 0 7 10 6 6 12 21 31 38 34 36
20 17 18 17 13 5 4 6 4 3 3 4 7 8 11 12 4 21 16 12 3 8 5 2 3 9 6 4 5 2 1 2 2 3 4 5 6 6 8 10 7 13 15 21 23
21 21 20 19 13 12 5 7 4 4 4 5 8 21 12 0 21 13 11 4 6 6 5 4 5 7 4 3 4 3 3 3 2 3 4 3 3 8 5 8 8 7 7 1 6
26 26 23 17 10 15 8 1 1 4 3 4 7 10 7 9 3 18 6 4 6 5 7 2 2 3 5 3 4 6 4 6 4 3 2 5 5 5 4 5 2 4 9 6 9
25 14 7 3 1 10 8 8 4 2 3 6 9 14 10 4 5 9 6 3 4 5 4 2 2 1 4 6 4 5 5 3 4 2 6 2 3 7 8 9 5 9 18 17 12
21 13 9 8 9 14 8 1 3 2 5 11 10 13 6 6 9 8 8 3 2 5 4 4 2 6 3 4 5 4 6 4 5 2 4 1 6 6 7 13 12 10 11 10 15
21 25 23 19 16 11 3 3 1 3 4 10 12 8 5 4 6 5 2 5 3 3 5 4 2 2 3 3 6 3 2 3 2 2 3 4 7 9 6 1 3 8 10 12 14
19 27 21 14 8 3 2 4 3 3 12 8 4 1 5 4 5 4 7 4 3 8 2 4 4 2 2 4 2 4 5 3 3 1 4 4 5 8 6 2 6 7 8 12 18
15 9 11 9 6 3 2 3 3 6 4 2 4 4 4 5 5 4 11 3 8 5 7 1 4 1 5 4 6 3 1 3 3 4 3 4 6 6 5 2 5 6 17 24 28
8 3 3 8 3 1 2 3 4 2 5 3 3 6 5 4 4 4 8 4 18 8 7 2 4 3 7 2 5 4 6 6 4 4 3 3 7 6 4 3 5 20 29 29 33
3 2 5 6 3 3 4 1 3 2 4 3 3 4 5 6 5 3 4 4 18 7 8 4 2 2 3 3 2 4 5 5 1 2 6 1 6 3 7 18 30 22 28 29 30
4 3 4 3 2 2 4 3 4 7 3 4 4 13 4 3 3 4 3 4 9 9 13 8 3 5 5 5 3 3 5 7 7 3 4 12 20 26 23 20 21 28 28 29 30
5 4 4 4 5 3 2 4 4 6 8 8 4 3 4 4 4 4 3 3 6 7 4 4 4 1 4 7 5 6 7 8 9 15 8 20 17 25 23 22 21 25 20 17 17
4 4 8 7 6 4 3 2 5 4 6 5 6 3 4 4 3 6 6 3 4 0 3 1 2 1 5 6 7 6 10 12 15 15 18 22 25 21 18 24 15 17 19 21 25
5 4 3 6 5 3 2 2 3 2 3 6 2 5 9 3 6 6 6 12 8 7 3 5 4 1 5 4 6 5 8 11 5 6 7 7 10 10 14 11 8 15 18 21 20

GFSSW_850_spd_021.txt.gz
Wind_Speed
21 21 19 20 20 19 15 16 17 19 18 17 19 15 14 12 14 15 24 21 24 11 14 20 20 17 13 9 9 8 3 4 4 6 5 3 2 2 7 11 7 4 8 5 21
24 24 22 19 18 18 18 15 15 21 24 17 13 9 15 11 15 23 26 21 15 19 18 21 21 18 11 9 9 6 4 8 5 5 2 4 3 7 6 7 4 3 6 9 24
27 25 25 24 20 18 13 18 17 15 25 21 15 17 13 11 12 25 19 23 21 26 21 16 11 15 9 8 8 6 5 4 4 6 5 2 8 3 4 5 4 3 6 17 24
25 24 24 22 18 17 18 15 16 17 18 18 18 18 12 14 8 2 7 20 25 30 24 17 13 9 6 6 9 3 7 6 6 18 7 2 5 4 9 14 6 4 1 13 19
23 21 18 23 23 19 18 17 18 17 19 17 19 13 12 16 19 3 4 21 26 28 30 22 17 8 6 8 4 4 2 6 14 17 10 9 10 9 11 16 19 17 13 10 12
24 22 19 19 19 19 19 19 18 20 17 13 20 12 10 10 14 13 5 20 26 27 25 26 14 13 7 3 9 4 11 14 14 13 10 6 8 12 3 8 22 23 20 20 18
22 21 20 18 18 18 17 17 17 16 16 15 21 13 12 18 6 12 9 22 26 26 26 23 13 12 6 4 6 5 3 1 6 5 5 2 11 7 17 23 27 30 30 28 27
21 20 19 18 16 17 17 17 17 17 14 13 15 13 7 17 10 10 10 19 20 18 18 22 12 13 4 5 4 5 4 3 3 5 7 7 17 6 12 22 26 30 34 37 35
19 21 20 18 17 18 18 17 15 11 11 12 11 8 5 10 22 15 15 15 16 19 16 21 17 6 5 5 3 3 3 3 6 5 4 8 4 5 16 26 24 31 32 29 30
22 22 20 18 18 18 19 18 11 12 9 4 9 3 7 10 24 18 18 13 12 15 16 14 6 4 3 3 7 5 4 2 4 1 3 6 8 14 25 19 15 21 27 31 32
24 23 18 17 16 15 17 10 1 2 7 4 7 6 4 9 21 17 16 13 10 11 5 4 3 10 11 5 2 6 4 1 3 5 5 6 5 13 16 18 18 26 32 37 39
19 17 14 12 11 14 7 3 4 4 3 9 2 7 5 16 14 16 14 9 7 4 7 3 4 4 5 3 2 2 2 4 5 1 2 6 12 15 15 16 24 29 35 39 40
20 18 14 12 12 7 6 5 4 2 1 3 2 6 8 16 7 13 16 7 10 8 2 4 3 7 5 4 4 2 4 3 4 5 2 7 8 6 5 10 19 29 33 35 35
23 20 17 14 14 8 5 4 2 4 3 2 2 5 13 14 4 16 14 5 3 9 6 3 2 9 3 3 4 3 3 3 2 3 3 4 6 6 8 12 5 19 17 13 16
25 20 20 15 6 6 5 3 4 3 5 8 4 12 9 4 18 7 5 5 5 6 5 3 4 8 5 3 4 3 3 4 3 3 3 2 1 8 4 7 7 8 6 3 4
18 13 12 6 3 8 6 3 2 5 4 6 6 8 7 6 3 6 4 9 12 6 5 2 2 3 3 4 1 7 4 6 4 2 2 3 3 6 3 3 6 7 21 14 13
17 12 11 10 8 12 8 6 4 3 1 6 8 11 8 7 5 4 2 4 4 4 3 4 4 3 5 6 5 5 5 2 4 3 5 2 3 10 8 4 5 9 18 16 14
22 21 22 21 17 13 9 1 5 2 4 10 13 12 5 3 7 4 3 3 3 4 3 4 2 3 1 3 4 2 5 4 4 2 4 0 5 6 4 4 7 5 8 14 20
21 25 25 20 14 10 5 4 2 2 5 10 13 7 3 4 5 5 1 4 3 3 5 4 1 2 2 2 4 3 2 1 5 2 3 3 7 9 5 5 10 10 11 17 26
14 16 15 11 8 7 3 4 2 5 8 4 5 2 4 3 4 4 6 3 3 3 3 5 3 1 2 3 5 3 7 3 3 1 3 4 5 5 3 1 5 5 16 25 35
8 4 9 13 4 5 3 5 4 7 10 5 3 4 4 4 3 2 6 1 6 5 4 3 3 0 4 4 6 3 0 4 4 3 3 3 6 6 4 1 5 9 27 32 29
9 3 13 14 4 3 2 1 3 4 3 2 4 5 4 4 3 2 6 4 10 9 6 3 4 3 5 1 4 3 5 4 4 3 1 3 7 4 5 3 2 21 26 29 29
5 6 10 13 4 3 1 1 2 2 2 3 2 3 2 4 4 3 5 3 12 7 8 4 1 2 2 2 2 3 4 4 5 3 5 2 6 3 4 11 26 23 25 24 29
2 3 6 6 3 2 5 4 5 4 3 3 3 6 4 3 2 6 3 4 15 10 11 6 2 4 5 5 4 2 4 6 6 3 4 9 8 19 17 15 22 22 21 23 27
3 2 4 3 4 5 3 4 4 6 7 6 4 4 5 3 3 3 2 2 4 5 4 4 3 2 4 6 3 5 5 6 7 11 6 3 9 18 17 16 17 13 22 24 26
3 2 3 3 9 4 4 4 5 4 5 5 4 3 3 4 4 7 6 3 3 3 3 1 2 2 3 5 5 5 8 10 11 12 14 19 22 23 25 16 14 14 17 20 23
5 3 1 3 4 3 2 3 4 2 3 6 2 4 6 3 1 6 3 10 6 7 3 4 4 2 4 5 6 6 10 13 5 6 9 7 12 7 9 9 8 13 15 17 17

GFSSW_850_spd_024.txt.gz
Wind_Speed
25 25 24 24 22 19 20 17 17 17 17 26 24 21 9 17 15 17 24 22 23 7 11 25 20 15 11 9 8 8 3 5 6 6 3 1 1 0 2 7 7 3 6 6 10
24 24 25 24 25 24 22 18 15 19 23 20 22 22 15 13 17 26 25 22 19 16 11 25 24 18 9 7 8 5 4 9 6 5 4 2 1 4 4 7 4 5 4 8 13
26 23 24 23 19 20 21 18 11 15 17 24 22 20 18 8 14 27 20 24 19 23 15 18 23 20 10 8 7 5 4 5 6 8 4 2 3 1 1 4 3 3 7 5 20
24 25 23 21 20 20 20 21 19 14 17 15 19 14 20 12 7 1 3 17 23 28 24 20 19 15 6 6 8 3 6 8 5 9 4 3 2 4 6 10 5 7 11 3 15
22 21 21 20 19 18 18 18 16 15 15 17 14 12 14 10 19 4 1 9 28 31 28 22 17 9 7 8 6 4 2 11 14 11 8 6 7 8 13 16 14 16 14 10 6
22 22 21 18 18 17 16 16 15 15 16 14 13 14 10 8 16 23 7 9 32 34 31 26 15 9 9 6 5 7 10 10 6 9 6 5 7 9 3 8 17 22 21 18 16
22 21 19 19 16 14 15 16 15 15 14 14 11 12 13 14 10 13 13 11 30 33 34 26 13 11 7 4 10 5 2 2 7 6 5 1 7 7 20 24 28 27 25 24 23
24 20 21 20 19 16 17 16 15 13 14 9 7 9 7 4 18 9 9 14 27 27 31 28 16 14 4 7 4 6 3 1 3 7 5 8 5 3 9 15 24 27 29 30 31
22 21 22 20 16 16 17 18 15 14 10 7 8 8 6 8 17 10 9 17 22 21 21 23 19 11 4 6 3 2 4 4 4 4 2 7 2 3 11 11 17 25 29 30 30
20 22 20 16 15 15 17 14 11 8 6 3 8 5 9 9 19 15 13 12 20 24 17 19 10 4 2 6 7 5 3 2 4 1 2 4 7 9 18 15 16 21 26 27 28
25 22 17 13 11 9 13 5 2 2 5 6 6 4 1 10 14 12 16 11 11 12 7 14 4 13 14 5 5 5 4 3 3 3 3 6 4 13 17 14 19 25 29 32 35
26 20 18 10 9 8 8 4 2 4 5 11 8 14 8 14 10 11 15 6 5 3 9 4 6 6 9 8 7 7 5 2 4 1 1 6 10 15 14 9 24 27 31 34 36
32 17 16 10 8 6 6 3 3 3 2 4 3 3 7 13 8 9 13 4 8 6 2 6 2 8 11 5 6 2 3 3 4 4 2 7 7 5 4 6 9 15 19 20 23
23 22 13 6 6 4 3 1 3 4 4 2 2 2 6 12 6 8 14 4 4 9 7 5 3 9 8 1 3 3 3 2 2 3 2 4 5 7 6 9 6 14 14 11 13
21 14 5 8 3 3 1 2 5 1 6 3 3 8 13 1 18 2 10 3 6 9 4 3 1 4 7 6 6 3 5 4 3 3 2 3 2 8 4 6 3 8 21 16 11
19 15 12 11 1 2 4 4 4 5 3 1 1 4 6 3 4 6 3 13 11 10 9 4 5 1 3 4 2 8 6 6 4 2 2 2 3 7 1 2 6 8 19 22 22
18 16 15 11 10 9 5 2 4 5 1 3 4 5 6 6 5 4 1 4 4 4 3 5 3 3 4 7 5 6 5 2 4 3 4 1 1 8 6 5 4 7 11 17 22
19 20 21 23 15 9 2 4 6 2 2 4 6 11 5 4 4 2 2 3 5 5 3 4 2 1 2 3 5 2 4 4 4 1 3 1 5 4 4 4 3 4 8 20 28
13 15 17 13 7 7 2 5 2 1 3 9 11 7 4 5 4 3 3 3 2 1 5 4 3 2 4 2 2 3 2 2 6 2 2 3 7 8 4 4 7 11 24 31 31
15 11 16 16 12 7 1 5 1 2 4 6 5 1 3 1 3 3 3 3 4 1 2 3 4 2 2 4 8 3 6 3 3 1 3 4 4 4 3 6 7 10 23 33 34
10 5 18 17 9 7 3 3 3 4 5 4 3 4 4 4 2 3 6 0 1 3 5 3 3 1 2 2 5 2 1 5 4 3 3 2 5 5 4 1 3 8 24 30 28
6 3 18 12 4 2 3 4 5 4 4 3 3 3 3 3 3 2 7 2 7 8 5 2 4 3 2 0 1 2 4 4 4 3 2 2 6 3 5 3 7 18 22 20 25
7 5 13 14 4 4 2 2 2 4 3 1 2 2 2 4 4 2 4 1 11 4 6 5 2 3 3 3 3 2 3 3 4 3 5 4 5 1 4 7 19 17 20 26 25
4 3 6 8 5 2 5 4 4 4 3 3 3 3 4 2 4 4 2 3 11 8 6 5 3 4 5 5 3 3 5 5 5 3 3 5 7 12 12 12 18 19 18 21 24
5 2 2 3 4 4 3 4 4 4 5 4 3 2 5 3 2 3 2 2 3 2 4 4 3 2 3 5 4 4 4 8 8 5 6 3 6 12 14 15 19 16 18 20 22
3 3 4 3 5 4 3 4 5 4 4 3 5 4 3 4 5 7 6 3 4 2 4 1 3 2 3 2 5 5 9 9 10 7 12 15 19 18 23 20 12 13 13 16 19
5 4 3 3 3 2 1 3 5 2 3 5 3 3 4 2 2 6 3 8 6 7 3 4 5 2 4 3 6 5 8 13 5 5 9 8 11 9 8 10 9 13 12 14 17

GFSSW_850_spd_027.txt.gz
Wind_Speed
26 25 25 23 24 24 21 21 19 13 15 18 27 24 24 14 16 18 24 22 19 11 10 26 22 18 15 12 9 8 3 6 10 8 3 5 5 4 4 3 3 3 3 5 3
26 27 24 23 22 20 19 17 16 17 12 15 19 25 21 22 11 26 26 16 18 14 8 26 26 19 8 8 8 5 5 9 6 7 4 8 5 4 2 2 2 3 2 7 6
24 23 23 21 19 18 16 14 15 16 17 12 14 18 18 17 18 22 23 24 21 22 14 19 26 20 7 8 7 6 5 5 6 9 10 8 3 4 4 2 3 4 8 6 9
24 20 23 20 17 17 16 14 13 13 10 12 15 13 18 13 6 6 5 16 23 25 19 21 25 16 6 6 9 4 5 8 4 9 6 5 6 2 6 7 3 3 9 5 5
22 22 18 17 16 15 13 13 12 12 10 13 13 10 11 13 17 9 7 4 27 31 28 23 26 16 9 8 8 3 4 8 5 5 3 3 4 6 11 12 12 13 12 7 4
22 23 19 17 16 15 12 12 12 11 11 12 11 9 9 12 16 28 16 10 30 33 32 25 18 15 13 9 6 11 7 4 5 4 4 5 6 6 5 7 13 18 19 17 15
24 23 18 16 16 15 14 13 12 11 11 9 11 7 12 15 6 21 14 11 25 35 35 28 21 12 14 5 10 10 4 3 6 6 3 3 5 6 23 21 23 23 20 19 18
26 24 16 16 18 15 13 14 13 10 8 7 5 5 7 16 15 15 10 10 23 33 33 27 24 8 4 12 5 5 2 4 2 9 6 8 8 2 5 12 17 19 21 23 27
26 26 26 16 14 12 12 13 10 9 8 3 4 6 4 12 9 19 8 7 24 29 27 25 21 6 5 6 4 3 4 4 2 8 3 6 2 4 4 9 16 18 19 19 24
27 23 20 16 11 10 9 9 4 2 5 6 6 5 7 7 8 11 11 12 26 26 23 21 10 4 4 5 8 6 4 3 5 3 3 2 7 9 20 12 14 16 21 24 22
31 31 15 12 8 6 6 1 2 3 5 5 9 4 7 8 11 15 15 17 19 21 5 13 5 15 12 6 4 6 5 4 2 1 2 4 5 11 17 15 20 24 26 26 27
27 19 15 7 4 3 9 4 3 2 2 10 9 13 7 12 8 13 16 8 8 13 7 6 7 9 9 6 5 4 4 3 2 1 1 3 11 16 12 9 16 17 20 21 20
26 20 7 2 2 3 6 1 3 2 1 2 1 9 4 11 6 6 15 11 17 8 13 7 2 13 11 5 7 3 5 3 2 2 2 5 5 5 2 3 7 12 8 8 5
27 15 5 7 3 7 6 1 0 3 4 7 6 3 8 7 6 7 10 4 5 12 11 4 1 14 15 9 6 5 4 4 4 2 2 4 4 6 4 3 1 18 17 17 12
25 22 8 5 5 3 4 4 2 3 6 4 4 2 9 2 12 9 8 10 6 8 3 0 3 8 12 7 3 2 5 4 3 3 1 3 2 5 3 4 3 10 19 21 20
26 21 10 7 9 7 6 2 2 5 3 1 4 7 4 6 5 8 7 8 13 7 11 6 4 3 2 5 3 9 6 6 3 1 1 2 2 3 0 1 3 3 9 17 21
24 23 15 10 8 5 3 2 4 6 3 1 4 3 5 5 5 3 4 3 4 5 3 4 4 1 4 9 4 1 5 1 2 1 3 1 2 6 4 4 3 2 9 19 23
18 18 17 13 9 6 8 3 9 1 3 1 5 10 5 5 4 5 3 3 6 5 4 3 4 1 2 3 6 2 4 3 4 3 2 2 5 2 4 9 2 5 19 21 23
18 15 18 14 11 11 3 6 5 1 0 6 5 6 5 5 5 3 2 2 2 2 4 4 3 2 4 3 2 3 2 2 6 1 1 2 5 6 1 3 1 5 24 26 26
16 7 18 17 10 5 1 6 2 4 2 3 3 1 3 1 3 2 1 1 3 2 1 3 5 2 1 3 8 2 6 2 2 2 2 2 3 3 3 3 3 7 18 24 24
12 3 20 14 8 8 3 3 3 2 2 3 3 3 3 3 3 3 4 1 1 2 4 3 3 1 2 2 5 2 1 4 4 1 3 1 3 5 5 3 3 10 20 20 21
5 3 13 11 6 4 2 5 7 5 5 3 4 3 3 2 3 2 5 2 6 6 3 2 4 3 1 1 1 1 3 4 3 4 1 1 4 1 5 6 5 16 15 13 23
4 3 13 9 3 3 3 4 2 5 4 3 2 1 1 4 4 3 3 1 8 4 6 5 1 3 1 1 1 3 3 3 3 2 5 3 3 0 4 6 18 12 11 16 17
3 3 5 7 5 2 3 4 4 3 2 2 2 2 3 3 4 4 3 2 7 3 8 5 3 4 4 4 3 3 4 4 4 3 3 5 5 7 6 8 15 18 11 17 15
4 2 2 2 3 3 2 0 2 4 4 3 3 1 3 3 2 2 2 3 3 5 3 3 3 2 2 3 3 3 4 8 7 4 5 3 5 8 12 11 16 15 11 12 14
3 3 3 2 5 3 2 2 2 2 1 3 4 1 1 4 5 7 5 2 4 1 3 2 3 2 3 1 4 4 7 8 10 7 9 7 16 13 18 13 10 9 10 13 16
6 3 2 4 4 1 3 3 2 1 0 2 3 3 3 2 2 4 4 7 7 7 3 5 5 2 3 2 4 5 11 13 6 5 9 8 10 4 7 7 6 10 10 13 13

GFSSW_850_spd_030.txt.gz
Wind_Speed
26 25 24 24 21 20 20 18 19 17 16 11 9 22 23 22 22 11 27 16 22 11 16 26 21 16 16 14 9 8 10 17 22 19 14 10 10 7 6 7 4 3 2 2 3
26 23 23 21 22 17 16 16 15 15 13 14 14 9 18 20 19 25 23 18 20 17 11 23 24 19 14 13 10 14 14 22 12 12 13 12 12 11 8 9 8 6 2 5 6
25 23 22 21 17 16 15 14 14 12 13 14 11 12 14 21 13 22 16 22 18 22 15 18 22 19 13 12 12 15 16 11 9 12 7 12 11 7 9 9 9 8 3 2 5
26 23 22 19 15 12 13 11 11 10 10 11 12 9 10 6 7 11 12 20 22 23 19 20 24 17 14 14 16 9 15 10 6 6 8 12 9 8 11 3 8 8 1 0 3
24 23 22 17 15 14 11 11 9 9 9 9 10 9 7 11 23 9 16 9 26 25 26 25 31 23 16 15 14 13 7 9 6 8 7 6 8 9 11 9 7 7 9 6 4
25 23 20 21 12 12 10 10 9 8 8 9 7 8 7 16 18 23 20 3 25 29 28 25 25 20 18 15 14 16 5 15 10 9 5 7 8 5 8 8 10 13 14 12 11
28 25 22 22 14 12 11 9 9 8 8 10 10 8 12 19 8 21 23 13 22 30 29 22 18 18 12 9 12 9 13 8 10 9 8 6 12 14 19 19 17 16 13 11 14
26 24 19 19 14 11 11 9 9 8 7 5 7 7 9 11 16 11 12 8 19 27 25 20 22 13 10 8 12 13 7 9 11 18 7 6 14 4 7 14 17 17 16 17 20
29 23 20 15 10 8 7 8 8 8 7 5 7 6 6 9 14 12 15 8 22 24 22 23 22 12 8 14 9 14 10 17 5 8 8 17 9 8 9 6 11 12 13 14 15
27 17 14 7 6 5 2 5 0 2 7 7 4 5 8 13 9 14 16 9 24 23 19 19 13 10 12 14 14 16 15 11 14 6 9 9 13 6 8 10 14 15 16 16 16
28 20 6 1 2 3 5 3 2 3 6 4 5 2 8 10 10 11 18 16 24 27 10 25 10 19 20 17 0 10 15 10 8 2 4 11 12 12 16 17 18 20 21 19 17
27 19 9 6 3 1 5 3 4 1 2 7 5 12 10 4 7 8 14 11 15 19 12 8 14 17 14 10 7 13 13 9 5 3 4 4 11 14 16 15 15 15 17 17 14
27 16 8 8 6 4 4 5 3 2 1 4 3 7 3 5 5 7 8 1 18 12 18 7 13 18 15 13 12 8 10 6 2 4 1 6 9 5 3 5 4 3 3 6 1
31 19 11 8 5 6 8 6 3 2 1 4 3 3 4 3 6 8 13 0 5 7 7 2 0 20 19 16 14 9 5 7 6 3 4 3 2 5 5 8 7 10 12 12 10
34 24 14 11 3 5 5 4 1 4 3 8 5 5 7 2 9 8 11 8 9 10 4 2 3 19 18 17 14 3 7 7 4 3 2 4 4 6 7 9 9 10 10 9 8
23 25 18 10 9 5 3 2 3 3 6 4 7 5 4 10 7 6 3 9 9 10 11 5 4 4 3 9 5 14 10 7 3 1 3 3 3 5 7 8 7 5 6 7 8
14 15 18 9 6 4 6 7 2 6 1 6 5 5 11 8 7 5 3 2 4 5 3 3 4 3 3 9 4 1 7 3 4 4 1 2 3 2 5 5 5 6 6 7 8
14 11 11 11 8 9 7 2 9 4 2 3 5 12 7 4 4 5 7 5 4 3 3 3 5 1 1 1 6 8 3 2 3 4 3 2 5 3 1 6 5 6 5 6 8
12 5 9 12 8 6 1 5 3 1 3 6 7 6 4 7 4 2 4 3 3 2 2 4 4 3 1 2 4 4 4 2 4 1 2 3 3 1 4 8 11 7 6 4 4
8 1 13 13 8 3 1 5 1 3 3 1 3 2 3 4 3 3 1 2 3 2 2 3 6 3 3 1 9 1 8 3 1 4 4 4 3 5 9 8 7 4 6 7 8
5 1 13 10 9 6 3 4 2 2 2 2 3 4 5 4 4 4 3 2 2 3 3 4 3 4 3 3 6 4 3 1 1 2 2 2 3 4 10 8 3 6 7 6 8
4 0 8 7 3 3 2 2 2 2 2 2 2 3 4 3 4 2 3 1 4 3 3 2 4 5 2 2 2 2 3 5 3 4 0 2 3 5 5 3 4 11 9 7 7
3 2 7 4 3 3 2 2 2 5 4 2 2 1 1 3 2 2 3 2 5 3 4 5 3 5 2 2 2 5 6 3 4 1 5 3 4 3 3 4 9 8 9 7 7
3 0 4 8 4 2 1 1 1 1 1 1 2 2 3 3 3 4 3 2 1 0 4 3 2 1 3 3 4 5 10 10 5 4 4 5 1 5 5 8 9 11 9 7 9
4 2 1 1 3 2 1 2 2 2 1 1 1 1 3 3 3 4 3 3 3 5 2 1 2 1 1 2 3 3 7 13 10 7 6 1 6 5 9 8 11 11 7 7 8
3 2 3 1 2 1 1 1 2 1 2 1 2 4 2 2 1 6 7 5 3 4 3 1 3 1 1 2 6 7 11 12 15 16 14 15 17 14 9 4 9 7 6 9 8
4 3 2 2 0 2 1 1 2 4 1 2 0 3 3 2 2 0 3 5 6 7 5 5 5 2 1 1 5 7 16 18 11 9 14 11 9 6 7 7 7 5 5 4 4

GFSSW_850_spd_033.txt.gz
Wind_Speed
27 26 24 24 23 25 22 19 17 17 20 18 14 11 13 18 25 21 14 20 22 8 11 17 20 12 13 14 19 15 10 14 24 21 16 13 9 14 8 9 7 6 3 5 6
25 25 24 23 22 21 17 17 17 15 13 15 14 12 11 16 18 21 23 22 16 17 10 21 21 17 17 18 14 16 15 23 18 18 10 16 13 14 8 13 12 8 3 4 5
27 26 24 23 21 18 16 15 13 14 11 13 14 11 13 9 13 32 20 16 23 21 14 18 20 20 18 16 21 18 21 19 19 5 3 14 14 14 14 13 14 15 7 4 6
27 27 23 22 19 16 12 13 11 10 8 11 14 14 12 4 7 15 20 22 26 22 18 18 25 21 18 15 24 13 26 21 16 6 5 14 14 12 14 7 10 8 6 5 5
27 28 24 22 17 19 13 12 8 7 7 8 9 10 5 10 16 5 14 18 17 24 25 23 30 25 17 21 19 18 11 19 7 7 10 15 15 13 14 7 7 8 6 5 5
30 24 25 19 13 14 11 10 7 7 7 7 8 8 7 16 7 18 14 15 19 26 28 28 29 27 13 11 20 13 10 15 12 8 7 9 14 10 13 12 12 12 11 9 9
30 27 22 15 16 9 8 8 7 6 7 7 9 8 14 20 3 18 25 12 10 30 30 26 22 25 8 7 14 11 15 7 16 11 7 8 14 18 17 11 13 13 12 12 15
31 26 18 12 9 4 6 7 7 7 7 5 8 8 14 13 20 12 18 24 12 28 26 23 18 24 9 7 15 10 14 13 11 12 9 9 13 15 20 22 23 19 19 18 17
30 20 13 4 3 3 3 4 5 6 6 5 6 9 10 4 16 19 18 17 18 29 25 18 22 24 12 13 13 14 13 17 11 17 12 14 10 14 12 7 12 15 15 16 17
28 20 7 4 5 5 5 3 2 4 6 5 5 5 15 7 17 18 23 19 29 31 19 14 11 15 12 14 16 18 19 17 17 9 14 18 15 9 7 12 15 15 15 16 16
25 15 12 9 8 6 7 3 2 3 7 3 3 11 6 3 15 16 23 15 23 27 14 27 9 20 28 23 14 13 17 12 12 8 7 14 15 15 14 17 18 18 17 18 17
24 16 15 10 7 3 6 2 4 2 3 6 7 9 11 8 11 18 19 5 24 21 16 7 17 19 17 18 9 7 15 12 5 6 7 10 12 12 14 19 20 19 18 17 15
24 16 13 8 10 9 8 5 1 1 3 5 3 8 10 5 6 6 6 11 4 22 17 13 9 15 12 14 12 12 15 14 4 9 8 5 14 16 10 9 8 7 11 12 10
22 17 19 6 6 6 4 3 4 4 2 6 2 2 3 1 6 13 10 5 3 21 12 5 6 17 15 17 16 12 8 9 6 7 6 7 3 8 11 8 5 4 5 7 7
17 17 14 11 2 2 3 2 1 2 2 5 4 4 2 3 12 8 5 5 5 7 3 2 5 18 19 18 14 7 10 9 6 4 4 7 5 8 11 10 8 8 8 7 5
18 12 12 7 6 2 1 5 4 3 7 4 3 5 1 4 6 4 6 7 8 7 11 5 4 3 4 3 12 12 12 8 5 2 4 9 7 9 11 11 11 9 8 6 4
19 13 9 8 5 7 6 4 3 5 1 5 2 4 13 6 7 3 2 1 4 4 3 5 3 2 1 10 9 9 14 4 5 4 3 3 5 4 7 10 13 10 7 4 2
15 9 9 8 7 5 2 3 7 5 4 2 2 8 6 3 2 4 4 4 5 10 4 3 4 4 5 2 8 11 11 2 6 6 6 4 6 2 8 10 9 8 3 1 2
12 6 9 10 5 3 4 5 3 2 4 3 4 5 4 5 5 7 6 5 4 1 3 4 4 4 0 2 6 6 6 3 2 2 1 7 4 5 7 9 11 10 2 2 2
9 6 5 11 5 5 1 4 1 3 4 4 2 2 2 3 4 3 1 3 5 2 2 4 6 6 5 6 3 3 5 2 2 3 5 6 5 4 11 12 12 9 6 4 3
4 4 6 6 6 1 3 4 4 3 3 4 3 2 6 4 2 2 3 3 2 3 2 4 4 6 8 7 9 5 4 3 3 2 3 3 4 12 15 13 10 3 4 5 4
3 2 8 5 0 3 3 0 2 1 0 0 1 2 4 4 3 2 3 3 3 3 3 3 5 4 2 3 4 4 5 10 3 4 1 3 3 7 12 9 3 3 5 4 3
7 4 6 4 1 5 5 3 2 1 1 1 1 2 1 4 3 3 2 3 2 0 2 5 4 5 2 3 3 6 9 6 1 3 4 3 5 6 8 5 2 2 4 4 2
4 2 1 0 4 1 4 3 3 1 0 1 2 3 5 4 1 6 4 2 1 2 3 1 3 2 1 3 3 6 11 12 8 3 5 8 6 9 9 3 2 4 5 3 4
4 2 2 2 2 3 2 0 1 1 0 2 3 3 3 4 4 4 6 4 2 2 2 1 2 1 0 3 2 4 8 14 13 11 6 1 7 8 2 3 3 4 3 5 6
4 5 6 5 5 4 1 2 3 2 2 1 3 3 4 1 1 5 8 6 5 7 5 2 2 1 2 3 6 8 10 11 16 16 16 13 12 9 8 1 3 2 1 3 4
7 5 3 2 2 4 2 3 4 5 2 1 4 1 4 2 2 1 2 3 3 6 9 6 5 2 1 2 4 9 17 18 15 10 16 14 11 6 2 1 3 2 2 2 1

GFSSW_850_spd_036.txt.gz
Wind_Speed
26 25 26 25 24 22 21 20 16 14 15 17 18 14 11 10 15 22 23 18 24 12 12 19 20 18 15 16 17 16 6 12 13 15 12 10 7 10 5 13 3 3 12 10 10
26 26 26 25 23 21 19 18 16 15 13 16 15 15 14 11 12 22 22 19 20 21 8 21 23 20 13 17 13 13 9 16 19 22 16 14 9 15 6 9 6 7 9 7 7
30 29 26 23 20 19 16 16 13 11 9 11 11 11 13 6 13 24 27 22 21 21 15 17 20 18 16 13 16 12 15 16 25 30 20 12 8 8 10 6 16 13 14 10 6
31 31 28 24 22 18 13 12 10 9 6 7 10 10 13 3 5 11 32 30 21 20 17 18 23 20 11 12 22 8 22 20 20 1 8 5 3 9 10 7 6 15 17 7 5
34 31 26 22 18 14 14 13 8 6 4 4 7 8 9 8 13 8 18 24 23 24 22 18 25 22 12 17 14 18 12 22 26 2 1 7 8 6 6 8 6 10 11 8 5
33 28 26 19 10 12 11 8 4 5 3 3 5 7 5 9 7 8 7 18 22 26 25 21 20 21 11 8 15 12 20 12 12 3 2 4 7 9 8 8 8 3 3 6 8
32 28 19 12 5 8 4 4 3 5 3 2 5 5 8 15 1 7 13 15 12 26 25 25 18 24 4 5 15 6 7 6 6 8 2 2 8 11 15 8 12 11 12 13 13
31 25 15 8 6 4 2 2 4 4 3 4 4 4 10 10 15 13 12 18 13 21 25 23 20 22 7 5 4 9 3 7 8 11 5 11 5 12 18 16 14 14 15 16 15
29 22 14 11 8 6 5 2 2 3 3 2 1 4 9 4 16 16 14 10 8 14 28 22 18 20 17 6 5 7 8 12 8 16 6 9 3 17 15 18 17 21 24 18 18
26 22 16 12 9 9 8 7 4 1 3 1 4 3 11 7 10 13 18 15 8 16 25 19 13 8 7 8 10 15 13 13 13 12 13 10 9 8 6 4 8 9 11 12 12
19 20 17 11 9 8 8 5 2 2 6 2 2 10 10 11 10 15 15 15 9 23 10 14 6 18 26 21 8 10 13 12 14 8 11 14 12 10 13 10 10 13 14 15 14
20 15 16 14 12 10 7 3 5 1 4 4 8 8 8 6 6 12 13 6 10 11 13 8 13 14 15 13 15 4 7 15 2 7 4 6 9 9 9 11 15 17 17 18 15
19 17 15 7 9 7 6 4 4 3 3 3 4 5 3 1 3 8 11 9 9 17 14 10 10 18 17 15 17 6 6 9 4 5 2 4 6 9 7 15 17 11 7 10 10
16 16 14 8 5 4 4 3 3 5 2 5 2 1 2 6 6 14 14 6 3 17 13 6 1 9 11 14 13 9 7 5 9 5 3 8 4 11 14 5 4 3 7 9 9
18 14 12 7 4 6 5 3 7 3 2 9 3 3 1 4 19 5 7 8 5 5 3 3 5 7 12 10 7 3 10 7 5 4 3 6 2 2 10 7 6 7 8 10 10
20 15 8 7 6 10 7 6 6 2 7 5 5 0 2 11 5 9 8 9 6 6 11 3 3 5 4 3 5 3 10 8 3 3 1 7 6 4 7 10 8 11 12 10 8
18 12 8 7 1 10 10 6 2 5 1 6 3 3 7 6 6 4 4 3 4 7 3 3 4 3 5 5 10 9 8 3 1 1 4 3 3 5 1 12 11 10 15 11 8
16 8 10 6 5 5 3 2 6 4 2 2 1 10 5 2 4 5 4 3 6 4 4 3 2 0 3 3 4 7 7 3 5 5 4 2 5 3 8 13 20 16 10 8 6
14 5 8 14 7 5 1 5 2 2 4 4 2 4 3 2 2 5 3 3 4 1 3 4 3 3 2 2 3 3 2 3 3 2 4 5 3 1 5 6 12 13 10 9 6
11 2 3 12 2 4 1 4 1 4 4 4 3 1 2 4 3 6 7 5 6 2 3 5 6 4 1 2 4 2 1 2 1 2 3 5 6 4 9 9 8 9 10 8 7
4 3 1 7 3 1 3 3 3 2 5 5 5 2 4 1 6 4 5 3 4 5 7 5 4 5 5 4 6 2 1 3 1 2 1 2 2 5 11 8 10 11 9 4 5
4 1 4 6 2 1 1 3 2 1 2 1 3 5 3 3 1 3 7 6 4 4 3 3 4 3 2 5 3 5 5 2 1 3 1 2 2 8 8 8 10 6 2 5 8
8 4 3 2 1 3 2 3 1 2 1 2 1 3 4 0 1 4 6 1 2 4 2 5 3 3 2 4 4 5 5 8 3 3 3 2 2 7 11 8 10 9 6 6 4
5 3 1 3 2 5 3 5 4 1 2 2 1 2 2 2 3 3 5 2 2 5 3 2 3 3 3 2 4 5 8 8 5 3 3 4 5 4 7 7 7 6 7 4 3
5 2 2 3 5 5 3 3 1 2 3 2 3 5 4 3 3 3 5 5 3 3 1 2 2 2 1 4 3 2 5 11 8 6 5 2 6 12 9 7 9 7 7 4 2
5 4 6 7 5 5 4 2 5 4 4 3 3 1 2 3 3 4 5 4 3 5 3 2 2 2 2 3 2 4 7 7 12 12 11 10 5 1 6 11 7 8 6 4 2
8 3 3 6 3 3 3 6 4 7 3 3 7 5 2 5 11 10 5 3 4 5 5 4 3 2 1 3 3 7 13 15 10 7 13 11 7 2 6 7 5 7 6 5 4

GFSSW_850_spd_039.txt.gz
Wind_Speed
27 27 26 25 23 22 18 17 16 13 12 12 14 16 15 14 14 18 28 18 21 13 16 16 20 20 23 26 16 19 5 9 13 10 11 23 18 9 11 4 11 8 22 21 25
31 30 28 26 21 20 15 15 13 11 11 11 11 13 16 9 11 20 29 31 27 14 14 20 26 21 13 13 12 7 7 17 17 23 9 22 26 1 3 4 11 17 15 14 24
32 30 31 23 20 13 14 9 11 7 7 6 6 10 13 6 8 18 21 28 24 25 11 19 24 17 8 12 12 10 14 16 16 18 4 16 26 18 9 1 8 21 15 12 19
32 30 26 21 17 11 12 7 8 5 4 4 3 10 11 4 5 3 12 31 22 25 20 20 23 12 5 7 20 10 19 20 24 9 1 11 18 13 9 5 4 18 15 13 11
32 28 24 18 10 7 7 9 6 2 1 1 3 4 6 6 12 12 3 29 25 24 27 26 26 16 6 8 15 7 5 20 10 9 12 15 24 17 4 13 14 21 16 12 9
30 24 19 14 8 9 8 3 1 2 1 1 3 4 7 4 5 6 8 26 28 27 27 28 21 20 12 15 10 14 16 9 9 19 21 15 17 15 1 13 12 10 10 11 8
27 24 20 16 13 11 9 2 1 1 1 1 4 7 6 12 8 6 5 14 24 25 27 25 15 23 8 4 18 7 13 8 5 14 6 6 5 7 7 4 7 7 6 5 8
24 22 19 17 15 12 8 5 2 1 0 1 3 7 6 3 10 4 1 10 16 24 27 22 20 13 3 5 4 5 6 6 6 12 7 9 7 8 16 8 8 7 8 9 10
22 19 18 16 14 13 10 6 2 1 2 4 5 0 6 7 2 11 8 3 6 18 23 17 16 3 13 3 4 4 5 5 5 15 5 5 4 14 13 17 15 15 12 13 14
19 18 14 14 11 10 10 10 9 6 6 7 2 2 4 4 2 3 11 8 8 16 10 12 6 3 5 5 14 19 12 9 8 8 7 7 8 6 7 18 22 19 16 13 12
19 18 15 12 8 7 7 5 3 3 1 2 1 6 9 11 2 10 13 10 5 12 6 8 4 18 24 5 2 5 6 5 6 6 8 7 8 14 14 7 11 13 12 10 10
16 16 15 9 7 5 3 6 3 1 4 3 7 8 6 6 2 10 10 9 5 10 11 5 9 10 8 9 8 4 8 7 3 7 8 6 10 10 12 11 18 17 15 13 11
16 13 12 6 4 5 5 6 5 3 2 3 2 1 1 6 3 11 12 9 1 13 12 9 7 9 9 6 10 5 5 7 6 2 2 3 4 8 9 13 22 21 16 13 12
19 14 8 6 1 3 3 2 4 4 1 1 3 1 2 4 3 8 11 6 2 9 15 4 8 13 8 10 6 4 5 4 12 5 3 6 4 6 13 15 8 12 9 10 11
20 15 4 4 4 3 3 4 5 2 2 5 2 4 5 4 11 3 14 5 3 4 5 2 0 7 11 6 8 5 7 6 4 5 4 2 2 7 7 6 6 8 7 11 15
21 11 5 0 2 4 5 3 2 2 5 2 0 6 7 11 10 11 5 7 8 6 7 4 2 4 2 3 4 5 10 8 5 3 2 6 6 5 5 10 6 9 16 16 15
17 9 6 1 3 7 6 3 2 5 2 6 2 3 6 5 5 2 3 3 3 7 2 5 4 3 4 8 6 4 7 2 2 1 5 3 5 9 5 6 9 12 17 14 12
14 5 5 6 5 4 5 2 8 1 3 3 1 4 3 4 5 5 3 3 3 4 4 4 6 1 4 3 6 5 6 5 6 4 4 3 7 6 5 18 25 24 22 18 17
11 3 5 8 7 3 1 5 5 3 4 4 3 3 3 3 6 2 3 4 2 1 5 5 1 2 2 3 2 4 6 2 3 2 3 4 5 5 3 6 15 22 22 19 16
6 2 3 8 4 3 2 4 2 5 4 3 2 1 2 2 3 4 2 1 2 2 3 4 5 1 2 1 5 1 1 1 2 1 4 4 4 5 7 9 8 10 17 18 17
3 2 2 7 1 3 3 2 3 5 1 2 4 3 3 2 3 3 3 7 5 3 1 3 3 4 3 4 6 3 2 2 2 4 4 2 5 5 15 13 12 11 16 12 19
2 1 3 5 1 2 2 2 1 1 2 2 1 4 2 3 4 5 3 3 13 14 6 3 4 3 2 5 5 1 6 5 4 4 3 3 5 1 7 9 16 16 14 14 18
5 4 2 2 2 2 1 1 2 3 2 4 2 2 3 3 3 5 4 3 6 3 5 5 2 4 3 1 4 5 4 4 3 1 4 4 4 0 8 9 16 14 9 12 13
5 3 1 3 2 2 1 2 2 1 1 2 1 3 2 2 2 3 3 2 3 2 2 2 3 5 6 5 5 5 8 9 5 2 2 4 3 4 7 8 9 9 15 15 10
8 3 5 2 5 4 2 4 1 1 2 1 2 2 3 2 2 4 3 2 1 1 2 3 3 2 0 3 3 4 7 12 12 5 6 4 8 11 10 8 15 19 16 13 9
5 6 8 9 8 3 4 5 5 4 5 1 3 1 3 4 3 1 5 3 3 1 3 2 2 3 3 3 3 3 6 7 12 10 7 5 6 6 17 13 16 18 14 10 8
10 3 4 8 6 2 2 3 6 4 2 5 5 3 5 2 4 3 1 5 8 7 4 3 4 2 3 1 1 6 14 14 7 11 14 11 7 3 4 9 17 15 13 12 12

GFSSW_850_spd_042.txt.gz
Wind_Speed
28 28 26 26 23 20 18 17 15 13 12 12 11 12 16 18 16 19 26 30 23 11 16 20 18 17 22 15 21 16 5 13 8 8 4 15 13 13 15 10 7 4 10 26 27
28 27 26 25 20 16 10 13 9 9 11 10 11 11 11 16 17 24 22 30 21 17 21 24 24 20 12 12 19 10 9 16 12 16 4 17 18 20 11 3 8 14 20 27 29
28 25 23 23 17 12 8 10 7 6 7 7 8 8 12 13 6 21 16 24 27 23 18 19 24 20 8 13 9 9 12 8 12 10 3 8 26 18 17 5 13 21 25 28 25
26 23 19 18 14 5 7 5 4 4 3 4 5 7 14 12 6 7 1 18 34 28 17 20 24 11 6 8 14 9 8 20 9 6 10 4 11 19 14 15 12 14 20 24 24
25 22 21 17 14 11 9 6 2 1 1 1 5 7 12 8 12 10 12 15 31 30 26 22 24 9 6 6 13 4 17 17 15 19 13 13 11 12 31 18 8 20 20 21 24
21 20 19 17 14 13 11 6 6 3 3 1 3 4 7 7 5 11 5 22 34 31 31 27 18 12 10 7 11 12 6 21 16 19 20 13 12 10 23 7 12 23 17 15 16
21 18 17 16 16 14 9 5 3 3 3 3 3 8 2 6 3 4 9 21 27 26 33 28 13 15 10 4 11 14 9 4 14 18 9 17 5 12 28 17 10 16 13 11 10
19 16 14 13 13 12 9 5 3 3 3 3 4 5 5 7 7 1 8 10 21 19 24 29 13 22 3 4 6 4 4 6 7 14 12 20 10 16 31 19 13 11 12 12 11
17 16 12 9 8 9 9 6 3 4 6 8 6 1 4 5 4 2 1 4 11 20 20 23 18 8 5 4 4 2 5 10 6 18 6 10 4 19 25 27 22 15 12 11 11
13 14 12 10 5 3 3 6 8 6 8 7 3 3 5 4 6 1 8 5 7 15 17 13 10 4 3 6 15 18 6 14 10 12 9 6 5 4 13 15 22 20 16 13 13
14 12 10 9 5 2 1 1 1 2 2 1 0 1 6 8 3 4 8 12 2 13 3 12 11 18 7 5 2 7 5 7 2 5 8 12 4 12 15 6 12 24 17 14 12
16 11 9 5 5 3 2 3 3 2 2 2 5 7 6 2 4 7 7 3 4 7 4 3 12 6 8 7 3 8 7 5 1 4 7 6 13 8 12 9 13 13 15 15 12
19 11 9 4 2 1 3 5 4 1 2 2 2 1 1 4 2 9 13 9 2 12 14 4 5 4 8 5 6 1 6 5 4 3 2 4 5 8 9 14 23 21 21 20 17
20 13 8 5 4 3 1 2 1 5 0 1 1 1 1 3 3 4 8 4 2 12 7 2 3 12 6 10 5 3 5 3 8 5 3 4 4 6 10 14 12 26 25 22 18
21 12 6 5 4 4 2 3 3 2 2 1 3 4 3 2 11 2 8 2 3 7 5 4 13 14 11 10 6 5 5 8 4 5 4 1 0 6 3 8 13 15 21 20 17
19 11 2 4 4 5 3 2 1 4 4 3 4 2 4 2 1 7 4 3 4 5 5 2 4 2 3 2 6 6 7 8 5 3 1 6 6 5 6 7 3 7 19 19 21
15 8 1 2 1 5 5 3 2 5 1 6 3 8 5 4 4 4 6 2 2 3 6 4 2 3 2 6 4 6 7 3 2 1 6 2 4 13 6 6 8 12 22 24 24
9 1 3 1 4 2 8 1 7 3 2 3 2 9 4 8 4 4 6 5 2 4 3 5 6 1 5 3 4 4 5 5 6 4 4 1 7 6 6 11 18 30 29 25 23
4 4 3 3 3 8 2 4 6 5 3 3 2 2 3 3 5 3 1 6 2 2 4 4 2 1 3 3 1 4 2 2 5 3 3 4 7 8 2 2 13 22 25 24 23
1 5 3 3 4 7 2 3 3 4 2 2 2 1 2 6 6 5 5 2 5 2 4 5 4 1 1 2 1 0 2 3 3 3 3 4 5 6 4 7 8 11 20 23 24
4 2 2 3 3 2 2 4 3 7 4 1 3 3 1 2 4 4 5 4 6 3 4 5 3 3 2 5 7 1 1 3 3 3 4 2 6 5 10 11 13 15 25 25 23
3 3 3 3 2 2 2 2 1 0 1 2 2 2 1 2 4 3 5 4 14 9 5 2 4 3 3 3 4 2 6 5 3 4 3 3 6 4 7 8 13 17 23 17 23
3 2 2 3 2 3 1 1 1 2 2 3 2 3 2 2 4 3 3 5 13 7 7 6 1 3 2 1 2 6 5 3 4 3 6 5 5 4 1 7 17 20 15 15 21
2 2 1 1 1 3 1 1 1 1 1 2 2 3 3 3 4 3 2 3 4 4 6 5 3 5 5 4 5 6 11 8 6 4 4 6 4 4 3 7 11 17 17 19 22
4 2 4 2 3 3 3 1 2 1 3 1 2 0 1 1 2 3 2 2 3 2 3 4 4 3 1 2 3 3 11 16 13 16 9 11 11 9 9 9 16 19 18 21 19
4 4 5 7 9 4 5 6 4 3 4 2 2 5 4 4 2 3 4 2 3 1 2 2 1 2 3 2 1 3 6 14 18 13 12 4 7 7 14 11 14 21 22 22 19
8 3 1 9 6 2 4 4 4 5 3 6 3 2 5 2 4 4 3 6 6 6 3 2 4 3 3 1 2 6 15 13 10 10 16 13 16 3 4 14 21 25 24 22 19

GFSSW_850_spd_045.txt.gz
Wind_Speed
26 24 22 22 23 19 16 15 15 14 11 13 13 11 14 16 18 18 23 27 24 11 12 20 17 15 19 17 19 18 4 13 11 7 4 5 9 15 16 14 13 3 12 17 22
25 23 21 20 18 15 12 10 10 8 8 11 10 11 11 13 18 22 22 23 28 14 13 27 21 17 13 12 12 8 7 14 11 1 1 4 10 13 13 28 6 7 15 25 22
22 22 21 19 17 13 9 9 6 5 6 8 9 9 10 10 10 15 20 17 33 24 15 22 22 19 14 9 9 8 15 4 9 13 5 8 10 14 10 8 6 21 29 24 22
21 20 18 17 16 14 10 7 4 5 4 5 5 5 11 13 7 6 12 10 22 25 20 20 21 20 9 8 15 9 10 17 10 13 7 6 13 15 8 16 25 27 17 23 22
19 19 18 17 16 15 12 7 5 3 2 3 2 4 12 8 9 2 6 15 18 29 26 25 25 20 14 7 9 4 17 18 19 16 5 3 8 9 28 26 29 16 22 22 24
20 17 16 16 15 13 10 6 5 4 4 3 3 5 7 3 6 8 14 12 24 33 30 26 20 22 13 10 9 11 14 16 13 9 8 5 4 4 27 24 23 9 22 25 24
21 17 13 13 12 11 9 6 3 3 4 2 2 4 5 8 3 2 5 11 27 35 33 26 21 19 10 6 10 12 7 6 13 15 6 13 4 7 37 26 30 16 16 16 19
11 18 13 10 9 8 7 5 3 2 2 1 1 3 1 7 5 5 7 11 25 29 27 30 21 11 3 8 6 6 4 5 9 17 9 14 7 17 24 25 30 23 12 13 14
16 12 13 11 7 7 5 5 2 1 4 5 3 2 3 7 5 3 6 9 19 22 20 22 22 6 3 7 5 2 7 6 9 25 9 11 5 12 20 22 25 22 15 14 13
16 14 11 9 6 6 3 2 4 2 4 3 3 3 5 7 5 3 2 3 11 23 17 20 9 4 2 6 15 15 6 9 8 13 12 13 2 6 10 19 25 29 27 19 15
20 16 9 9 4 4 5 2 2 2 2 0 2 2 5 5 4 3 4 3 7 17 3 13 5 12 6 3 1 6 4 8 3 8 10 16 6 10 18 24 23 27 27 25 18
19 17 10 7 4 2 2 2 3 1 2 1 3 4 3 2 4 4 2 4 3 4 7 2 10 6 7 3 5 8 5 4 2 3 10 7 10 11 12 22 28 21 19 25 19
19 18 13 6 5 3 2 2 4 2 1 2 0 1 1 3 3 3 2 4 3 6 12 3 7 9 6 3 5 3 7 4 4 4 3 5 4 10 11 19 24 25 22 17 20
19 17 11 4 5 7 3 2 2 5 2 1 3 2 2 3 4 7 7 5 5 8 6 1 4 9 7 5 4 3 2 4 5 5 4 5 4 7 9 13 10 28 30 25 19
17 16 7 6 4 7 3 4 3 2 1 3 3 5 3 3 7 3 7 3 2 11 4 1 1 8 5 5 5 2 4 4 2 3 3 2 1 5 3 7 16 19 33 33 26
16 12 4 5 6 6 3 2 1 4 2 2 3 2 5 3 3 5 3 2 3 7 4 1 1 3 3 3 5 6 6 7 4 3 3 4 5 5 5 6 5 12 30 30 25
13 6 4 4 2 7 5 2 2 4 0 4 3 5 5 4 4 4 6 4 3 6 2 3 3 2 2 7 2 3 5 2 2 1 4 3 4 14 5 5 6 10 19 26 26
7 3 3 3 4 6 6 2 6 2 1 3 3 7 4 6 3 4 7 2 1 4 5 4 5 3 1 2 5 5 6 5 5 4 3 1 7 6 5 9 17 20 18 23 27
4 7 4 4 4 8 1 3 6 5 2 2 11 4 3 6 5 6 9 8 4 4 2 4 3 1 2 1 3 4 4 3 6 3 3 4 7 8 7 7 6 13 20 25 27
8 8 5 4 7 6 3 3 1 3 2 1 2 4 3 6 7 4 6 5 4 3 3 4 5 3 1 1 4 3 5 3 3 4 4 4 5 6 5 8 5 8 20 27 27
8 4 3 5 7 0 2 4 4 4 3 1 3 3 6 4 3 5 6 1 4 5 4 3 3 2 2 3 5 2 1 3 4 4 4 1 5 6 6 8 8 10 22 26 25
3 3 3 5 3 0 1 3 2 2 1 2 1 3 2 3 5 4 7 4 13 11 7 3 4 2 3 1 2 1 4 5 4 4 2 2 6 2 6 7 10 13 23 22 23
2 3 2 2 2 2 5 3 2 4 3 3 3 3 2 2 4 2 3 2 17 7 7 6 2 4 4 1 2 5 5 3 3 3 6 4 5 2 4 1 10 16 20 21 22
2 1 1 2 1 1 3 3 2 3 3 3 2 3 2 3 5 3 3 3 5 1 3 4 3 5 6 4 4 8 12 10 6 4 6 12 7 5 4 2 8 18 23 22 19
2 2 2 1 1 2 1 5 3 2 6 6 3 4 1 2 2 3 3 3 4 7 4 3 5 4 4 3 4 5 9 19 17 19 10 10 12 9 6 7 16 20 18 18 20
3 2 1 1 3 1 5 5 6 4 6 4 3 5 3 3 2 5 5 3 3 2 3 1 2 2 3 2 4 4 8 15 20 19 18 10 15 6 11 12 16 24 23 24 25
5 4 1 6 4 1 2 2 4 5 3 7 7 2 4 2 4 3 4 4 6 7 3 3 4 2 3 4 4 6 12 14 10 11 17 12 27 4 5 8 19 26 25 27 26

GFSSW_850_spd_048.txt.gz
Wind_Speed
23 23 21 21 20 18 16 13 10 12 8 10 11 15 14 13 15 18 21 23 30 6 12 19 16 13 16 13 23 19 2 5 6 7 3 4 3 7 7 16 5 5 3 4 21
21 22 21 21 19 17 15 13 10 7 5 7 9 9 10 11 14 17 20 15 22 20 10 21 20 16 12 10 16 11 9 9 3 3 5 9 6 8 9 17 10 23 13 12 22
21 21 20 20 19 18 14 11 9 8 6 6 6 6 7 5 6 13 17 17 22 19 13 20 19 18 12 10 7 4 15 9 5 10 8 4 4 7 9 4 7 22 28 8 21
20 19 19 18 18 16 15 11 8 8 7 6 4 3 6 9 4 5 11 16 15 18 15 17 19 11 7 7 14 8 16 15 11 4 2 2 5 6 5 8 17 22 26 12 21
24 20 17 16 16 13 11 10 8 7 8 7 3 1 8 6 7 5 6 6 20 18 21 17 22 15 6 10 15 5 15 19 19 12 5 6 6 6 21 22 20 18 21 13 19
14 22 18 14 14 13 10 6 7 7 7 5 6 1 7 2 9 14 9 6 21 20 25 21 18 18 8 6 11 11 12 17 19 16 10 4 1 3 28 24 21 21 23 12 19
16 11 19 15 12 11 9 7 5 6 4 3 5 5 2 5 3 4 9 7 26 22 27 24 13 20 5 3 14 7 10 8 11 13 3 5 8 9 34 25 27 28 24 16 12
19 16 13 14 12 9 10 7 5 5 4 3 0 1 1 6 4 2 9 7 26 21 26 24 15 22 4 7 8 4 4 5 5 13 6 10 11 9 23 26 29 28 23 18 11
21 18 16 9 11 9 6 7 4 3 2 3 3 4 2 6 4 4 9 7 24 21 24 21 18 10 4 8 3 3 5 5 5 15 8 6 4 13 13 28 22 27 26 18 12
20 20 16 12 8 7 5 5 3 1 1 2 3 3 4 7 4 2 4 4 17 20 10 12 8 4 3 7 14 7 5 4 7 12 7 13 4 3 17 19 27 24 27 24 20
21 19 17 13 8 6 5 5 3 1 1 1 2 2 3 4 2 1 3 2 13 18 2 15 2 14 7 5 1 8 5 5 2 9 6 11 8 7 15 15 21 29 30 23 22
21 21 17 11 8 4 3 2 1 2 1 1 3 3 2 2 3 4 3 3 4 6 6 2 7 6 6 7 6 6 7 5 1 6 6 9 12 6 13 15 22 32 27 22 18
21 21 19 12 6 5 2 2 1 5 1 2 0 1 2 2 3 3 3 9 10 5 5 3 7 9 6 5 7 3 7 4 6 4 2 6 6 14 9 14 24 30 37 27 20
21 19 17 8 4 6 3 4 0 4 2 3 2 1 1 2 4 4 3 4 4 5 6 3 3 8 7 5 5 4 4 5 7 6 5 2 4 9 14 11 12 31 36 37 30
22 19 11 5 2 5 3 3 1 1 0 2 1 1 3 4 6 4 4 4 6 7 2 1 4 10 7 7 4 3 5 6 3 4 3 1 2 4 5 11 23 28 29 36 33
18 14 6 3 6 5 5 2 2 5 2 3 1 1 2 1 2 6 3 8 5 5 4 3 1 3 4 4 5 7 6 6 4 3 1 6 5 5 6 9 3 14 29 36 34
14 6 2 4 3 8 5 3 3 4 3 5 3 3 2 1 2 2 3 2 2 3 2 3 2 2 3 6 3 3 6 3 3 2 4 4 3 10 2 5 5 7 12 15 24
7 5 5 4 6 7 6 3 6 3 2 5 5 4 1 3 4 2 4 3 1 2 3 2 3 2 4 3 6 3 4 4 4 3 3 1 7 5 6 7 12 16 17 15 15
3 6 5 5 6 5 0 4 5 5 1 4 6 4 1 2 3 4 3 1 4 2 3 3 3 1 4 2 2 3 3 4 6 3 3 4 7 8 5 8 9 10 12 15 19
8 5 4 5 7 5 2 2 1 3 4 5 3 3 4 7 6 6 6 2 3 3 1 3 5 2 2 2 5 3 7 2 3 2 3 4 5 6 9 7 8 7 11 12 20
8 2 3 6 7 2 1 4 3 4 3 2 1 4 4 6 5 5 9 1 4 4 3 3 3 2 2 3 6 2 1 3 4 4 4 2 5 6 5 5 8 11 11 16 24
3 1 3 7 2 1 2 3 2 3 1 1 1 3 4 6 4 5 7 1 10 10 5 2 4 3 1 2 3 2 3 4 4 3 1 2 7 2 5 8 12 13 12 18 22
1 2 4 5 1 2 4 1 1 4 4 4 4 4 3 3 4 1 2 3 14 4 6 6 3 4 2 2 2 3 4 3 3 3 7 4 6 1 5 6 7 5 11 18 21
0 1 2 4 3 2 1 2 2 3 2 3 2 3 3 5 6 3 2 2 3 5 8 4 3 5 6 4 3 5 8 10 4 5 6 15 10 11 8 6 4 7 11 18 21
0 1 2 1 2 3 1 1 1 2 3 10 4 4 1 3 3 3 3 4 6 4 4 2 3 3 4 4 5 3 5 12 14 16 12 13 18 16 12 11 17 14 14 21 23
1 2 2 0 3 1 4 5 4 4 5 4 4 5 3 4 2 4 4 2 4 2 3 2 1 2 4 3 2 4 7 9 19 21 15 23 24 8 9 13 14 17 21 27 28
3 3 0 4 3 1 2 3 4 4 5 7 3 3 6 3 4 3 4 2 3 7 3 3 4 3 3 3 3 7 13 12 5 7 15 14 26 3 5 11 20 23 26 32 30

GFSSW_850_spd_051.txt.gz
Wind_Speed
21 20 20 20 20 19 17 16 14 10 8 7 5 7 10 11 12 13 18 17 25 7 14 17 16 11 17 14 21 11 3 3 3 5 5 5 1 3 7 8 14 10 14 11 10
22 19 19 19 19 20 18 13 11 9 8 7 7 6 7 9 9 13 19 18 16 19 8 19 19 15 10 12 12 8 8 6 2 1 3 6 5 2 4 7 4 14 16 5 15
23 23 18 18 18 16 16 14 12 10 9 7 5 3 4 4 4 5 16 21 14 16 14 17 19 18 9 13 10 11 13 10 5 5 6 4 2 2 2 4 4 14 20 5 13
16 22 23 15 16 15 13 10 10 9 9 7 5 1 4 8 3 4 6 19 15 12 13 14 20 16 5 8 12 9 23 20 19 6 4 3 3 3 3 3 3 11 16 16 13
14 14 20 19 14 13 12 9 9 9 8 7 7 3 3 5 4 8 4 13 17 15 19 14 22 15 5 9 11 7 12 19 29 6 1 4 3 4 14 15 13 12 14 21 7
18 14 12 18 15 12 10 9 7 7 7 4 9 1 3 2 6 12 4 5 11 16 22 15 17 17 7 13 9 10 10 23 18 13 13 10 6 4 14 8 10 15 11 19 12
20 18 13 12 15 13 10 10 9 6 6 4 5 3 1 5 7 5 13 8 12 21 24 18 13 17 5 5 9 3 8 7 14 19 8 11 15 15 16 19 20 20 15 17 16
19 20 18 13 9 13 9 9 9 5 4 4 2 2 0 4 8 5 2 4 15 20 21 20 7 21 2 8 5 4 6 6 5 17 9 14 14 13 14 15 21 21 25 19 16
20 19 19 14 10 8 9 6 7 4 2 3 2 3 1 4 3 7 8 5 16 19 17 20 13 9 5 6 4 3 7 8 7 16 9 10 4 6 9 16 28 24 24 22 20
21 19 18 15 10 8 7 5 5 3 2 2 3 2 4 6 2 3 2 5 21 19 16 12 8 4 3 5 12 9 5 3 4 8 6 8 2 6 7 14 24 27 30 28 24
21 20 18 15 11 7 4 3 2 2 1 1 1 2 3 3 3 2 5 5 21 17 5 1 8 16 10 6 4 7 5 6 3 9 7 8 4 7 11 9 14 21 27 30 28
20 19 18 16 10 6 3 1 2 1 1 0 2 3 4 4 2 5 6 2 11 9 7 3 3 7 10 7 5 9 6 3 2 9 7 9 13 13 12 11 18 22 31 32 36
19 18 16 16 6 4 4 2 3 3 2 1 1 2 2 3 4 6 4 9 11 5 5 3 5 7 10 6 7 2 8 5 5 4 2 7 6 9 7 12 20 26 29 31 33
19 18 15 10 2 5 4 5 2 1 2 1 2 1 1 2 4 6 6 5 4 7 4 3 11 11 7 8 5 3 5 7 10 9 5 2 4 4 12 15 17 26 30 32 34
19 16 12 1 2 5 2 5 1 2 3 1 1 1 1 3 5 5 4 5 5 7 3 2 12 16 12 7 6 4 5 5 4 4 3 1 2 4 6 18 18 20 26 32 28
17 12 5 2 4 4 5 4 2 4 1 2 1 1 2 2 1 3 4 8 10 5 1 5 4 3 5 2 1 7 6 6 4 2 2 4 4 4 5 8 4 19 29 35 35
12 6 4 5 4 8 5 2 3 4 3 4 3 2 1 1 1 2 2 5 3 5 4 5 3 2 4 6 4 4 5 2 1 1 4 1 3 10 6 6 5 7 17 24 33
5 7 8 7 8 6 3 3 5 1 4 3 3 2 2 3 1 4 5 3 1 4 2 3 7 1 5 3 6 3 4 4 6 4 3 1 5 5 4 4 7 11 13 13 12
8 8 7 8 7 5 1 4 5 3 1 6 4 3 1 2 3 0 2 3 3 3 3 4 4 3 3 1 2 3 1 3 6 3 2 3 4 9 5 5 5 9 10 12 16
9 7 6 6 5 3 2 2 1 3 5 1 3 5 4 3 3 1 1 1 3 2 2 3 5 4 2 0 5 3 6 2 2 3 3 2 3 4 2 3 7 7 11 12 11
8 4 3 5 4 1 0 4 3 4 5 5 4 3 2 5 5 3 4 2 2 2 1 4 3 3 3 2 6 3 1 4 3 2 3 1 4 6 5 3 6 13 13 8 10
5 2 1 6 1 1 2 4 1 1 2 2 2 4 2 3 5 0 5 1 7 7 4 3 4 4 2 1 3 3 3 4 3 4 1 1 6 3 6 5 4 10 8 5 5
5 4 3 5 1 2 4 3 1 3 3 3 2 2 6 5 4 3 2 2 10 5 6 5 2 4 2 3 2 3 4 3 3 3 5 3 4 3 2 4 6 4 4 2 6
5 2 2 4 2 2 3 3 1 4 3 2 2 3 3 3 4 4 2 2 5 3 6 4 3 4 5 4 4 5 5 5 3 2 4 13 11 11 13 11 13 15 13 7 14
4 2 4 3 2 1 1 2 2 3 4 11 5 5 2 3 3 3 2 3 6 4 4 3 3 2 1 1 2 3 4 9 12 13 10 13 16 10 9 11 17 22 17 13 18
5 5 5 2 1 1 3 4 3 4 4 3 5 6 5 4 2 4 5 2 3 4 3 4 1 2 4 3 1 4 7 7 13 17 13 18 21 15 30 24 17 22 19 17 22
7 9 6 3 1 2 0 1 2 2 4 6 2 3 7 2 4 2 2 2 7 6 4 4 4 2 2 3 3 6 9 12 4 5 8 13 19 11 12 13 17 24 24 23 25

GFSSW_850_spd_054.txt.gz
Wind_Speed
20 20 16 16 17 16 17 15 11 11 10 8 6 4 8 10 10 11 16 15 17 9 15 17 13 13 20 17 18 9 5 15 11 11 8 5 4 2 2 10 11 7 7 6 5
14 19 18 15 16 15 15 13 14 11 10 8 5 3 5 6 6 10 12 17 15 13 12 18 19 17 16 12 15 8 4 18 8 4 6 3 4 4 4 9 8 8 11 3 13
12 15 19 21 14 13 11 10 11 10 9 7 5 3 4 5 5 4 13 15 20 13 13 18 18 18 18 9 15 14 16 9 8 9 7 2 4 3 8 6 8 9 13 3 12
17 12 14 17 19 12 11 9 9 10 9 7 5 3 3 7 3 3 4 15 24 12 15 15 20 19 16 18 16 8 19 22 11 4 4 4 2 1 2 4 4 6 10 9 8
17 16 12 11 16 14 10 9 9 9 8 6 7 3 2 4 3 4 2 7 25 19 14 18 24 21 15 19 23 13 8 12 13 4 1 2 4 6 7 4 5 4 6 11 3
17 18 21 12 11 14 11 8 10 9 7 7 9 1 1 4 3 4 4 3 23 21 19 23 19 15 15 16 18 17 17 25 21 20 10 9 10 7 18 4 4 3 3 7 8
19 18 18 17 10 9 11 8 8 8 7 6 5 2 2 2 4 5 9 5 15 24 19 15 20 9 12 15 11 15 13 13 17 25 11 17 22 23 26 13 13 13 8 6 8
20 19 17 20 8 9 8 8 7 6 5 4 3 3 2 5 7 3 4 14 19 27 19 18 15 9 10 8 14 9 12 10 16 24 13 20 21 20 26 17 20 19 12 11 8
20 19 17 19 10 9 7 7 4 4 3 3 4 3 0 4 6 4 2 4 22 21 15 16 12 8 8 14 11 12 11 16 10 24 9 17 11 6 5 21 27 26 18 12 13
18 19 16 18 12 10 5 5 5 4 2 4 5 4 2 4 5 7 4 5 23 21 13 11 9 9 11 13 16 17 15 16 10 14 14 17 12 4 9 14 25 29 27 23 16
17 17 16 16 13 7 2 1 1 1 1 1 2 4 4 6 5 4 4 11 20 21 11 2 6 17 22 18 5 14 13 14 4 8 8 14 13 13 12 9 11 17 22 27 22
17 17 14 13 8 5 2 2 2 0 0 1 2 5 3 4 1 5 2 3 9 14 6 3 7 16 15 13 12 15 15 11 7 13 14 11 17 16 16 15 15 18 19 27 21
17 16 14 13 3 3 5 4 4 2 0 1 1 2 1 3 2 6 3 2 11 12 6 2 4 16 16 15 10 11 15 13 8 10 9 4 11 16 17 22 20 21 20 22 26
17 16 11 7 1 5 5 6 3 1 1 2 1 1 1 2 3 5 6 3 3 14 7 2 9 19 19 15 12 10 10 11 8 9 6 9 4 8 17 20 21 23 20 18 22
16 12 7 3 5 7 5 7 2 2 2 2 3 2 3 4 3 3 4 3 7 11 3 1 11 19 17 16 9 5 10 12 10 11 4 8 5 10 4 17 17 21 24 23 19
13 6 2 5 8 6 8 5 3 3 3 1 3 1 1 3 2 2 2 6 11 7 6 2 3 3 6 7 5 13 11 9 5 6 6 11 10 4 5 8 11 14 23 27 24
7 9 10 8 6 9 7 4 2 2 0 2 2 2 1 3 2 3 2 5 3 6 3 4 3 2 5 8 8 13 16 4 5 5 4 2 8 11 6 8 5 7 9 16 20
8 12 12 11 10 9 5 2 1 1 2 2 2 3 2 1 3 2 5 2 1 4 4 4 6 8 6 5 9 14 13 3 6 5 5 3 7 3 2 2 5 8 12 11 10
11 9 9 10 6 5 1 1 2 2 2 7 4 0 4 2 1 2 2 5 4 3 1 4 3 3 3 2 3 7 5 2 4 1 3 4 4 11 3 3 3 4 5 9 8
10 9 7 7 4 2 1 2 2 3 5 6 2 3 4 4 3 2 3 3 5 4 3 4 6 3 3 2 5 2 10 3 1 4 4 3 4 3 8 5 5 7 8 8 6
9 3 3 5 3 1 1 1 1 6 7 5 2 4 2 5 3 2 2 3 2 5 1 4 3 4 7 6 10 4 4 1 0 2 2 1 2 2 8 3 5 7 7 7 4
5 2 4 6 2 1 1 2 2 4 7 4 2 2 2 3 4 2 2 2 4 7 5 1 5 5 3 3 2 1 8 12 6 5 1 3 3 4 3 3 3 7 9 7 6
5 4 4 4 1 1 1 2 2 3 2 5 4 2 3 2 3 1 1 2 3 3 2 4 4 5 3 1 2 6 6 6 5 2 6 6 2 1 5 6 5 8 14 10 5
6 3 2 3 1 1 1 1 2 1 3 2 3 6 4 2 1 5 3 2 4 1 3 2 3 3 5 3 6 8 13 10 9 7 14 14 15 8 9 14 18 21 13 9 7
6 3 5 4 5 3 1 1 2 2 2 4 4 1 2 3 3 4 4 6 4 2 2 2 2 2 3 4 2 4 9 15 12 16 14 15 18 16 15 15 17 19 21 16 12
6 5 4 4 3 4 0 1 2 2 4 4 6 6 3 3 3 4 7 3 3 2 2 1 3 1 2 1 2 4 8 8 13 17 17 18 21 16 19 18 19 20 21 18 20
9 10 6 2 4 3 2 2 2 0 4 5 1 5 9 4 2 2 2 3 4 6 3 2 4 2 2 2 2 6 6 10 7 7 8 13 15 15 16 18 20 22 22 21 19

GFSSW_850_spd_057.txt.gz
Wind_Speed
12 16 19 20 18 16 12 12 16 13 12 11 9 7 5 7 9 8 13 14 20 12 16 16 16 15 12 13 19 15 7 13 13 16 12 9 7 4 2 4 4 4 3 1 6
19 13 16 16 19 16 11 12 12 10 12 10 9 7 6 6 8 11 13 16 16 13 10 19 22 19 10 11 12 12 4 20 17 1 12 11 8 7 4 8 8 7 6 3 13
18 19 17 15 17 17 13 8 9 10 11 9 8 6 5 3 7 8 13 17 17 14 10 14 20 21 16 6 12 11 19 5 10 10 11 7 8 4 9 5 7 7 9 4 16
16 18 18 17 13 16 13 11 8 10 9 7 7 6 3 3 4 2 5 11 17 15 12 11 19 23 18 11 13 14 21 9 11 9 9 7 8 6 2 11 6 7 9 3 10
20 19 20 23 16 11 15 12 9 10 9 8 6 7 1 7 6 1 5 5 16 23 12 13 17 25 21 16 15 7 21 23 21 4 9 6 2 2 5 5 1 3 5 8 5
19 20 20 21 21 13 12 13 8 11 8 8 6 4 4 9 1 2 4 4 11 22 10 15 13 22 16 19 23 12 10 18 13 14 3 1 5 8 10 8 4 2 1 5 6
18 21 21 20 22 10 11 11 10 10 7 7 4 4 5 4 2 5 4 6 10 25 19 14 11 15 9 13 25 32 7 13 13 12 6 4 9 16 21 12 8 8 7 4 3
19 21 20 19 21 10 11 11 9 7 5 4 3 4 5 3 5 5 5 10 7 14 23 16 10 11 11 11 22 15 9 10 14 17 16 13 16 18 24 23 26 16 13 8 6
16 18 17 18 18 13 10 10 7 5 5 4 4 4 2 4 9 6 6 9 13 14 18 11 16 15 10 15 14 15 13 19 15 20 12 16 10 10 20 28 33 26 20 15 10
15 18 18 18 18 14 9 6 6 5 4 3 5 5 1 6 10 1 5 11 13 21 18 9 6 8 13 15 16 19 18 15 12 15 15 16 14 5 10 18 31 34 27 22 19
16 17 17 15 15 10 3 3 1 2 2 3 3 4 4 7 4 6 7 5 16 20 10 5 3 17 24 22 15 18 18 15 11 10 16 13 13 15 12 13 16 36 36 30 28
18 16 15 14 17 5 4 3 1 1 2 1 2 4 4 4 1 5 3 4 10 13 13 5 1 15 16 13 5 15 18 11 9 9 13 11 15 19 19 20 18 16 30 32 28
14 15 15 13 10 3 6 4 4 2 3 3 1 2 2 4 4 4 4 4 11 13 7 6 3 11 15 11 11 10 17 16 13 11 10 6 10 20 21 22 19 21 16 21 25
14 14 11 8 2 4 3 6 4 0 2 2 3 1 2 3 3 4 5 4 1 11 7 3 0 11 17 14 13 14 11 9 10 13 7 14 5 19 18 19 19 21 19 18 16
13 11 7 6 0 2 6 6 1 0 2 2 3 2 3 3 2 3 3 2 7 12 5 3 8 12 18 16 8 6 6 7 9 12 7 12 6 11 10 11 16 18 21 21 18
8 2 2 7 5 5 6 4 1 2 2 2 1 1 3 2 4 4 1 3 13 9 9 3 1 8 8 13 2 10 11 8 7 9 8 13 10 8 6 3 5 11 17 20 21
4 9 9 7 2 7 6 1 3 2 1 1 4 2 3 5 4 2 3 3 4 6 0 5 2 2 7 12 5 13 16 5 4 3 4 4 9 10 1 5 5 3 2 7 13
10 12 10 7 8 8 1 3 1 4 1 2 3 3 2 3 3 1 3 2 0 4 3 1 3 5 4 11 7 12 14 4 5 6 10 6 6 4 3 4 2 3 6 7 9
11 8 5 7 6 5 3 2 3 2 2 6 3 2 4 5 3 2 1 2 4 2 2 3 4 0 8 1 5 13 11 4 3 3 1 6 6 7 3 2 3 4 4 3 5
7 5 3 5 3 0 4 2 2 2 3 7 1 3 5 8 6 6 3 3 4 1 1 3 4 5 6 5 1 6 9 3 1 4 4 4 3 1 8 8 9 12 13 12 5
8 4 3 4 3 4 0 3 2 3 2 2 1 2 1 7 3 2 3 6 3 3 2 6 4 5 8 7 11 5 4 3 1 3 3 1 5 9 9 7 7 8 10 13 11
4 2 4 5 3 1 1 3 0 5 7 3 3 4 1 3 4 1 5 3 7 10 5 1 4 5 6 3 3 8 9 11 5 4 3 4 1 2 8 2 1 1 7 14 10
6 4 5 4 2 4 4 3 0 3 4 4 3 4 3 2 3 3 3 3 4 4 2 3 4 5 2 4 4 6 10 7 9 3 5 4 2 2 1 3 5 8 12 16 11
6 3 3 5 4 2 5 5 6 2 2 1 2 5 3 2 2 5 5 2 4 1 3 3 6 2 3 3 7 8 14 12 11 5 9 12 13 10 6 10 14 19 21 18 18
6 4 6 4 6 7 2 3 7 5 2 1 2 4 1 2 4 4 4 6 3 2 1 2 2 3 4 5 3 3 11 15 14 16 12 12 14 13 13 16 23 26 23 22 19
6 5 5 7 8 8 4 3 5 5 2 3 1 0 2 3 4 4 5 2 2 3 2 1 2 2 1 2 2 4 6 7 12 15 15 15 16 14 19 12 20 21 21 21 21
13 11 6 7 9 9 4 5 5 3 6 7 3 5 7 6 4 4 4 4 1 3 6 2 4 2 1 1 3 6 6 9 7 7 8 11 8 12 10 12 16 19 20 20 21

GFSSW_850_spd_060.txt.gz
Wind_Speed
19 20 16 16 17 19 18 12 12 13 15 14 12 12 9 7 6 9 11 16 17 15 11 16 14 13 17 14 22 22 2 12 17 11 8 17 4 3 4 10 8 8 9 9 12
16 17 20 18 17 17 18 13 11 12 15 13 11 11 8 7 7 14 12 12 16 12 11 18 18 16 13 15 16 9 5 11 7 5 13 12 11 7 3 13 12 14 9 7 16
19 17 21 20 20 16 17 14 12 10 13 12 11 9 7 4 9 7 3 13 12 14 14 13 18 22 14 8 18 5 8 11 7 4 17 11 6 5 7 5 17 13 8 7 20
17 20 20 22 24 17 12 17 12 12 13 11 9 11 5 0 5 1 4 10 13 16 9 12 16 20 12 7 17 8 12 10 6 7 4 10 10 6 9 16 15 11 10 5 21
18 19 20 23 24 22 15 13 14 10 14 11 8 11 2 5 5 4 5 5 8 11 16 9 14 17 15 16 9 5 3 12 11 16 9 3 3 5 14 10 9 8 10 7 9
18 18 21 23 22 21 14 11 13 11 13 10 7 4 6 7 3 3 5 5 4 11 25 10 7 17 15 18 10 9 3 1 12 17 10 11 3 4 7 8 5 6 6 8 6
20 20 22 20 20 20 14 11 11 12 11 9 6 5 8 8 3 6 6 6 6 11 18 13 11 7 9 10 23 9 6 6 11 14 5 5 4 5 6 8 3 4 3 4 3
21 20 18 18 18 20 18 12 12 10 8 7 4 4 7 6 5 4 5 5 7 7 18 23 12 9 6 13 13 6 4 2 7 12 10 7 9 8 12 9 11 14 10 7 6
22 18 18 18 17 19 18 10 8 7 6 5 5 5 5 5 4 16 10 6 7 6 8 15 9 8 12 11 6 7 6 8 11 17 9 9 3 13 16 18 20 19 16 14 10
16 17 18 17 16 16 14 4 4 4 6 4 7 5 5 6 11 2 0 7 9 10 6 6 9 3 4 8 13 9 8 9 6 9 14 8 8 4 14 21 23 26 25 21 19
16 18 16 15 14 16 4 4 4 1 3 4 4 6 4 6 7 5 5 4 10 14 4 2 4 8 15 14 12 14 15 18 15 15 11 11 11 11 9 14 14 16 28 29 25
18 15 14 15 13 11 2 1 3 1 2 1 4 5 5 3 2 5 3 4 2 6 10 3 4 13 22 17 16 10 14 13 13 13 9 8 7 8 9 11 16 17 19 29 30
16 13 14 12 11 1 6 3 5 1 3 1 2 5 3 4 2 2 1 4 2 7 8 3 5 5 7 10 9 13 19 14 14 10 4 4 7 10 14 22 20 18 19 18 37
15 12 9 7 3 3 1 6 3 1 0 2 1 2 2 4 3 3 5 3 3 9 10 4 7 3 7 18 10 6 8 15 16 8 4 10 3 9 16 13 11 21 15 18 13
13 10 6 4 4 0 5 3 0 1 1 4 3 4 3 3 1 3 3 2 8 9 3 3 2 2 7 8 6 4 13 6 12 8 5 7 1 5 12 9 10 17 20 19 16
7 4 1 8 4 3 3 4 1 2 3 4 3 2 2 8 3 3 3 1 11 8 10 4 2 1 5 6 5 3 8 9 6 3 2 4 5 5 4 6 4 6 21 22 20
2 3 6 7 3 3 6 2 2 2 2 0 1 1 6 5 5 5 5 3 1 5 3 3 4 4 4 5 2 4 7 3 3 2 3 3 4 7 6 6 5 2 4 6 2
7 9 7 5 6 6 2 2 1 3 2 3 2 2 3 2 2 6 3 2 4 5 3 2 3 2 2 1 4 4 5 3 4 4 3 4 2 3 8 11 8 4 2 3 7
10 7 2 6 7 5 3 2 2 2 3 6 4 2 3 3 2 4 1 2 3 6 3 3 3 4 5 4 3 4 3 3 2 3 5 5 5 3 8 7 8 10 10 5 1
10 6 4 5 4 2 3 2 2 2 3 5 1 3 3 4 5 3 2 3 3 3 3 4 4 4 4 4 2 2 6 1 3 2 2 3 4 3 8 8 8 10 13 11 8
13 4 3 5 5 3 1 3 4 4 3 2 2 1 7 4 3 2 5 3 2 3 5 1 5 4 4 1 4 0 2 2 1 3 0 2 1 4 9 9 9 8 6 6 7
8 2 3 7 2 5 2 3 2 8 3 2 2 3 4 3 3 3 5 3 6 4 2 4 3 4 2 3 3 5 4 4 3 4 1 3 2 3 8 7 3 4 3 6 8
10 4 5 7 2 3 3 5 1 7 8 7 4 3 4 3 2 4 5 3 4 3 4 0 3 3 2 2 4 4 5 3 2 3 2 2 3 3 7 4 7 9 9 7 9
9 4 4 5 5 5 6 5 5 1 4 1 8 6 3 3 3 4 7 3 4 4 3 3 2 2 2 1 6 5 6 6 3 2 4 5 5 5 6 4 4 12 18 18 17
10 6 8 4 6 8 2 7 8 4 2 4 4 2 0 3 5 4 3 5 2 2 2 4 3 3 5 6 6 3 6 8 6 7 2 5 7 7 7 8 16 20 19 19 19
7 4 8 7 13 10 4 5 7 6 3 3 2 4 2 7 3 6 6 4 1 2 1 2 1 3 1 1 1 1 5 4 10 12 12 10 11 6 14 16 19 18 21 20 18
12 11 8 8 7 8 6 6 7 7 4 8 3 8 9 6 7 10 5 6 3 3 2 1 3 1 1 2 3 3 2 8 4 1 1 5 2 8 9 13 16 19 18 18 21

GFSSW_850_spd_063.txt.gz
Wind_Speed
19 18 16 17 17 17 17 17 13 12 13 16 13 13 11 10 9 11 16 15 16 12 8 11 20 18 12 14 19 21 5 6 5 4 7 14 6 4 5 14 14 7 12 19 27
20 17 19 19 19 21 16 17 16 12 12 14 12 11 10 9 10 13 15 14 13 23 13 11 19 17 10 9 13 8 6 7 2 1 10 15 12 8 5 15 10 18 16 24 30
19 17 18 20 20 21 18 12 17 13 13 14 12 9 10 6 9 4 6 6 9 12 12 10 18 18 6 6 11 14 7 3 2 4 16 14 5 7 13 4 8 16 16 21 31
19 18 18 20 22 21 20 14 13 13 11 14 11 10 9 2 3 4 7 8 9 9 10 11 14 13 5 8 9 5 13 16 1 2 6 6 10 5 11 10 16 11 12 20 26
18 19 18 20 22 21 19 14 10 13 10 12 10 8 5 4 7 6 9 10 7 8 14 4 7 15 6 10 4 8 4 17 13 3 6 11 8 9 19 18 18 14 10 20 24
18 20 19 20 20 18 19 13 11 11 11 11 8 4 6 5 2 6 12 8 5 6 4 10 7 12 7 8 11 9 11 6 18 11 6 6 5 6 13 15 15 15 13 14 19
17 19 21 17 17 15 19 16 10 12 10 7 5 4 7 11 6 4 9 12 8 4 10 17 6 2 3 5 16 16 10 6 10 10 4 7 3 1 9 14 13 14 12 10 10
17 20 17 18 16 14 17 16 11 8 5 4 2 3 6 7 9 10 5 5 9 2 6 19 11 7 5 7 9 7 1 5 5 5 3 6 9 5 8 5 7 10 7 10 8
18 17 15 18 16 15 13 11 5 4 2 2 1 3 6 7 7 13 16 11 2 3 1 15 10 4 7 5 4 2 3 3 4 3 4 2 2 10 14 16 16 12 10 9 13
20 14 15 15 14 13 9 1 1 1 2 2 1 7 6 5 10 4 1 9 5 5 1 3 1 4 2 6 8 8 7 5 7 1 3 3 6 4 19 19 21 21 20 16 13
19 18 14 12 13 12 3 3 3 2 3 3 3 7 6 7 6 1 1 2 7 7 2 2 1 5 3 3 8 10 9 8 5 8 5 14 12 10 12 17 19 19 24 29 22
18 17 12 12 12 6 8 4 3 1 4 5 3 8 5 5 4 3 3 3 2 4 7 3 9 5 6 5 4 10 12 5 7 11 10 9 11 8 9 8 21 22 20 19 26
17 16 11 9 5 6 10 3 3 3 1 1 4 5 3 4 2 3 1 4 3 5 7 4 4 5 1 3 7 4 7 7 9 9 6 7 5 7 9 14 18 19 19 19 21
14 13 8 1 6 9 3 1 3 1 3 3 1 2 2 1 2 2 3 3 4 4 5 4 6 4 3 8 6 5 13 13 10 7 4 5 3 6 15 10 11 22 20 21 20
11 9 5 7 10 6 3 2 3 2 4 4 4 5 4 3 1 1 4 3 7 9 3 2 8 6 15 10 6 7 17 14 12 5 4 2 2 6 6 11 12 18 27 20 17
7 4 2 12 8 3 5 7 5 4 3 5 3 3 3 8 2 1 3 2 2 9 9 6 4 3 5 2 12 1 11 9 3 1 2 6 5 5 4 7 5 7 26 25 19
2 3 7 10 6 8 11 6 2 4 3 3 3 2 4 4 4 5 5 3 3 4 4 5 5 5 2 2 5 4 7 3 2 3 3 2 3 7 4 4 6 9 10 9 4
8 8 10 9 9 12 7 2 5 3 4 4 2 4 2 3 1 4 3 4 3 6 3 2 3 6 8 3 4 1 3 4 4 3 3 1 5 4 3 8 11 11 10 8 6
13 11 10 10 13 9 3 1 2 4 4 3 2 3 2 1 3 4 2 4 5 1 4 3 4 5 1 4 3 2 4 3 5 3 4 3 3 4 3 7 14 17 18 15 8
17 12 6 10 8 7 1 3 4 3 1 4 2 2 1 4 3 2 2 3 2 3 4 3 5 5 3 3 3 5 3 3 3 3 3 3 3 3 5 8 8 9 11 12 11
18 10 7 9 10 2 2 2 4 3 0 2 1 1 2 3 5 3 2 2 2 2 4 3 3 1 2 5 4 5 2 3 4 3 3 2 4 5 10 9 9 6 4 5 7
15 3 10 12 3 4 2 3 5 5 3 1 0 2 1 2 6 4 3 2 3 2 2 2 4 3 2 5 4 0 1 1 3 3 1 3 3 3 7 8 13 9 4 2 3
16 7 10 6 3 3 3 3 3 5 2 4 2 1 2 3 4 6 4 5 7 5 2 3 2 3 3 5 2 2 2 1 2 2 2 4 3 2 7 5 3 8 13 11 7
9 4 5 8 5 2 5 4 3 4 4 4 3 3 1 3 5 4 3 2 5 3 4 3 3 5 5 3 5 4 4 4 4 2 1 4 2 4 7 8 12 13 12 10 12
7 5 8 6 5 5 1 8 6 4 4 6 3 5 1 3 5 4 4 3 4 3 4 3 3 3 3 4 3 2 5 7 6 5 5 3 2 5 3 5 6 10 14 12 12
10 5 11 7 8 6 1 4 7 4 3 4 4 4 8 4 4 6 5 2 2 0 2 3 1 2 3 3 3 1 3 4 7 4 5 4 5 4 8 7 14 17 13 16 18
10 9 7 11 5 5 4 3 7 8 4 9 8 7 7 2 8 12 9 6 5 5 3 3 4 3 2 3 3 4 5 4 1 2 7 7 2 2 6 10 14 12 18 19 20

GFSSW_850_spd_066.txt.gz
Wind_Speed
18 16 14 16 17 17 19 15 16 14 12 14 14 12 11 11 11 13 16 14 17 15 23 19 24 25 22 11 24 18 6 9 8 8 5 13 6 3 4 5 8 12 20 29 29
20 17 14 16 17 19 20 16 12 14 13 13 13 12 11 11 11 14 12 12 21 10 16 17 20 25 17 13 15 12 9 8 5 6 5 9 6 13 6 5 5 16 26 35 41
19 17 16 17 18 21 20 20 13 12 12 12 13 12 12 9 10 3 9 9 8 7 15 15 9 15 13 10 20 11 9 4 5 2 5 9 7 5 19 1 7 19 34 37 33
20 16 17 17 18 20 20 18 12 10 11 10 12 10 10 4 3 4 11 11 10 6 7 13 11 7 6 7 8 7 11 15 3 4 4 7 13 6 5 7 11 20 31 37 33
20 17 18 17 18 18 16 16 11 10 11 10 10 7 3 3 8 8 10 13 10 4 8 6 6 8 8 5 12 5 12 14 12 4 8 5 5 9 16 16 16 12 18 34 34
20 17 18 20 14 15 15 17 14 11 10 10 8 5 5 4 3 5 8 11 11 5 3 8 3 4 5 4 21 4 12 16 12 5 5 4 4 7 14 16 17 11 10 22 29
21 18 17 16 15 14 13 16 14 11 11 8 5 5 8 12 5 6 7 9 9 8 7 10 5 4 2 2 21 8 7 7 11 5 4 7 4 5 16 16 17 12 9 14 24
21 20 17 13 15 15 14 16 12 7 5 4 3 5 6 6 7 11 13 6 7 3 4 8 11 10 3 2 6 5 4 5 3 6 5 5 5 3 12 15 14 12 10 9 10
21 21 14 12 14 14 11 8 3 3 3 2 3 3 8 5 10 12 15 14 6 1 1 4 4 4 3 4 4 4 5 8 1 6 1 4 4 5 11 9 8 9 10 11 10
20 19 15 14 12 13 7 1 2 4 4 3 3 5 3 4 8 10 8 4 5 2 5 4 2 2 2 5 10 9 5 4 6 7 4 7 9 5 7 13 13 13 12 11 14
20 19 15 11 11 9 2 4 3 2 5 4 3 7 10 8 7 5 3 5 4 3 2 3 3 4 3 10 4 10 9 8 10 10 5 7 8 7 8 6 13 19 23 21 16
19 17 14 10 8 2 9 5 3 1 2 6 5 7 9 4 5 4 1 2 4 3 5 4 4 5 7 14 12 9 12 6 7 12 5 6 11 10 6 6 10 21 21 24 28
18 15 11 5 3 6 10 6 3 0 1 2 4 5 3 5 3 4 1 3 0 5 5 5 4 7 4 3 13 9 12 9 8 6 2 7 5 14 7 10 18 17 21 19 23
14 11 7 5 6 11 5 5 4 2 4 5 2 2 2 2 2 2 4 3 3 4 7 1 8 9 4 1 4 5 4 5 16 10 4 3 2 7 13 12 6 21 21 17 18
11 10 3 11 11 8 6 4 5 2 4 4 5 5 4 3 4 1 5 1 5 4 4 3 10 8 5 2 3 3 7 5 12 7 2 3 1 5 2 7 14 16 26 25 23
10 8 7 15 14 8 8 8 6 5 3 5 3 4 2 1 2 2 2 4 5 5 8 6 4 3 2 4 3 6 9 11 5 3 2 6 4 5 2 6 5 13 22 25 24
10 9 11 14 10 12 12 8 4 4 2 3 2 2 2 4 3 3 0 2 2 3 5 3 2 4 1 6 4 2 7 3 2 0 2 3 4 7 5 3 4 7 5 5 16
13 13 17 13 15 15 11 3 5 4 5 2 3 3 1 1 4 5 2 4 5 5 3 2 3 3 5 3 6 8 4 4 4 5 4 3 5 4 3 10 15 13 10 10 9
18 15 15 15 18 14 5 2 7 6 4 4 1 1 1 2 3 1 5 2 2 1 4 4 4 3 2 3 1 3 3 3 6 4 4 3 2 2 6 6 13 14 16 13 9
22 17 14 17 16 11 2 3 4 4 3 2 3 4 2 2 2 2 3 3 2 2 1 2 5 5 5 2 3 5 4 2 3 3 3 2 1 3 4 4 4 7 11 12 13
24 10 15 16 14 5 3 3 3 4 3 3 4 1 2 4 3 2 2 3 3 4 3 3 4 4 3 5 3 5 3 5 4 2 3 2 4 3 7 7 7 6 7 10 13
18 3 19 16 4 5 3 3 6 5 3 2 3 2 3 3 3 3 3 1 1 2 3 2 4 4 2 4 3 1 1 3 4 1 2 3 4 3 4 4 10 9 12 6 9
19 6 13 15 3 3 2 4 4 4 4 5 4 3 1 3 5 6 2 4 3 4 2 1 3 3 6 5 2 2 2 3 4 3 1 3 3 6 10 12 12 13 13 12 11
11 4 6 9 7 3 4 3 4 6 4 4 3 1 0 4 5 4 3 2 4 3 3 3 3 4 5 5 3 3 4 3 4 3 3 3 4 6 4 6 11 13 10 9 10
8 5 8 7 6 4 4 6 4 4 1 4 1 2 2 3 4 3 3 3 6 5 3 3 3 3 3 4 2 3 4 6 6 4 4 3 4 3 3 6 8 8 9 10 13
10 6 9 9 6 6 4 7 7 3 4 3 2 1 4 4 3 6 5 2 2 3 2 3 1 3 4 6 6 2 2 3 2 3 2 4 3 2 4 6 8 10 13 16 17
10 9 9 9 5 5 5 7 7 8 3 1 9 5 6 2 4 9 8 6 5 5 2 3 3 3 1 4 4 4 3 1 0 3 1 5 3 2 3 6 4 10 14 18 22

GFSSW_850_spd_069.txt.gz
Wind_Speed
21 20 18 15 16 19 18 20 17 13 14 13 14 14 13 13 13 12 15 12 15 15 15 19 19 22 24 18 19 13 7 10 9 16 9 9 5 5 11 19 15 40 28 19 25
22 20 18 17 16 19 21 20 19 15 13 14 13 14 13 14 15 14 7 9 13 15 20 16 22 20 29 22 15 11 9 15 6 4 6 7 7 13 8 9 9 29 32 21 12
25 21 18 19 17 17 19 20 19 13 11 13 11 13 12 14 13 2 3 8 12 8 8 13 15 16 21 20 19 19 10 12 16 8 6 7 9 6 14 4 8 29 33 32 35
26 22 18 19 19 17 19 16 16 11 10 12 12 12 11 7 4 1 7 9 12 7 5 9 14 7 8 16 17 10 21 17 18 3 4 3 11 5 8 10 18 21 32 46 45
30 22 17 17 21 16 13 15 17 12 10 11 11 10 7 5 10 6 6 7 11 10 8 8 9 21 17 19 13 14 9 20 14 3 6 3 4 7 7 12 15 21 35 33 36
33 22 17 19 20 15 14 14 16 13 11 11 11 8 7 5 4 5 7 10 10 10 11 9 6 11 7 9 11 15 15 18 11 6 4 4 1 3 8 14 19 20 30 33 33
36 22 19 19 18 13 14 13 16 13 11 10 8 7 9 15 6 6 7 12 11 11 10 8 14 6 8 7 10 10 8 14 10 7 4 11 3 4 15 17 15 18 21 31 28
35 22 18 18 15 14 12 11 11 10 7 6 5 6 7 6 7 8 12 13 12 11 7 7 9 11 6 2 6 8 6 10 3 6 4 4 4 3 10 20 16 17 12 25 31
28 24 17 17 15 12 10 7 7 4 5 4 5 4 7 4 7 9 13 13 10 8 5 5 3 5 10 6 5 6 0 6 5 9 5 3 5 2 6 12 12 12 11 12 16
26 23 15 15 13 10 3 3 2 4 4 3 4 5 3 6 7 9 9 4 5 4 2 1 3 1 2 2 3 8 7 7 10 6 3 5 5 2 8 4 9 8 8 9 9
27 22 12 14 10 10 6 5 3 2 7 5 3 8 10 9 13 6 4 2 3 2 2 2 2 4 4 3 8 10 8 5 6 7 1 7 5 6 8 13 9 10 9 9 10
29 23 12 13 8 9 10 6 4 1 4 8 7 11 10 7 7 6 1 3 3 3 3 1 1 6 3 5 7 10 10 5 7 9 6 1 5 4 9 12 13 14 16 16 15
28 20 10 12 7 9 12 8 5 2 2 3 5 5 2 3 3 2 3 1 1 2 4 2 3 7 4 5 9 11 12 11 5 6 5 3 2 5 9 19 16 17 12 16 19
31 16 8 9 7 13 12 8 6 2 4 3 2 1 3 3 3 3 2 4 3 6 4 2 7 9 5 3 13 7 12 15 16 8 2 3 4 3 13 14 6 13 15 10 12
33 12 9 15 6 14 10 11 7 2 3 3 4 2 3 2 4 1 4 3 4 3 2 2 6 6 6 6 2 3 7 9 10 5 6 4 2 4 4 6 10 10 19 16 14
28 13 12 20 16 12 14 12 7 5 4 4 3 2 1 4 2 1 2 3 3 2 4 4 7 2 2 4 4 8 19 11 6 4 1 6 4 4 2 4 5 8 16 19 17
23 14 17 18 16 15 16 13 4 4 3 2 1 1 1 2 2 4 1 1 2 4 2 4 3 4 2 4 7 7 4 3 3 1 2 4 4 5 7 6 4 2 4 5 11
20 18 23 18 16 18 20 4 4 4 5 2 2 2 2 1 1 3 2 2 5 4 3 3 2 3 1 3 4 3 2 4 4 2 2 2 4 2 3 4 12 16 17 16 14
25 26 24 18 18 22 8 3 6 6 4 4 1 2 4 2 1 3 2 2 2 2 3 2 4 3 3 2 3 2 2 2 6 2 3 2 1 2 4 7 14 17 20 19 18
35 27 22 19 20 17 3 4 3 5 3 3 3 4 2 2 1 2 2 1 1 2 2 3 5 6 4 1 3 4 5 3 2 3 3 2 2 2 2 4 6 9 15 17 17
32 11 20 20 20 6 3 4 3 5 3 4 4 2 2 3 1 1 1 2 3 3 2 2 4 3 3 4 1 4 2 4 4 2 3 3 3 1 5 3 7 6 12 13 13
10 4 24 22 5 4 3 4 6 5 2 1 2 1 4 3 2 1 2 1 5 3 3 0 4 5 2 2 2 1 1 3 4 2 2 2 2 8 9 7 11 12 14 16 15
8 9 18 21 3 3 2 4 3 4 4 3 2 3 1 2 3 2 2 5 5 3 2 2 2 3 6 5 3 1 1 2 4 3 1 4 3 6 10 11 10 11 11 12 11
6 4 6 8 3 2 4 4 4 7 4 3 3 2 0 4 4 3 3 6 5 5 8 4 4 4 5 4 2 2 3 3 4 3 3 3 4 1 4 6 7 9 10 10 13
3 3 8 6 6 4 1 5 7 5 2 7 2 2 4 2 3 1 3 3 6 7 4 4 4 3 5 3 2 2 2 5 3 4 4 5 7 4 4 4 4 7 9 12 14
3 4 7 9 10 7 3 5 5 4 4 3 5 3 4 5 3 6 3 3 1 5 3 4 1 3 4 5 5 3 3 3 2 1 3 6 3 4 7 7 8 9 10 12 14
5 8 11 12 5 5 4 6 7 8 2 3 7 5 4 3 3 6 9 7 3 2 2 3 4 3 2 5 5 4 1 1 3 5 1 5 2 5 3 5 4 4 6 10 15

GFSSW_850_spd_072.txt.gz
Wind_Speed
37 27 24 22 21 19 20 20 21 19 14 14 16 14 16 15 16 16 16 8 12 11 12 16 14 16 15 17 21 12 6 14 16 9 11 16 10 12 15 12 24 36 37 27 15
35 36 25 21 21 21 18 19 19 21 18 9 14 13 16 16 18 19 8 4 8 10 10 15 21 16 12 7 11 9 10 21 13 8 9 14 7 14 8 19 9 31 22 24 16
32 40 27 21 21 20 16 19 21 18 16 9 13 13 15 15 16 2 2 4 9 10 9 11 8 9 15 15 14 10 17 14 8 18 12 16 10 10 11 16 21 40 30 30 29
32 36 30 22 20 20 19 13 16 17 11 9 12 13 13 9 4 1 4 4 9 9 8 4 11 6 5 13 24 11 21 18 14 21 6 4 17 12 15 9 25 38 34 33 32
28 32 34 23 20 20 20 15 16 16 13 9 10 13 10 6 11 7 4 6 9 12 10 9 7 11 13 5 19 14 11 30 19 21 12 6 11 18 11 12 22 32 36 37 32
29 28 32 21 19 19 19 15 14 14 11 9 11 13 8 5 4 6 7 8 10 12 13 13 8 13 10 11 15 10 21 26 17 21 12 7 3 7 9 16 24 34 42 41 32
29 29 29 23 17 16 17 15 14 16 9 10 9 11 10 16 7 8 9 11 14 14 14 15 10 11 5 12 18 26 18 5 11 18 8 11 5 8 5 20 22 26 32 37 38
28 26 28 23 17 15 16 13 13 12 7 6 6 8 7 6 8 9 11 14 16 16 14 10 9 18 7 3 14 20 7 5 7 12 3 10 13 4 3 14 15 27 31 30 27
28 31 26 23 13 13 15 12 9 10 5 5 5 4 8 4 9 10 12 15 13 10 10 8 11 8 5 2 5 7 6 4 4 7 6 3 6 2 5 9 8 7 17 28 27
27 31 26 22 11 12 10 9 3 6 6 4 4 3 6 7 10 13 14 9 3 6 6 3 4 4 3 3 4 11 8 3 4 11 3 3 1 2 11 2 5 3 6 13 31
25 29 33 21 8 9 8 5 5 7 9 6 2 7 10 10 13 6 5 2 2 3 2 1 4 2 2 10 3 13 7 8 5 10 7 5 2 7 7 5 2 2 1 5 13
21 24 30 13 7 9 12 10 8 4 3 7 8 12 11 10 5 3 0 1 2 3 2 3 2 2 7 9 11 12 10 4 4 1 4 8 2 10 10 5 2 5 5 7 8
25 23 31 12 10 12 16 16 9 6 4 1 4 6 5 4 3 3 2 0 1 2 2 2 3 3 2 3 9 6 10 8 1 6 9 2 3 4 9 8 7 7 7 8 11
25 23 31 11 9 12 16 14 10 7 5 2 2 3 3 2 2 3 1 1 2 2 1 3 4 6 4 4 1 3 9 14 13 3 2 2 2 4 6 9 3 9 8 9 7
27 25 31 17 7 17 12 15 10 6 4 2 2 2 2 1 4 1 5 5 2 2 4 3 4 3 7 3 6 3 12 12 8 5 4 3 2 3 6 6 7 5 14 10 6
25 25 25 21 14 16 14 15 9 5 4 2 1 3 2 2 1 2 1 4 2 3 1 4 3 4 2 7 11 6 12 9 5 2 1 4 4 3 1 1 2 6 11 12 11
21 32 27 22 21 20 20 16 3 5 2 2 3 4 2 2 1 3 1 5 2 3 2 4 3 4 1 3 6 12 4 2 2 1 2 5 2 4 5 6 2 3 11 8 6
19 29 23 22 20 23 22 3 3 3 4 1 3 3 1 1 3 5 2 1 1 2 2 3 4 2 2 2 5 3 2 3 4 2 3 4 3 4 5 8 10 18 23 24 22
31 26 24 24 23 25 11 1 6 6 6 7 4 3 2 1 2 1 3 2 3 4 2 2 3 2 3 2 2 4 4 1 6 2 4 2 3 3 6 7 12 18 31 27 27
35 29 26 23 23 24 2 4 4 5 4 3 4 3 3 2 1 1 1 2 2 2 4 5 6 6 4 3 5 1 1 3 3 3 4 3 2 1 5 5 5 10 19 20 21
33 11 23 23 23 10 3 5 4 5 3 3 4 4 1 1 1 2 2 3 2 2 3 2 4 2 3 4 1 4 3 4 4 3 3 3 1 3 1 2 5 9 17 20 21
9 3 26 25 6 3 3 4 6 4 2 3 3 3 4 3 2 2 3 2 7 1 3 1 5 4 2 1 2 1 2 2 4 2 2 2 3 6 3 4 10 13 16 17 17
5 6 23 25 3 4 4 4 4 4 2 3 3 2 2 3 3 1 2 3 5 3 2 3 2 3 6 5 3 2 1 3 4 3 0 4 3 3 3 7 9 13 12 13 12
6 3 6 11 1 3 4 4 4 5 3 3 3 3 2 2 3 3 2 4 5 5 8 5 4 3 5 4 3 3 3 2 4 3 5 4 5 4 4 5 7 9 9 9 10
4 2 4 5 5 3 2 4 7 4 3 3 3 1 4 2 2 4 2 2 3 7 3 3 4 3 4 3 2 3 3 4 3 4 4 6 8 9 7 5 5 6 5 5 8
3 2 4 3 7 3 1 4 6 4 4 1 4 1 3 4 2 4 4 2 1 5 3 4 1 2 5 5 4 2 2 3 2 3 5 6 2 3 8 10 8 5 3 4 9
1 2 3 6 2 2 3 3 6 7 4 5 7 4 4 2 4 9 15 11 5 2 2 3 4 3 2 5 4 4 2 1 2 2 4 5 5 7 4 7 7 4 0 5 11

GFSSW_850_spd_075.txt.gz
Wind_Speed
24 26 28 32 25 22 22 21 17 19 19 20 10 12 12 16 18 16 15 7 8 8 8 14 12 9 8 9 16 6 6 12 21 20 18 15 12 27 14 15 16 26 17 22 25
24 26 29 31 28 23 20 19 17 19 19 18 9 11 12 16 18 19 12 5 4 6 7 7 9 10 5 5 8 9 6 17 15 15 11 13 16 22 12 15 12 21 17 16 23
24 26 26 29 27 22 18 17 16 15 17 14 9 10 12 13 14 1 3 3 5 7 7 7 6 3 6 9 9 7 16 15 14 20 15 11 6 8 10 10 17 28 29 26 33
24 24 26 29 26 24 17 17 15 12 17 12 10 12 11 8 3 4 1 1 6 6 7 5 3 3 4 9 16 11 20 20 9 21 14 16 19 12 16 17 19 30 35 32 30
26 25 25 21 27 22 19 17 14 12 16 13 10 11 9 5 10 9 7 7 6 8 7 6 8 6 9 6 14 17 17 13 22 27 20 16 13 15 25 25 27 30 32 33 34
26 26 24 22 26 22 17 14 13 11 12 13 8 13 9 4 4 5 6 7 7 10 11 9 8 7 10 13 16 7 22 13 17 27 18 18 12 6 25 26 27 26 35 35 35
25 28 27 26 23 21 15 11 13 10 11 14 7 11 13 14 6 7 8 9 10 12 14 13 14 12 6 6 19 21 11 9 15 21 14 17 14 8 15 20 29 29 36 35 33
26 21 22 21 25 20 13 9 10 10 7 6 8 10 9 5 6 8 9 11 13 15 17 15 12 12 10 9 10 15 11 11 13 19 17 15 16 4 4 12 22 28 31 35 28
23 17 19 26 24 15 8 8 8 10 4 7 7 8 8 3 5 6 9 12 16 14 12 11 8 9 10 6 1 11 7 15 10 19 6 13 5 3 4 4 11 15 17 29 33
24 17 19 24 25 17 6 6 6 5 6 8 8 7 6 2 6 9 11 11 9 6 7 6 6 5 4 3 3 6 4 8 6 8 9 5 1 5 8 3 6 8 7 23 23
24 19 19 18 25 10 4 4 3 4 12 9 3 6 5 4 9 2 7 3 3 4 2 4 4 7 6 3 2 5 9 6 1 6 9 7 6 4 7 3 1 8 10 8 22
29 21 14 18 15 10 9 10 7 1 6 17 10 13 8 5 1 1 1 3 2 2 2 3 6 6 2 6 8 11 17 7 4 2 10 10 5 9 2 2 3 6 7 5 8
28 24 9 19 14 11 11 16 5 6 4 2 10 9 3 2 1 2 3 0 2 3 4 5 5 5 4 4 11 7 10 6 5 5 10 3 3 6 4 5 2 3 2 1 7
28 25 13 14 14 13 14 11 11 7 2 1 4 5 3 3 1 3 3 0 2 3 3 5 2 3 3 3 4 6 3 12 13 3 3 3 2 4 4 4 2 4 2 5 6
25 34 21 19 13 19 9 15 12 6 2 3 3 5 2 1 2 1 4 5 4 3 3 0 1 2 3 2 4 2 8 9 7 5 3 2 1 3 4 3 5 1 5 3 2
34 38 21 24 21 16 16 18 13 4 5 2 5 4 3 2 2 2 1 5 5 5 4 1 1 2 2 3 3 1 10 8 5 2 2 2 3 4 4 1 4 3 3 1 3
39 21 21 30 24 24 23 20 3 3 3 4 4 4 5 3 2 2 3 2 2 3 3 4 3 3 3 2 2 3 3 2 2 2 3 3 5 5 10 5 3 5 10 11 6
39 15 19 37 26 29 27 3 3 3 6 2 4 4 4 2 3 4 1 1 3 2 2 2 3 7 4 2 5 1 2 3 4 3 4 4 5 4 4 8 15 20 20 18 22
5 15 34 31 33 32 19 2 5 6 5 7 4 4 2 2 3 2 2 1 1 1 2 2 3 1 2 1 3 3 4 1 6 3 4 2 4 5 7 10 14 17 21 21 25
24 30 25 31 29 29 2 3 1 2 2 3 4 1 3 2 1 3 1 1 1 3 3 4 5 2 4 2 3 3 2 4 3 3 4 1 2 5 3 6 7 12 15 21 24
34 9 23 21 26 16 2 3 1 3 3 3 3 5 3 3 2 1 2 2 1 3 2 2 2 2 3 5 3 4 3 4 4 2 3 3 2 3 5 4 10 9 16 19 21
12 4 23 26 4 3 2 4 4 3 1 2 5 5 4 2 3 2 0 2 6 2 2 2 4 4 1 3 3 2 1 2 3 1 3 2 0 2 3 7 11 13 15 16 16
7 9 21 19 2 3 2 1 3 3 1 1 4 3 2 4 3 2 1 2 4 2 2 2 2 3 7 4 1 3 3 3 4 3 0 3 2 3 8 8 10 12 12 13 13
6 3 6 8 3 3 2 3 3 3 3 5 5 4 4 4 3 4 2 3 4 3 7 4 4 2 5 3 1 3 3 4 4 3 3 1 4 4 5 6 7 7 8 10 11
5 4 4 3 2 1 3 4 5 3 4 4 5 4 4 3 2 3 2 4 3 7 4 3 4 3 5 6 4 3 3 2 4 2 3 4 7 7 9 7 10 8 7 7 9
4 3 3 3 5 2 3 2 4 2 2 3 7 2 4 4 1 2 3 3 1 5 4 4 2 2 5 6 5 3 5 2 3 2 2 5 2 2 7 10 8 6 5 7 9
6 11 5 4 3 0 2 3 4 6 7 7 9 6 6 1 5 9 14 10 6 3 3 3 4 3 1 4 1 4 1 1 2 2 2 3 3 3 3 5 5 5 4 6 10

GFSSW_850_spd_078.txt.gz
Wind_Speed
20 21 20 22 24 25 22 21 19 16 15 19 16 9 11 15 17 18 14 5 4 3 3 6 7 3 2 6 11 11 8 16 24 25 22 22 20 27 24 23 23 19 25 16 19
19 19 21 18 21 24 24 22 19 16 15 13 15 7 9 14 18 18 12 8 3 2 1 3 3 3 4 6 7 13 14 22 20 21 19 25 18 19 19 27 21 16 20 19 23
25 22 22 21 22 26 23 23 19 15 12 11 9 8 10 12 13 3 4 6 2 2 3 4 2 3 6 8 9 12 20 17 20 19 21 23 22 26 18 19 22 18 19 18 18
32 26 21 22 20 18 26 21 18 14 12 11 10 9 8 8 4 5 5 4 6 3 3 0 3 5 6 9 12 14 22 26 27 21 19 20 23 22 21 29 29 19 15 20 21
26 28 25 21 21 20 22 20 17 11 10 10 9 10 6 4 10 11 8 8 7 4 2 3 7 8 10 8 11 17 22 22 25 23 23 20 24 26 28 26 29 27 16 22 24
23 23 23 23 24 22 24 18 11 8 10 9 8 9 5 9 8 8 9 10 8 7 6 6 5 6 11 15 14 13 15 23 25 20 21 23 22 22 25 28 22 28 16 20 26
24 23 18 16 17 21 23 10 9 9 7 9 8 8 10 13 9 8 10 11 11 10 10 10 9 10 4 8 15 16 19 20 22 25 15 22 21 27 23 13 27 32 19 18 28
26 22 19 9 19 17 20 14 7 7 4 4 8 7 7 6 8 10 11 12 13 13 13 13 12 14 15 10 9 10 11 14 15 21 23 14 24 22 26 20 21 26 18 14 28
26 25 17 10 17 21 17 7 6 6 4 8 7 5 6 4 7 7 9 10 11 12 13 10 7 11 9 9 6 8 6 17 12 21 16 20 9 15 18 17 20 25 19 17 20
26 26 17 14 18 21 14 6 4 4 7 9 7 5 5 4 6 9 10 11 8 6 5 8 8 8 7 6 7 4 12 12 17 14 21 21 18 3 8 18 18 16 12 14 32
25 27 17 17 15 18 13 10 7 2 10 7 7 3 2 5 8 5 6 4 4 4 4 6 5 10 14 12 14 2 6 9 7 12 21 9 10 3 14 8 13 5 6 17 22
23 27 21 9 13 16 11 9 9 4 4 12 8 7 11 8 5 6 4 5 5 5 1 4 11 12 14 10 9 5 11 4 6 4 14 12 8 6 12 10 6 6 4 11 12
20 19 16 15 12 16 13 12 9 5 1 1 10 7 5 9 4 6 7 4 4 5 6 6 8 10 8 4 9 7 15 9 5 12 10 10 2 1 5 11 4 4 9 14 13
23 17 15 18 15 15 14 14 13 8 1 4 6 3 6 4 4 7 6 2 2 4 5 8 7 7 8 4 5 7 16 15 10 1 4 1 3 2 3 10 6 11 13 14 9
23 19 20 17 12 16 10 18 16 5 2 6 5 4 5 5 2 4 4 3 3 3 2 2 4 3 3 2 7 4 12 8 7 1 6 3 3 5 4 8 7 10 14 12 11
26 21 15 19 20 17 20 25 16 3 4 5 5 6 3 7 4 3 0 4 3 3 9 4 4 4 4 4 3 1 14 7 4 2 3 2 3 3 4 6 6 11 12 8 10
33 28 21 20 20 24 29 24 4 3 1 5 6 6 7 6 4 3 2 3 2 2 2 0 3 5 2 1 4 7 5 3 3 1 4 4 6 4 10 9 3 10 13 10 6
54 33 30 25 25 35 35 5 4 3 5 3 6 7 5 6 3 1 3 2 5 3 1 3 3 1 5 1 3 3 3 2 4 3 4 5 6 5 9 13 13 13 19 16 13
5 27 25 25 34 40 21 3 3 5 6 10 9 6 4 2 3 2 2 2 3 3 3 2 3 1 1 3 3 1 2 1 7 2 5 4 5 10 9 13 14 17 20 17 15
33 28 23 28 41 38 3 2 2 3 4 11 5 5 4 5 2 1 2 4 3 3 3 1 2 2 0 3 4 3 2 2 2 3 5 3 5 7 8 11 11 16 17 10 14
26 10 24 40 38 7 1 1 2 5 3 3 4 4 6 5 4 2 2 2 2 2 2 2 2 2 3 6 6 3 1 3 3 3 3 5 4 3 7 9 11 13 13 13 12
13 4 28 30 4 2 3 1 3 4 2 3 2 4 4 4 4 3 3 1 4 2 2 0 2 3 3 1 3 2 4 4 2 2 4 4 5 1 5 9 10 12 11 11 11
9 9 19 9 3 2 3 2 3 3 1 0 1 1 2 4 5 4 2 3 6 3 3 2 3 2 2 1 2 4 5 4 3 2 4 1 5 4 9 9 8 9 9 9 10
6 3 4 0 3 5 2 3 4 3 2 4 2 2 5 6 6 5 2 5 5 4 7 2 4 5 4 4 3 2 6 7 6 4 4 5 11 10 11 10 8 7 7 7 8
6 4 3 2 3 7 2 2 8 2 2 3 3 3 4 5 6 4 3 1 3 7 3 2 4 3 7 4 2 5 7 9 6 5 4 6 10 14 12 10 8 6 5 5 7
5 4 3 6 7 2 1 5 5 3 4 3 7 5 7 5 4 5 3 2 2 4 3 3 3 2 5 8 6 6 6 4 5 3 6 9 7 6 10 11 9 7 4 1 4
11 12 4 3 4 2 3 4 4 4 6 6 10 10 13 6 8 11 13 10 6 2 2 2 3 1 1 5 4 3 6 5 2 3 2 2 4 11 10 11 12 9 7 4 1

GFSSW_850_spd_081.txt.gz
Wind_Speed
25 20 19 17 17 16 16 20 19 19 18 15 13 14 9 11 12 11 13 7 6 7 3 4 4 4 4 8 14 12 7 16 25 25 19 26 21 25 26 25 27 31 32 22 14
26 27 23 18 20 19 20 22 18 18 18 12 10 8 9 10 12 14 12 13 8 4 4 6 6 5 6 9 8 12 14 23 21 20 21 25 26 25 21 26 26 29 29 22 11
23 22 27 25 22 18 16 20 21 17 17 12 9 8 8 8 11 1 1 5 6 4 3 3 4 6 11 11 13 12 19 20 20 26 25 25 25 26 21 21 23 25 22 20 16
21 21 19 20 24 18 19 20 22 19 14 11 11 9 7 2 3 3 5 4 6 2 1 4 6 10 9 14 17 20 24 24 25 30 27 17 24 27 25 27 26 26 31 11 13
23 25 23 17 22 20 17 24 22 18 13 11 9 7 4 5 9 7 8 6 5 4 6 6 8 11 14 12 17 20 19 25 28 26 29 26 23 25 26 28 25 26 25 15 11
25 25 26 23 20 14 19 22 24 12 12 10 9 5 5 9 6 6 8 8 8 7 7 7 7 8 13 17 17 20 21 22 26 26 25 23 26 26 29 29 24 23 26 30 18
23 26 27 27 14 11 24 24 20 11 10 9 7 6 8 11 3 5 7 7 9 11 12 10 10 10 7 11 20 18 18 20 25 22 22 22 22 26 34 25 22 31 23 21 21
23 25 26 19 12 10 18 21 13 7 6 8 7 7 6 7 5 9 7 8 11 12 14 13 12 17 18 14 21 17 17 16 12 21 26 22 19 26 29 26 26 20 25 24 27
24 24 25 21 17 12 21 13 10 9 6 6 7 5 3 5 5 5 7 9 9 13 15 15 14 19 14 11 10 11 14 17 18 18 16 20 20 22 19 30 28 20 22 21 17
23 23 22 22 12 15 14 13 8 7 9 6 4 5 7 4 6 4 3 7 11 13 14 15 10 10 9 10 12 11 8 14 16 15 19 22 20 2 4 9 19 21 21 24 13
21 22 20 16 12 17 18 17 11 4 13 9 5 1 6 4 3 3 4 5 9 8 11 14 7 11 17 18 19 11 14 14 11 14 18 23 19 14 6 8 14 21 21 12 12
20 20 21 14 17 9 17 8 10 7 5 17 7 8 5 4 2 4 4 6 8 11 11 6 13 17 11 13 17 16 14 16 14 11 11 19 17 13 2 7 11 15 14 13 13
20 18 19 14 15 14 17 13 11 8 4 5 14 6 4 7 3 4 8 4 10 12 11 13 12 10 10 10 11 13 17 13 6 12 15 14 3 6 7 8 5 6 0 4 14
17 17 15 12 4 16 18 13 11 8 2 8 8 5 7 5 0 5 7 5 4 8 7 10 11 10 9 7 9 11 12 10 7 9 4 11 6 2 5 8 4 7 6 7 14
17 15 14 13 8 8 3 14 13 4 5 9 8 7 7 5 5 5 8 5 9 6 1 2 7 6 5 4 10 3 6 8 3 2 8 7 4 3 7 6 8 6 10 8 16
21 18 14 15 13 12 11 15 10 4 4 5 7 8 5 6 4 3 3 7 8 4 9 9 9 4 5 9 6 12 6 7 8 3 3 2 3 4 4 5 5 7 7 12 17
27 23 19 14 10 9 10 19 4 5 2 7 7 7 5 4 8 8 6 7 4 4 2 3 1 4 3 4 5 3 6 2 4 1 4 2 5 4 4 5 2 5 8 16 21
38 35 27 24 15 13 21 3 7 6 3 5 9 11 4 8 1 2 4 3 5 6 3 4 1 3 1 4 3 5 5 4 2 3 4 7 5 4 5 4 11 10 15 23 20
8 34 27 31 21 21 14 5 4 3 6 11 14 7 5 7 5 5 4 0 1 4 4 3 4 5 5 5 5 4 2 6 3 8 6 3 5 7 9 9 11 14 20 22 20
31 28 23 25 23 28 1 2 3 1 6 14 7 6 7 8 9 8 1 3 3 2 2 2 1 3 4 4 4 4 7 3 1 2 5 5 10 6 8 10 9 9 17 18 18
25 13 18 23 27 10 2 3 3 4 3 1 2 5 5 6 3 3 2 1 2 4 1 5 1 2 3 6 7 4 5 1 1 3 2 4 4 6 9 11 12 12 15 15 12
15 5 20 31 5 1 2 3 6 7 3 3 2 2 4 3 4 4 4 2 5 4 4 5 4 4 3 1 1 4 10 7 4 4 4 9 4 2 8 10 12 12 12 12 10
12 11 24 4 1 1 3 6 7 4 5 2 2 2 1 3 4 7 5 4 5 4 6 5 4 1 2 3 2 6 11 11 3 3 5 3 7 8 11 9 10 11 11 10 9
6 3 5 4 2 3 7 8 6 8 7 3 3 4 5 7 6 7 7 4 4 3 5 4 5 6 6 5 5 6 12 14 7 6 8 7 12 13 11 10 9 9 9 8 7
7 4 3 3 2 9 4 7 8 5 3 5 3 2 2 4 10 7 6 6 5 1 1 3 4 4 8 6 5 7 10 12 12 11 8 7 10 11 10 9 9 9 8 7 5
5 4 7 12 6 4 3 9 7 5 7 5 7 6 7 9 7 6 4 6 5 4 2 3 2 1 4 6 5 9 9 7 9 8 7 8 9 7 13 12 10 8 4 1 1
13 11 4 5 6 3 6 5 5 1 7 10 7 9 12 12 13 13 14 10 6 6 5 3 2 3 2 4 2 2 9 7 3 6 6 2 4 8 7 8 9 7 5 2 2

GFSSW_850_spd_084.txt.gz
Wind_Speed
21 22 25 22 20 19 17 18 20 22 18 15 15 12 8 4 6 6 7 9 8 9 4 2 5 5 5 7 12 10 6 11 16 18 17 21 18 29 26 24 31 27 21 21 6
19 17 17 19 24 20 17 19 23 25 17 16 13 12 5 3 7 10 9 16 13 8 4 5 7 8 7 7 7 8 8 14 14 15 14 20 25 26 26 24 21 19 23 18 11
21 20 19 18 21 19 20 17 23 23 20 19 13 12 5 2 7 5 6 9 10 8 3 3 4 5 12 15 12 8 14 14 20 25 24 24 26 27 21 18 23 15 22 23 22
21 20 21 21 20 17 20 17 23 17 19 18 13 9 4 2 2 7 7 9 10 6 3 3 5 9 8 8 17 12 21 23 24 24 23 18 29 23 25 27 26 23 20 25 16
20 21 23 24 21 20 21 20 22 25 19 15 12 6 5 5 6 9 7 8 6 4 3 3 6 9 11 10 15 14 15 22 23 24 23 27 24 23 30 31 30 22 22 17 10
21 23 24 25 25 24 17 17 26 25 20 14 11 6 7 7 7 5 7 8 7 4 4 4 4 8 10 14 13 18 22 21 24 23 23 21 21 25 30 30 33 29 23 25 20
21 21 23 22 26 16 13 15 27 24 16 10 9 7 7 7 5 6 8 8 6 7 7 7 6 6 8 11 10 14 15 14 16 22 19 23 21 22 25 33 33 30 22 29 21
20 21 23 23 25 18 11 25 20 20 11 9 8 7 5 9 10 9 8 7 7 7 8 9 7 10 15 14 17 14 12 11 11 15 26 21 19 17 32 28 31 31 29 22 26
20 21 21 21 19 15 9 18 16 12 8 9 11 7 3 7 10 9 9 7 5 7 7 8 8 13 13 9 7 6 9 15 17 16 14 18 17 21 33 26 31 31 24 23 19
20 21 20 17 17 12 11 16 14 8 13 10 5 4 8 5 10 8 8 7 6 4 6 9 5 5 4 7 9 5 8 9 11 8 15 16 20 16 16 14 13 27 26 20 19
19 18 20 14 16 10 15 10 13 7 15 9 9 1 15 9 8 6 8 5 4 3 4 8 4 9 13 15 17 14 17 20 17 18 8 15 15 20 13 7 9 9 12 16 22
18 16 18 14 15 13 9 7 5 3 5 17 3 6 7 6 7 9 7 5 7 6 9 5 8 13 15 15 16 16 18 19 16 16 10 9 16 13 9 2 5 10 11 10 10
18 16 14 13 14 11 13 10 2 2 2 7 12 9 5 8 4 13 8 4 4 4 10 8 8 10 12 14 12 16 17 15 12 6 10 7 8 9 4 4 7 7 6 6 4
17 16 13 11 9 4 11 5 5 1 1 8 9 7 8 6 3 8 5 2 1 4 4 8 11 12 11 11 7 10 13 17 10 7 3 8 3 8 4 7 4 5 1 6 4
15 14 12 9 4 3 1 4 7 4 3 9 10 11 10 5 11 3 4 2 2 6 1 4 8 9 8 6 7 6 1 10 5 4 4 8 2 2 4 3 8 3 8 8 8
20 17 12 10 10 5 9 1 12 1 3 3 6 9 8 6 6 6 2 2 4 5 7 11 11 6 4 10 8 5 1 2 1 1 3 1 2 2 3 2 5 4 13 10 9
23 15 17 7 3 5 1 11 1 4 3 5 7 10 10 7 5 3 3 4 2 3 3 5 5 3 4 6 3 7 6 2 4 1 3 2 2 2 3 2 5 5 11 13 17
18 19 17 13 4 9 15 2 3 7 3 4 12 11 5 7 3 4 3 2 9 5 3 3 2 3 2 3 4 2 5 2 3 3 3 6 3 3 3 8 8 13 13 15 18
18 29 20 17 9 9 6 1 5 3 4 9 13 4 3 6 4 4 2 2 2 4 2 3 2 4 11 11 4 3 2 4 3 7 2 4 2 4 5 7 10 13 12 14 19
36 27 18 14 9 11 1 3 1 4 4 13 3 2 6 6 5 4 3 3 2 3 4 0 0 5 4 5 5 4 7 3 2 2 3 1 5 4 4 8 8 9 10 13 20
36 14 12 13 13 6 1 3 3 5 4 4 6 6 2 8 3 4 2 1 3 4 8 6 3 1 5 3 4 3 4 3 2 2 1 3 3 6 10 8 9 10 12 13 17
26 6 13 16 3 1 2 3 4 3 6 4 6 11 4 4 5 2 2 4 3 5 2 1 3 2 0 2 3 4 5 3 3 5 4 5 3 9 10 11 14 13 12 12 13
13 12 17 9 1 2 5 7 9 4 8 4 4 5 2 4 3 6 3 2 3 2 4 5 3 2 1 2 2 4 9 8 2 3 7 3 4 8 10 10 15 15 12 11 10
7 3 2 3 4 5 6 6 4 7 8 6 3 2 3 2 5 5 3 1 1 2 5 4 4 5 3 2 4 6 10 11 5 4 4 5 12 9 8 8 12 14 12 9 8
7 3 4 2 2 2 1 8 10 5 4 5 3 4 4 5 7 5 4 5 3 2 3 3 3 5 4 4 5 6 7 10 10 7 6 11 11 11 10 9 14 14 11 10 8
6 5 4 3 3 1 2 8 10 6 8 8 7 12 12 11 9 5 1 5 4 2 3 3 1 3 3 6 7 6 10 8 8 8 7 10 7 8 16 18 15 12 11 9 5
18 11 4 2 2 6 6 8 7 2 7 12 7 9 8 8 9 7 9 7 4 4 4 3 2 3 1 4 4 3 5 6 4 6 4 4 3 6 6 9 10 11 8 6 4

GFSSW_850_spd_087.txt.gz
Wind_Speed
17 17 16 17 23 29 20 17 17 18 16 15 12 11 10 5 5 8 7 4 8 7 4 4 3 4 2 1 5 7 2 2 4 6 7 22 17 33 31 25 30 24 20 11 7
20 20 16 18 18 16 25 16 17 17 19 17 15 10 6 5 6 13 5 9 11 9 8 5 3 4 2 2 3 5 3 4 6 8 10 17 20 23 18 26 21 30 22 14 6
21 18 19 19 19 19 16 20 21 18 24 20 13 9 4 4 5 5 6 13 13 10 11 4 6 5 4 6 6 5 5 5 16 23 22 17 21 22 18 12 18 21 30 21 15
18 20 18 21 21 21 19 21 20 10 25 22 13 10 5 6 2 6 6 8 10 11 8 6 4 2 2 3 9 7 12 14 19 26 26 17 23 22 23 20 29 29 29 29 10
19 18 19 20 21 21 23 16 24 17 25 18 13 8 9 5 7 8 6 8 11 11 8 5 5 5 4 3 8 4 7 14 17 16 17 21 19 20 29 25 31 32 29 20 20
17 17 19 20 21 22 23 20 23 14 28 17 15 11 11 4 4 11 7 8 7 6 8 5 3 5 2 2 2 7 14 14 16 21 20 16 21 22 23 29 31 32 31 27 22
17 17 18 21 21 23 21 12 16 22 28 18 13 11 12 9 8 9 11 7 12 6 6 4 5 3 4 5 8 13 8 13 16 17 11 22 22 19 25 29 33 31 34 31 28
18 16 18 20 21 21 14 11 17 31 22 15 13 14 5 12 10 9 9 12 11 9 9 9 4 4 4 6 7 5 5 3 1 4 11 12 22 18 26 24 31 35 31 31 33
18 16 17 16 19 17 9 15 16 20 18 16 19 9 2 11 16 11 10 9 4 4 3 3 4 6 5 4 4 3 4 7 8 3 5 4 16 8 27 26 27 29 32 34 34
18 15 15 14 14 16 3 16 18 17 21 17 13 4 6 9 13 14 10 9 9 6 3 7 3 1 1 3 4 4 3 5 8 3 11 15 21 20 27 13 29 26 28 33 32
15 13 12 11 11 10 6 19 15 5 10 6 13 1 16 17 15 13 11 11 8 6 5 6 2 9 10 9 7 5 10 15 18 16 14 14 15 17 16 15 17 19 10 21 20
13 12 11 8 10 10 10 5 2 3 3 11 1 9 12 13 7 10 10 7 8 5 4 2 9 11 10 9 9 14 17 21 17 16 7 10 17 14 6 11 16 10 7 4 5
13 10 9 7 8 6 1 4 4 0 4 6 5 6 7 10 7 16 13 6 5 3 6 6 4 6 4 6 13 17 15 17 16 11 11 11 9 5 5 2 6 9 7 4 2
11 7 6 4 3 5 7 4 5 1 2 4 6 4 8 6 4 11 9 4 2 3 1 6 3 4 6 10 9 13 12 16 16 7 4 8 3 2 2 5 7 14 7 2 3
8 5 3 1 5 4 3 1 6 4 3 5 7 9 10 3 15 3 7 4 3 3 1 5 2 3 9 7 6 7 13 10 5 6 3 3 1 2 6 3 5 8 7 4 7
8 7 6 3 3 2 2 2 9 0 4 3 4 6 5 4 3 5 3 2 2 2 4 7 4 2 4 8 12 11 5 3 2 1 2 3 4 1 2 2 4 4 8 6 6
12 8 9 7 3 5 2 11 4 5 3 4 5 7 6 4 3 5 4 3 3 2 2 2 3 2 3 7 2 1 3 2 3 2 0 0 1 1 5 2 6 4 7 11 13
12 18 15 10 9 6 12 4 7 2 2 4 7 8 4 8 1 4 3 1 4 1 2 3 4 2 3 4 3 4 3 2 1 2 2 4 3 2 5 7 4 8 7 14 15
32 24 18 11 6 8 5 4 3 3 1 7 8 3 3 4 4 2 2 0 2 2 1 2 3 4 8 6 3 2 2 4 1 2 2 1 1 1 6 4 7 10 12 13 17
38 29 16 10 6 6 5 3 1 2 5 8 4 5 5 5 3 0 2 0 1 2 4 1 2 5 5 3 8 7 4 0 1 2 3 2 3 3 3 5 7 9 12 13 15
24 10 9 6 6 4 2 3 3 4 11 4 3 4 6 4 3 3 2 1 3 2 7 2 2 5 2 3 3 3 5 3 2 2 3 2 3 3 6 8 8 10 8 10 16
18 5 8 8 4 3 1 2 7 7 9 2 4 4 3 4 3 2 3 3 10 4 3 6 2 3 3 4 4 3 6 1 4 5 4 4 3 4 8 9 12 11 10 9 12
8 9 9 2 2 1 4 4 3 4 4 4 2 3 2 3 4 3 3 2 2 2 2 4 3 3 8 5 6 4 7 4 2 3 4 4 2 2 9 12 14 16 15 14 12
6 3 1 2 3 2 3 2 2 5 4 3 4 3 1 3 1 3 1 2 2 1 3 1 3 3 4 5 4 5 8 12 4 4 1 1 8 6 6 7 10 12 13 13 10
3 3 4 2 4 5 2 3 3 4 7 8 6 5 2 4 4 3 1 3 3 3 2 4 2 3 4 1 4 5 5 10 9 2 4 6 3 5 7 8 11 12 12 11 8
5 4 3 4 4 2 4 4 4 4 6 6 5 6 10 5 4 3 2 3 0 5 2 3 1 2 4 3 5 3 9 8 8 8 8 6 3 7 15 14 15 16 12 9 4
8 2 2 5 4 4 5 5 5 2 6 7 1 5 7 6 12 13 5 3 2 1 3 2 3 3 3 3 3 5 4 4 3 4 1 2 2 5 4 8 15 14 13 10 6

GFSSW_850_spd_090.txt.gz
Wind_Speed
18 18 18 14 15 15 19 29 20 16 15 24 17 10 8 8 7 10 8 6 6 5 4 3 6 5 4 6 4 2 1 3 4 3 4 10 8 14 14 12 20 10 15 19 14
17 18 17 16 17 18 16 25 28 12 18 19 15 15 9 7 8 13 6 8 7 4 7 8 8 5 2 2 3 4 3 7 5 2 4 13 14 18 13 19 18 14 16 18 19
20 18 17 16 15 17 20 16 19 21 14 18 20 13 10 6 6 4 13 12 10 8 10 7 4 8 2 1 3 3 4 4 5 17 18 12 20 20 12 13 13 25 28 25 22
20 17 17 17 17 18 17 18 20 19 12 20 24 15 11 8 3 6 8 13 11 9 13 8 7 6 2 3 4 4 8 8 7 17 17 10 17 17 21 20 24 25 26 25 19
21 18 16 15 17 18 18 19 17 21 19 20 26 19 13 6 6 9 10 12 14 14 12 8 7 5 3 2 5 4 4 8 11 14 17 23 19 13 24 31 26 24 32 28 21
20 15 15 18 18 19 20 21 20 17 20 23 23 20 15 5 7 11 10 11 12 12 10 6 4 1 1 2 2 5 8 11 9 19 18 14 20 12 17 29 38 38 36 33 25
17 14 13 17 18 21 22 23 20 18 24 30 26 18 14 7 9 13 9 8 11 9 10 4 2 2 1 3 7 8 7 8 14 15 7 17 15 12 28 31 37 39 31 31 32
16 14 14 16 18 20 25 19 14 17 24 34 23 18 7 13 13 11 10 11 8 7 7 3 1 1 0 4 7 4 4 4 5 1 8 6 14 11 23 26 29 32 32 26 35
17 15 14 14 16 15 17 1 14 24 33 25 25 14 3 17 19 10 10 13 11 8 4 2 0 2 0 1 4 2 4 5 6 7 5 6 10 6 19 26 26 28 30 30 25
17 15 12 11 12 13 9 18 29 29 27 19 17 10 10 14 19 14 10 11 7 7 4 3 1 1 1 3 4 6 6 6 7 5 10 13 20 20 25 17 23 23 23 27 27
12 12 10 8 9 9 1 14 15 11 7 5 13 6 13 15 19 15 14 12 10 6 3 4 2 9 12 9 5 3 4 13 17 13 14 16 15 18 19 18 16 23 24 18 24
9 8 7 6 7 5 5 6 6 6 4 12 11 19 24 21 13 14 12 7 6 4 3 2 9 11 7 7 8 8 14 19 17 13 5 10 17 20 14 8 11 13 16 13 14
8 6 4 1 3 4 4 3 5 9 5 7 14 14 14 12 8 15 13 5 3 3 6 6 5 3 7 6 8 11 13 16 13 13 11 12 11 6 3 2 9 9 9 8 6
3 3 2 3 4 9 4 9 4 4 3 4 6 1 7 7 6 13 13 3 2 6 4 7 7 5 7 8 10 12 4 12 8 7 3 4 4 4 5 4 6 14 16 10 3
5 5 5 4 7 6 8 8 5 3 4 1 4 8 7 3 14 5 11 4 3 3 3 6 0 4 5 5 6 7 8 9 5 4 3 4 4 4 5 3 6 10 13 9 5
10 9 8 5 5 5 3 11 6 4 5 4 3 4 4 2 3 5 2 2 2 3 4 8 5 4 4 3 10 10 9 3 4 2 3 4 4 2 4 5 5 8 10 9 7
14 11 9 8 6 5 7 5 4 5 1 4 5 5 3 3 3 3 3 2 4 2 3 3 4 3 4 5 1 5 1 2 2 1 2 2 4 0 7 7 5 2 7 10 12
19 20 17 14 8 8 8 4 8 2 2 2 5 7 3 6 2 4 2 3 6 2 3 2 4 3 4 4 2 4 3 2 3 1 1 2 1 1 7 5 4 6 8 12 17
24 18 16 15 10 5 4 5 3 2 2 6 6 3 2 2 3 3 3 2 4 4 1 2 3 4 7 5 2 1 3 3 2 1 3 1 1 2 4 6 9 11 13 14 11
20 18 15 10 6 5 3 5 3 4 2 5 3 4 4 4 2 1 4 2 2 3 3 2 3 5 3 4 10 6 2 2 2 1 2 3 2 4 2 3 7 8 11 9 14
5 5 8 8 8 8 4 4 2 5 3 3 2 4 3 4 4 4 3 2 3 3 5 2 1 5 1 4 4 1 4 4 1 3 1 2 3 3 1 3 5 5 7 10 14
8 3 6 16 7 3 2 2 3 6 10 4 2 4 5 7 4 3 2 3 8 3 3 5 1 3 5 4 3 3 5 3 3 1 2 3 2 3 4 7 8 6 7 11 14
4 4 9 15 4 3 4 3 5 3 2 0 2 1 4 5 4 2 3 4 6 4 2 1 2 4 8 5 5 4 6 4 2 3 1 4 3 3 5 4 5 6 5 8 9
4 3 6 8 4 2 4 4 4 8 3 3 2 1 2 3 1 3 1 1 2 1 3 1 2 3 4 4 3 6 9 10 3 4 1 2 4 3 4 5 6 7 8 8 7
5 1 2 3 4 2 2 3 5 7 7 15 7 6 1 3 3 3 2 2 1 3 1 2 1 3 3 3 2 3 5 10 8 0 3 5 6 8 9 8 13 12 10 8 5
2 2 1 2 7 3 6 6 6 4 6 5 5 7 9 5 3 4 5 3 1 4 3 3 1 2 3 2 4 3 8 8 6 7 6 3 2 3 6 11 11 13 12 10 6
6 3 3 5 3 3 3 2 5 2 5 7 2 2 6 3 9 11 7 3 1 1 2 2 3 3 4 5 5 4 3 2 1 3 1 2 4 4 3 7 13 13 12 8 5

GFSSW_850_spd_093.txt.gz
Wind_Speed
18 18 18 17 14 16 16 17 32 26 19 18 16 15 11 10 8 8 7 5 7 5 5 4 6 5 7 6 6 6 2 3 4 5 3 6 7 5 6 11 12 1 6 12 19
19 19 19 19 15 15 14 20 20 33 24 17 18 20 15 10 8 11 6 10 8 6 6 7 7 6 5 3 3 4 3 6 4 1 2 10 9 15 7 14 12 10 12 16 15
21 24 20 19 17 17 13 17 16 26 35 16 18 23 14 10 7 5 12 12 12 9 8 8 6 3 4 3 1 2 4 4 4 9 14 7 14 12 7 7 7 15 19 21 19
22 23 23 20 18 17 15 16 15 20 28 13 19 24 15 9 4 4 12 13 11 10 9 7 6 4 3 0 1 2 4 4 4 10 10 7 11 11 20 19 23 20 22 25 23
22 23 20 19 17 14 16 17 20 17 15 19 15 24 17 8 5 8 12 14 12 11 12 8 7 4 3 1 3 1 3 9 13 15 18 19 16 16 22 29 32 29 24 25 27
24 20 16 16 15 16 18 19 19 20 16 20 17 28 19 5 7 13 13 12 12 13 11 8 5 5 3 2 2 6 7 13 9 20 19 15 23 13 8 25 37 40 35 28 28
20 16 14 16 16 18 19 21 24 23 18 22 26 21 15 7 13 14 11 13 12 10 11 7 5 4 3 2 7 8 7 7 9 12 6 14 14 9 27 25 27 28 30 30 28
19 16 14 17 16 19 21 24 23 21 21 27 32 23 8 16 16 15 14 15 13 11 8 5 3 4 2 2 6 5 3 4 6 4 5 7 15 15 23 23 26 27 35 36 26
18 16 14 17 15 17 19 22 9 15 26 26 29 13 7 19 18 12 11 14 11 8 4 2 1 3 3 3 4 4 4 4 7 3 5 6 10 7 20 22 26 32 33 27 26
17 11 12 12 12 13 14 14 22 32 31 28 28 13 14 17 21 14 11 11 9 10 7 3 3 3 3 3 3 4 3 4 6 4 5 13 22 24 24 19 23 28 29 28 27
11 8 8 7 8 10 11 17 11 13 14 6 16 7 19 24 16 13 15 11 11 7 2 2 4 5 8 7 1 2 3 10 12 14 11 14 19 21 21 12 18 26 21 25 27
8 6 4 2 4 7 7 10 7 9 18 19 12 20 22 25 13 14 14 6 5 2 3 3 5 6 5 4 5 8 13 16 13 7 3 11 16 19 19 10 8 12 16 16 12
4 5 0 3 3 5 10 6 8 10 8 11 17 24 14 17 7 14 14 6 4 3 4 4 4 5 3 4 7 9 13 16 11 9 12 11 9 5 3 2 10 16 11 14 7
4 3 5 5 7 6 5 12 11 5 5 3 4 5 8 10 6 12 11 4 2 6 4 5 5 3 7 8 10 12 7 12 14 5 3 1 4 3 4 3 6 15 20 19 13
10 10 8 6 8 8 6 8 5 5 5 2 2 4 7 4 16 3 9 2 3 2 3 5 2 2 5 7 8 7 5 10 14 5 3 4 2 5 4 5 7 9 16 17 13
13 11 10 9 10 9 6 8 3 3 5 3 2 2 4 4 3 6 3 2 2 0 2 6 5 3 5 6 10 8 10 13 3 3 2 3 4 4 4 5 6 9 14 14 12
16 13 10 9 9 7 9 2 3 6 2 4 4 3 4 3 3 2 3 2 2 2 3 3 5 3 9 6 4 5 3 3 1 1 4 1 2 3 7 8 5 7 11 13 12
19 15 14 15 9 7 4 3 9 3 3 3 4 3 3 3 2 2 3 1 3 2 3 2 5 5 6 6 2 4 2 2 4 1 2 1 2 2 6 8 6 7 9 14 15
14 15 16 12 6 5 3 6 2 2 2 5 4 4 3 2 4 2 1 1 4 9 3 2 4 3 7 5 3 1 3 2 4 2 1 3 1 2 4 7 8 9 11 12 12
12 13 15 11 9 7 5 6 3 2 3 1 3 2 3 2 2 1 4 3 3 6 4 2 4 4 1 5 7 3 4 2 2 3 2 2 3 3 3 3 5 6 9 8 9
10 5 14 12 8 11 5 4 2 2 1 2 1 3 4 4 2 1 3 3 2 3 3 2 1 4 1 4 3 2 2 4 2 2 2 2 2 4 1 1 3 5 6 7 9
5 3 15 12 7 4 3 2 3 2 3 2 1 3 4 3 3 2 4 4 8 7 4 5 1 4 6 1 2 3 3 3 2 2 1 1 2 5 4 4 4 8 7 5 10
5 4 17 14 4 4 2 1 1 3 1 3 2 2 2 4 1 4 4 4 8 4 3 2 1 4 7 5 4 3 4 4 2 2 1 2 1 3 4 5 5 7 6 6 4
4 3 8 10 6 2 4 4 4 5 3 3 4 2 2 2 2 1 1 2 3 3 3 2 1 3 4 4 3 6 9 7 1 3 2 2 2 2 2 3 4 5 6 6 4
7 2 3 3 5 3 2 3 4 6 8 12 4 5 2 3 3 4 3 4 1 2 1 2 1 0 3 4 2 2 5 9 6 1 2 3 1 4 6 6 8 7 6 5 4
5 4 4 5 6 5 6 5 4 3 5 5 4 5 5 4 2 2 2 2 1 4 1 2 1 0 3 4 6 4 5 5 4 3 5 3 0 2 6 6 8 10 10 8 5
6 6 4 7 5 3 4 4 5 2 2 4 2 2 5 2 6 10 9 9 4 1 1 2 2 3 4 4 5 4 3 2 2 1 1 1 1 4 3 7 13 13 12 9 6

GFSSW_850_spd_096.txt.gz
Wind_Speed
21 18 16 15 16 16 13 14 17 21 29 22 23 6 19 10 9 10 5 4 9 9 9 8 7 7 9 6 5 4 4 2 3 5 2 3 7 4 7 11 5 4 5 13 18
19 18 19 20 17 15 15 14 11 14 27 31 22 15 18 12 9 10 6 6 9 8 9 9 10 8 5 4 3 4 3 6 2 2 2 8 4 12 4 12 12 21 16 16 19
20 19 20 20 21 19 19 15 13 14 13 28 26 12 18 11 6 5 9 10 10 8 9 10 9 6 4 4 2 2 4 2 2 5 7 5 11 8 5 5 11 7 17 23 23
18 21 21 20 19 20 18 16 14 13 16 16 23 11 21 9 4 2 11 13 12 10 10 9 8 5 3 3 2 1 1 2 3 10 9 6 9 8 18 17 25 28 22 27 28
15 15 18 17 14 17 16 13 11 16 15 10 19 16 23 11 3 6 15 15 10 10 9 7 7 4 4 3 1 2 3 7 11 15 18 18 13 13 20 27 28 29 25 23 29
16 14 14 13 11 15 12 14 14 17 14 12 24 18 18 6 8 14 17 14 8 11 10 8 5 6 6 3 2 3 5 13 9 20 18 14 14 8 4 23 29 33 34 31 28
17 16 13 12 12 12 17 15 18 17 17 14 11 31 17 10 15 15 13 12 11 9 11 9 9 4 3 3 5 5 5 6 5 5 5 8 5 6 15 16 20 22 25 27 30
15 14 14 13 11 11 15 17 20 22 21 19 13 22 7 15 17 15 15 15 11 8 7 8 5 7 3 2 5 4 3 4 4 4 4 7 8 9 13 9 16 27 34 34 34
15 14 11 10 9 10 13 15 13 13 19 22 21 16 10 18 20 14 13 16 13 10 8 5 4 4 3 3 4 5 2 3 7 3 2 1 12 5 15 27 27 30 31 33 33
9 7 6 5 6 9 11 11 12 18 20 23 19 14 15 12 19 14 11 14 10 12 9 4 5 3 3 3 2 1 3 4 5 4 5 11 23 22 27 21 25 28 32 34 29
1 3 4 4 6 7 11 3 4 13 13 6 8 13 25 24 16 13 12 11 13 6 3 3 4 2 5 4 4 4 1 5 10 14 11 12 18 20 22 18 17 26 28 24 25
3 4 6 2 5 7 9 3 11 9 14 20 23 28 31 22 14 15 14 4 3 3 3 5 1 3 3 3 2 1 8 11 12 8 4 10 19 17 9 6 5 10 15 19 22
9 10 6 4 6 11 12 13 17 10 8 14 25 21 18 18 7 11 11 5 4 3 3 3 1 5 2 1 1 4 8 8 9 10 10 9 7 5 3 4 12 14 15 16 17
14 11 9 8 7 12 10 3 9 6 5 7 7 6 13 14 6 10 7 2 2 4 4 3 3 2 1 2 4 8 7 12 14 8 3 3 5 5 4 3 6 13 14 17 14
16 14 11 8 8 11 7 12 5 1 6 3 3 3 5 5 16 3 4 2 3 3 3 4 1 1 3 5 9 6 2 8 12 13 6 4 3 5 4 6 9 8 11 12 11
14 11 10 13 11 9 3 2 4 4 6 4 1 4 4 6 4 5 2 3 3 2 1 5 3 5 4 6 9 6 9 12 12 4 3 4 4 4 2 5 7 5 10 12 11
13 10 8 7 9 6 2 6 4 6 3 4 4 4 4 3 4 3 2 1 2 1 3 2 4 2 4 4 4 6 2 3 4 1 4 3 4 5 5 7 8 5 8 10 10
14 11 12 13 8 3 7 4 10 2 6 2 4 4 5 2 3 2 3 0 3 1 1 2 6 6 6 5 2 4 2 2 4 2 3 4 3 2 5 6 5 6 7 9 13
11 12 14 12 10 5 3 8 3 1 3 4 3 5 3 2 5 1 2 1 4 7 1 2 4 2 5 2 1 2 3 2 4 4 2 2 3 2 2 4 7 7 7 10 11
10 7 22 14 11 8 6 9 4 2 3 2 3 1 2 0 3 1 2 3 0 4 3 2 4 3 1 3 6 3 3 2 2 3 3 2 2 4 6 3 4 4 6 9 12
10 4 22 12 18 18 7 5 3 4 2 1 2 4 3 2 2 2 0 3 2 2 5 1 2 4 1 5 3 4 2 3 2 2 2 3 2 6 5 2 3 5 6 11 13
13 4 21 17 9 5 3 3 2 3 1 1 1 3 3 3 2 1 2 4 6 5 3 4 2 4 6 1 2 0 1 2 2 3 1 1 3 6 4 1 6 3 7 14 13
6 9 24 14 4 3 3 3 3 4 3 1 1 2 2 3 2 2 3 3 7 5 3 3 1 4 6 4 4 3 3 3 2 2 1 1 3 2 4 4 6 5 5 5 1
6 4 10 17 9 3 4 4 3 4 2 4 3 3 2 3 1 1 1 1 5 5 3 2 1 4 4 5 1 5 5 4 2 2 2 3 2 1 2 3 5 6 6 5 4
7 2 3 3 6 4 1 4 4 6 8 15 5 6 2 3 2 2 3 4 2 3 2 2 3 2 6 7 3 4 4 5 2 2 3 4 4 5 6 7 11 9 7 6 5
5 3 3 4 5 5 8 7 7 5 6 6 5 5 6 3 1 2 1 1 2 4 2 0 2 1 4 3 3 5 6 3 1 1 2 3 4 3 5 7 9 11 10 10 7
8 7 3 7 5 4 3 4 6 4 2 2 2 1 3 1 8 11 9 8 6 3 2 0 1 2 5 4 6 6 5 3 2 4 4 4 3 3 4 9 13 13 13 11 8

GFSSW_850_spd_099.txt.gz
Wind_Speed
19 17 16 14 15 12 11 10 9 10 11 26 26 21 9 15 10 5 3 4 8 10 8 9 10 12 10 7 6 5 3 2 3 5 1 2 5 2 4 8 8 7 9 13 20
20 18 15 15 15 15 12 13 12 8 9 13 26 24 13 17 9 7 4 6 10 10 10 10 12 12 6 5 4 4 2 5 2 2 2 6 3 8 5 7 11 19 20 21 23
19 20 18 18 17 17 16 16 14 13 8 11 17 25 7 12 3 2 8 11 10 10 10 11 13 8 5 4 2 2 3 4 2 1 5 5 11 5 5 5 10 9 16 24 26
17 14 14 16 16 14 12 13 14 14 13 11 8 15 12 11 3 2 11 11 13 12 12 12 9 5 4 3 2 3 2 3 2 2 4 4 7 8 16 15 21 23 23 26 27
15 13 14 15 15 12 8 11 11 11 10 9 4 17 15 11 4 7 14 16 12 13 11 10 8 6 5 5 3 2 1 3 4 14 14 15 15 13 18 29 26 24 24 22 25
13 12 12 13 11 8 5 10 11 8 7 6 12 19 21 7 13 19 16 13 11 12 12 7 6 9 9 4 3 0 3 9 9 12 12 7 6 3 8 15 22 22 25 21 20
12 12 11 10 8 7 7 9 13 7 11 7 15 11 15 14 19 16 15 9 11 11 12 10 10 4 6 4 3 2 4 6 3 3 4 9 4 7 9 15 14 15 17 29 36
13 9 8 6 7 5 7 8 11 10 14 10 11 20 8 21 22 19 12 15 12 11 9 10 7 10 5 4 5 4 3 4 2 6 3 5 7 5 16 14 19 30 32 30 29
12 6 4 1 2 6 5 6 9 10 15 11 10 16 11 28 22 18 16 19 14 12 12 8 6 5 4 3 4 6 1 2 7 3 2 1 11 12 20 27 26 25 28 31 32
7 5 6 2 3 2 4 4 12 16 19 15 16 11 20 11 25 20 18 17 12 13 11 6 6 3 3 3 2 1 2 3 5 2 2 13 19 17 22 19 22 22 24 24 23
11 10 6 6 4 4 5 10 12 12 17 7 13 7 25 30 22 19 17 12 14 7 3 4 4 2 2 3 5 5 1 5 5 9 6 9 15 17 22 12 10 11 12 14 19
12 9 8 8 9 9 6 12 4 11 16 21 20 21 31 24 17 16 14 5 4 3 3 4 3 1 4 4 3 2 4 6 8 5 4 10 18 16 6 2 5 10 12 14 17
13 10 10 12 11 15 19 26 18 13 8 12 16 13 13 20 11 9 5 7 5 3 2 3 5 7 3 2 1 3 3 2 6 8 8 8 8 3 3 2 10 11 10 12 13
14 12 9 7 7 14 30 21 17 9 4 8 6 6 7 13 7 7 6 3 2 4 5 1 1 2 2 3 4 2 5 9 9 7 4 3 5 4 2 5 4 9 11 14 13
14 13 11 8 13 27 15 13 8 2 6 5 4 4 2 5 16 3 5 3 3 4 4 5 5 3 2 4 5 6 5 6 9 9 7 4 4 4 2 3 9 7 11 10 10
16 11 10 9 16 12 8 3 1 4 7 3 3 6 4 7 5 4 1 3 3 2 0 3 2 3 4 3 7 6 5 9 11 5 4 3 3 3 2 5 8 6 8 9 10
19 16 12 8 8 4 4 5 5 7 2 4 4 2 5 3 4 2 2 1 2 3 4 2 2 2 3 3 4 5 3 3 2 2 5 5 4 5 3 6 7 4 6 9 10
12 13 13 9 7 7 5 3 9 5 5 2 2 4 4 3 2 2 2 1 2 3 3 4 5 5 4 4 1 4 2 1 3 2 3 5 4 2 2 5 6 7 6 7 9
9 11 23 16 9 4 4 8 3 2 3 6 3 4 2 2 5 1 1 1 2 5 3 2 4 2 5 3 2 3 2 2 3 3 3 2 2 3 1 2 8 9 8 9 11
10 14 27 17 15 8 4 9 4 1 3 2 2 2 3 4 4 4 3 1 0 4 3 1 4 3 2 3 5 2 2 1 1 3 4 2 2 4 7 5 3 4 7 10 10
12 6 23 21 24 18 7 5 4 3 2 2 2 4 3 2 3 2 2 2 2 3 5 1 1 5 1 5 5 3 2 2 2 2 2 4 1 5 5 4 4 2 7 9 12
19 4 18 18 10 4 4 3 3 4 3 2 3 3 3 2 2 1 2 4 7 6 3 2 1 4 6 2 1 2 3 3 2 2 2 1 3 4 3 4 4 6 10 13 10
9 10 29 10 5 3 2 2 3 5 4 5 4 3 1 3 2 0 1 0 8 5 4 4 2 4 5 4 3 2 1 2 1 2 3 2 3 3 4 6 7 9 9 5 1
6 4 12 20 10 4 4 5 4 7 5 5 3 3 2 3 2 2 3 1 6 6 4 5 2 5 5 5 2 4 2 0 2 2 2 4 3 4 5 6 9 10 7 6 4
7 2 3 3 7 5 2 4 4 5 6 9 4 4 0 3 2 2 2 4 2 1 4 3 3 3 6 8 3 5 6 3 5 5 4 3 5 6 8 9 15 12 9 8 6
4 3 4 3 5 3 6 6 6 4 4 5 5 3 3 3 3 2 1 2 2 3 2 0 2 1 5 3 6 6 7 7 6 3 5 4 6 6 9 10 10 13 12 11 9
8 7 1 6 3 3 2 3 3 1 2 2 1 1 2 2 6 10 10 7 4 1 1 1 1 3 5 3 5 6 7 8 5 4 5 6 6 4 5 9 16 16 16 15 12

GFSSW_850_spd_102.txt.gz
Wind_Speed
16 17 18 16 12 13 11 11 10 9 8 10 21 18 12 12 14 8 4 5 7 9 10 11 12 13 9 5 4 2 3 3 2 4 4 2 1 1 2 7 7 7 10 13 20
18 18 20 16 13 11 12 12 11 8 9 7 10 23 13 15 11 8 5 7 9 10 11 11 12 12 5 5 3 3 3 2 2 2 1 1 3 6 6 8 14 16 17 16 16
16 15 15 15 14 14 14 13 10 11 8 10 6 15 11 7 10 4 9 10 12 11 11 12 13 6 5 6 3 1 0 3 2 0 3 5 10 5 8 9 11 13 18 18 20
12 10 9 10 10 11 12 11 11 10 11 9 9 4 12 14 5 5 13 13 12 12 13 13 9 5 4 4 3 3 3 1 1 1 4 8 10 11 15 23 20 20 21 22 22
12 11 8 8 10 8 7 7 9 10 9 8 9 11 15 9 11 12 16 17 13 15 12 11 9 6 7 6 5 2 3 3 5 6 11 12 16 17 25 25 21 19 19 20 21
14 9 8 6 5 5 6 5 5 9 9 4 9 16 15 8 18 20 19 15 14 14 13 8 7 9 10 5 2 3 2 5 6 6 7 7 10 5 8 5 13 15 15 16 16
14 9 6 5 5 6 6 6 3 5 9 8 14 12 16 12 25 20 20 12 14 13 14 12 14 4 9 7 4 2 3 3 2 1 1 7 9 10 9 8 12 14 19 23 25
14 9 6 5 5 6 5 6 5 1 5 9 16 10 9 23 27 20 16 19 14 13 14 13 10 12 5 8 3 0 1 2 3 2 1 4 6 3 8 17 20 22 23 22 20
6 10 3 5 1 7 4 4 6 13 11 9 13 3 10 19 27 21 15 21 17 14 14 12 8 6 4 4 2 2 1 3 1 2 2 2 11 5 17 17 20 20 18 18 20
18 12 9 7 6 6 5 6 12 20 18 14 12 7 19 16 21 22 19 19 15 15 11 4 4 3 3 2 1 3 0 3 5 2 7 11 19 15 16 14 12 11 12 12 13
14 12 9 7 4 5 13 26 17 11 12 7 2 9 23 25 23 19 17 14 10 5 3 3 3 5 7 5 7 6 1 4 7 3 7 6 16 17 14 6 8 10 11 12 13
14 13 12 10 7 10 17 10 14 14 16 20 24 31 17 18 19 14 13 4 3 5 3 3 5 6 8 6 4 3 3 5 6 4 7 13 19 15 4 1 6 10 10 14 15
14 12 12 13 14 15 18 24 22 21 8 12 15 13 12 15 12 7 3 5 7 5 5 4 6 9 4 5 4 6 5 2 3 8 6 11 9 5 4 4 2 8 8 11 14
18 15 7 4 9 22 17 26 20 9 4 7 6 7 7 10 7 7 6 3 2 6 5 5 6 5 5 4 5 3 5 3 5 8 5 5 6 6 3 3 3 10 11 12 14
14 18 13 23 26 22 22 19 11 1 6 7 4 4 2 5 15 3 7 3 4 7 3 3 8 7 5 3 8 1 2 5 8 8 8 3 4 3 2 2 6 10 11 11 12
19 11 15 21 20 15 10 2 0 1 7 2 2 6 7 7 4 3 2 5 3 3 1 3 2 3 1 5 10 3 5 6 3 1 3 4 6 2 3 7 10 9 7 10 11
12 13 8 4 3 0 2 2 1 6 2 5 4 4 5 4 5 2 2 3 1 3 1 3 4 3 3 3 4 3 3 3 1 2 4 6 5 6 3 8 6 7 9 10 10
6 10 12 6 1 2 1 1 10 4 6 2 5 9 5 1 3 2 3 3 2 1 3 1 2 5 7 2 2 1 1 2 4 3 6 4 5 2 3 4 7 7 8 7 9
8 11 17 11 8 6 3 7 5 3 3 6 4 5 3 3 2 2 2 2 2 1 3 1 1 2 4 2 4 4 3 1 3 5 4 1 2 4 3 5 6 7 7 7 8
11 12 22 18 19 12 4 10 4 2 3 1 3 3 4 3 1 1 1 2 2 2 2 1 1 1 3 3 5 3 4 2 3 3 4 2 2 4 5 5 4 2 2 3 6
13 8 15 21 21 17 6 7 6 2 1 1 3 4 4 2 3 2 2 3 3 4 2 0 2 3 2 5 4 5 3 4 3 3 3 5 2 1 3 4 2 2 4 6 7
20 4 15 12 6 4 4 3 2 2 0 2 3 3 3 3 3 2 2 1 6 5 2 2 2 3 3 2 2 4 3 2 3 2 3 3 2 3 2 3 5 6 8 11 8
10 12 25 11 4 4 3 4 4 2 3 2 2 1 1 2 2 1 1 1 6 4 2 4 1 2 2 2 3 5 5 2 3 2 5 3 2 4 5 5 8 12 12 10 7
5 3 10 17 7 3 3 5 3 4 4 3 3 1 2 3 3 3 2 2 6 3 2 3 2 6 3 3 2 4 6 5 6 3 1 8 4 7 8 10 13 15 13 11 10
5 3 3 4 8 8 4 4 4 5 6 7 4 6 3 2 2 2 1 0 1 1 2 2 4 4 11 13 10 10 11 8 8 8 6 3 6 6 13 15 18 15 12 11 11
3 4 5 3 3 3 5 5 5 3 5 4 3 2 3 2 1 1 1 1 0 2 3 1 3 3 5 1 9 12 13 13 13 11 12 13 12 10 10 13 14 16 15 15 14
7 6 1 2 2 1 2 2 3 1 1 1 2 3 2 3 4 7 7 4 2 2 3 2 2 3 4 4 8 11 14 18 9 8 9 8 4 7 9 14 18 17 16 16 14

GFSSW_850_spd_105.txt.gz
Wind_Speed
11 12 13 15 13 13 12 10 8 8 6 6 6 16 17 9 10 5 3 5 7 8 8 7 7 7 8 5 3 1 4 5 3 4 6 3 1 1 3 7 6 7 9 12 15
18 15 16 15 13 12 10 9 8 8 7 8 8 9 16 10 7 9 7 7 9 10 9 10 11 11 5 4 1 5 3 4 4 5 5 2 3 5 5 7 12 13 14 13 13
7 9 8 10 11 13 14 13 9 10 8 7 11 8 15 10 7 9 9 9 10 13 10 8 10 9 6 7 3 3 2 4 3 4 3 3 7 5 7 9 9 10 14 16 17
9 7 5 6 5 8 9 10 9 12 10 9 7 8 12 16 5 9 12 12 11 10 11 10 10 7 7 7 5 4 2 1 2 1 4 6 10 8 14 20 18 18 19 19 19
8 4 5 5 6 6 6 6 8 10 11 7 7 7 13 11 4 11 16 14 12 11 11 9 10 6 6 6 6 3 4 2 1 3 7 9 13 13 23 20 17 14 15 17 17
8 3 4 4 4 3 4 6 6 6 7 6 6 11 14 5 12 20 16 11 11 10 10 9 6 4 7 5 2 2 3 2 2 3 6 9 12 5 3 2 7 12 14 15 16
6 2 3 4 4 4 5 5 3 8 8 8 11 13 13 9 18 13 23 11 11 9 9 8 10 3 9 5 4 2 3 3 1 1 2 7 12 10 9 6 14 16 18 19 20
4 6 2 1 3 4 5 5 4 3 11 9 8 10 6 14 18 17 11 12 12 9 11 8 10 9 4 8 3 2 2 3 6 1 2 3 8 6 2 10 16 16 16 17 16
10 10 3 3 1 6 4 4 5 6 13 6 7 7 7 21 21 18 14 17 15 12 10 8 6 5 6 4 2 4 3 5 4 3 1 5 9 1 10 10 14 12 10 11 11
13 8 6 5 5 5 2 3 9 10 8 7 10 6 14 11 16 16 17 16 10 12 9 3 2 4 4 6 3 6 3 3 5 4 7 11 18 16 13 13 11 8 10 10 11
15 10 7 5 6 7 16 23 19 10 15 8 8 12 22 19 18 15 13 13 11 6 3 2 3 5 6 1 4 4 1 3 5 2 8 8 14 15 15 10 7 7 8 9 12
12 11 9 6 7 15 14 6 8 13 13 23 21 27 25 16 13 10 8 3 6 6 6 2 4 5 7 5 4 3 1 3 4 1 5 12 19 18 8 4 3 6 9 11 14
12 6 8 6 11 14 10 20 18 17 7 11 16 11 10 11 10 7 3 5 9 7 4 3 8 8 5 2 3 4 3 3 2 10 14 11 11 4 5 3 4 6 8 11 12
18 10 2 11 17 19 22 18 20 7 3 8 6 5 6 7 6 5 3 2 2 7 8 5 7 5 3 2 3 1 2 1 5 8 4 8 5 7 2 3 3 5 8 12 12
19 19 11 10 20 15 22 24 13 3 5 6 4 5 3 3 13 3 4 1 4 7 3 2 7 5 3 3 4 4 2 5 6 6 7 4 3 2 3 3 1 11 8 9 10
13 17 18 18 18 23 16 9 4 3 7 3 2 3 7 5 4 3 3 5 4 5 4 6 1 2 3 1 4 4 5 5 2 1 3 3 4 5 3 5 10 8 5 6 8
8 7 6 9 7 14 7 3 1 6 1 4 3 6 8 5 4 2 3 4 1 3 2 1 2 2 3 2 2 2 3 2 3 3 2 0 4 9 1 3 4 5 6 5 8
8 9 6 2 7 6 2 3 8 4 7 2 6 8 5 1 3 3 3 5 2 1 3 2 2 6 8 3 3 3 2 2 3 3 5 3 6 1 4 3 3 5 7 2 5
15 18 15 6 6 5 2 6 4 4 5 8 6 7 3 3 1 2 3 3 3 1 2 3 1 3 6 2 4 4 2 3 3 5 3 6 7 3 4 4 5 4 3 3 3
11 14 19 16 13 10 5 7 8 6 7 1 3 3 6 5 4 3 2 2 2 1 2 2 2 5 5 4 6 2 2 1 2 3 4 4 5 4 5 5 2 2 2 2 1
10 6 17 15 17 13 5 7 9 5 2 3 4 5 5 4 2 3 3 3 1 3 1 3 3 4 4 7 4 4 2 4 2 3 3 5 3 1 4 2 3 3 3 5 4
10 4 10 11 6 3 6 4 2 4 3 3 4 6 5 2 3 2 4 4 3 1 2 3 3 3 3 3 2 6 8 5 3 2 5 4 3 3 2 2 4 4 6 8 8
7 7 16 8 5 7 7 6 6 4 6 4 5 6 3 2 2 4 3 3 2 1 4 2 1 2 2 3 3 6 7 7 5 3 8 4 2 4 4 5 5 7 9 11 10
2 2 7 10 2 4 6 6 4 3 5 4 3 1 0 3 2 3 3 2 3 1 2 2 3 5 5 5 3 6 7 9 7 4 6 10 11 7 7 8 11 13 14 13 12
6 4 1 1 5 7 4 1 5 3 4 3 3 5 3 2 2 3 1 3 3 2 2 3 4 5 11 14 13 14 14 11 13 14 6 5 10 10 8 12 17 17 16 15 14
3 2 3 2 1 1 1 2 3 2 1 3 4 2 3 2 2 2 2 2 1 4 2 1 3 8 5 4 6 13 16 18 18 18 16 19 21 15 12 13 17 19 18 18 17
8 5 2 2 2 4 2 2 1 2 1 0 1 2 3 1 4 7 8 6 3 2 2 2 3 4 5 2 11 13 18 20 14 13 16 14 11 2 8 12 18 19 19 19 17

GFSSW_850_spd_108.txt.gz
Wind_Speed
16 10 12 9 9 9 9 8 5 6 4 1 2 14 16 5 4 5 1 6 6 6 7 7 7 10 7 4 3 4 2 3 3 2 5 4 1 2 4 5 4 4 8 12 14
13 14 12 12 12 8 9 5 7 6 6 3 1 3 15 14 5 6 7 9 8 10 10 8 10 10 4 6 1 2 2 7 7 9 7 6 4 5 4 6 6 8 9 6 7
7 4 5 6 7 9 9 7 6 9 7 4 2 3 13 14 12 5 12 7 10 14 11 7 9 7 4 8 3 2 3 3 7 9 7 4 5 4 5 6 4 11 13 15 17
6 4 2 2 4 7 10 9 9 10 9 5 2 2 14 13 7 8 10 8 13 11 10 12 10 5 5 5 3 2 2 5 4 3 3 5 9 6 13 13 14 13 13 14 15
4 3 3 3 2 3 6 8 9 10 9 7 5 6 12 12 4 8 12 9 11 11 9 11 12 5 4 7 4 3 4 1 3 1 6 8 10 10 17 17 10 7 11 12 12
5 4 5 3 2 3 6 6 7 8 6 4 4 11 13 7 8 16 9 9 8 7 8 7 6 4 7 7 2 4 2 1 1 2 6 6 7 5 3 1 4 9 12 13 14
9 7 6 4 2 5 7 7 5 6 6 5 5 14 8 7 14 16 15 9 9 6 6 3 6 4 11 4 5 5 3 6 5 2 2 7 7 9 9 3 8 13 13 12 12
8 7 6 5 6 6 8 6 5 5 8 6 9 11 7 12 15 16 16 15 10 9 10 9 6 10 5 9 5 4 1 3 4 3 3 3 6 8 7 3 9 11 9 11 11
13 7 8 8 5 6 5 6 7 7 9 9 7 5 7 16 18 19 10 11 10 10 11 9 6 4 5 3 2 3 2 3 5 4 1 4 6 7 3 11 7 8 6 9 10
15 11 9 8 8 5 3 10 11 12 14 7 11 6 6 8 18 12 16 13 7 11 9 4 2 2 2 2 2 4 2 1 3 5 5 7 13 14 21 12 9 5 5 5 8
15 12 9 7 9 19 27 20 12 7 24 9 7 18 21 24 14 15 11 8 10 4 3 1 1 2 5 6 4 4 3 3 5 4 2 7 9 9 16 15 5 2 6 8 10
10 11 10 6 9 15 11 8 10 10 12 24 21 25 16 11 13 9 9 2 6 5 5 1 4 6 6 2 2 2 1 1 3 2 3 9 14 16 10 4 8 2 4 7 7
8 5 9 7 13 9 11 18 17 13 8 11 12 9 8 13 6 3 1 7 5 5 5 3 6 6 5 4 1 4 3 5 1 6 10 9 7 3 3 6 5 5 2 5 8
18 7 7 12 12 10 15 19 13 5 3 7 6 6 6 6 6 2 3 4 2 6 8 5 5 4 2 2 2 2 5 2 4 5 3 6 4 4 9 7 7 2 9 7 9
18 14 12 11 16 12 20 23 5 7 4 5 4 5 4 4 11 2 3 3 4 5 1 2 5 3 1 2 2 4 4 4 5 5 5 1 1 6 6 6 6 10 7 6 10
14 15 17 13 18 22 21 9 6 2 6 3 2 1 5 5 3 4 2 5 5 4 9 5 3 1 4 2 3 5 4 4 1 1 3 7 5 5 4 2 3 6 6 8 11
9 10 12 15 16 14 7 5 2 6 1 4 3 4 3 5 4 4 5 4 1 4 2 2 4 4 3 3 2 2 2 1 2 1 4 3 3 7 5 4 2 3 6 9 11
11 8 9 9 14 10 7 2 7 6 5 3 7 7 5 3 2 2 5 4 1 2 3 2 1 5 8 2 3 2 0 2 2 3 2 5 5 5 5 5 2 2 8 7 6
19 20 13 7 8 7 2 6 4 1 4 8 10 5 3 3 2 2 3 3 3 4 3 3 1 3 5 3 5 3 2 3 1 4 1 4 5 1 4 4 3 3 5 7 9
13 10 15 11 10 9 2 8 5 7 6 4 2 3 4 4 3 4 3 2 3 1 4 2 3 6 6 0 5 3 3 1 1 2 3 4 4 4 5 4 1 4 7 7 6
6 3 13 11 16 10 3 5 7 4 4 5 4 6 6 2 5 2 4 2 1 3 4 3 2 4 4 7 7 4 2 3 2 2 2 4 4 3 4 3 4 4 6 7 7
9 3 9 8 5 5 3 4 2 3 0 1 4 8 6 3 5 3 5 5 5 2 2 4 3 1 6 5 4 1 4 4 2 0 4 2 5 5 5 7 7 6 7 8 7
4 4 9 6 3 1 6 3 6 3 4 3 3 4 3 2 2 4 4 3 4 1 3 3 2 1 1 2 2 4 5 6 2 4 6 1 5 5 6 7 10 10 11 12 11
4 3 7 9 4 2 2 4 3 1 2 2 3 3 4 4 2 4 5 3 4 1 1 1 2 4 4 1 2 4 6 8 7 3 4 8 8 8 8 8 12 15 16 18 16
5 2 1 1 5 3 2 2 2 2 1 2 2 3 3 3 3 4 2 5 5 5 2 2 3 3 7 11 10 10 10 10 13 13 5 4 7 7 7 12 21 22 19 19 19
4 3 3 3 3 8 2 3 4 1 4 2 3 2 6 3 5 3 2 4 3 6 4 4 3 3 5 10 7 10 11 15 17 16 18 17 22 15 25 19 22 24 23 24 23
7 4 3 1 2 3 3 4 5 5 2 4 6 5 2 5 8 10 10 11 5 2 6 3 1 4 5 6 8 9 15 18 11 8 17 16 15 5 2 7 19 24 26 26 23

GFSSW_850_spd_111.txt.gz
Wind_Speed
13 11 8 14 10 12 7 6 6 5 4 7 11 14 13 10 6 7 5 2 4 9 9 13 16 11 7 5 3 2 4 2 5 3 4 4 3 5 5 3 3 2 3 4 1
10 7 6 5 4 7 10 6 7 7 5 6 8 13 15 9 5 8 5 3 3 11 15 15 14 13 7 4 2 5 4 3 3 3 4 6 7 4 3 6 2 6 5 7 7
6 2 3 4 9 9 11 8 5 8 5 6 7 6 14 15 7 1 5 4 7 15 15 11 15 9 7 5 2 2 3 5 5 8 10 6 5 7 2 3 4 7 13 13 16
6 2 4 4 6 7 8 7 6 8 7 5 4 7 15 17 6 5 6 6 14 14 11 14 12 7 4 4 3 5 8 7 4 6 4 2 6 7 5 8 11 12 12 15 14
9 5 6 6 5 5 6 8 6 8 7 4 4 6 16 12 5 4 11 7 15 15 12 12 12 5 7 6 5 4 3 6 5 3 2 3 6 6 13 14 9 6 7 9 8
10 10 9 8 7 6 7 6 5 7 7 5 5 10 14 6 8 9 14 8 14 17 11 3 2 4 9 6 3 6 9 8 4 2 3 2 4 6 3 8 2 4 6 6 5
11 10 9 8 9 10 12 8 7 9 9 7 6 13 9 10 14 18 17 11 9 10 10 6 6 4 7 5 6 7 4 2 2 3 1 4 1 6 11 6 2 4 4 7 10
14 12 10 10 10 10 10 9 6 6 7 6 8 14 6 9 15 13 16 13 10 12 13 11 10 13 5 11 4 3 4 2 2 3 1 2 5 4 11 6 3 1 5 6 7
16 12 11 10 11 10 9 8 9 12 9 10 11 12 6 12 15 18 15 13 12 11 12 12 13 6 6 4 5 3 2 3 1 5 1 2 5 6 8 18 11 4 4 3 1
15 13 13 11 9 10 10 10 16 15 16 12 13 8 8 7 19 15 16 10 12 14 12 6 4 3 3 4 4 4 3 1 2 3 2 4 11 10 24 18 11 6 7 5 2
15 13 11 13 12 16 14 15 11 11 24 9 13 11 21 20 20 15 7 11 13 2 3 2 6 3 5 3 3 2 4 3 1 3 2 4 9 11 17 16 8 8 7 3 6
8 11 11 15 17 16 10 10 10 10 10 24 23 21 18 13 9 8 8 2 1 4 3 5 4 3 6 6 5 5 2 2 2 2 2 5 11 14 11 4 12 8 5 4 0
7 9 12 12 14 9 13 21 17 10 7 12 15 12 8 14 8 5 6 2 4 3 4 6 3 4 5 4 3 2 3 3 1 5 3 7 6 2 2 8 8 5 9 4 4
13 13 15 16 12 14 19 18 11 4 4 8 8 8 8 5 6 3 4 3 3 6 7 6 0 4 5 3 2 3 4 4 3 4 1 5 4 5 4 5 5 9 6 2 6
15 16 14 8 15 13 16 10 4 3 6 7 5 5 10 6 5 3 6 4 4 3 5 3 3 2 3 1 2 2 3 3 3 4 5 3 3 7 3 5 4 5 5 1 5
16 18 23 22 22 19 14 3 8 5 7 3 1 4 4 1 2 1 3 4 6 8 8 4 3 2 2 3 4 2 3 2 1 2 2 5 5 5 4 5 4 5 0 5 7
10 12 17 18 15 15 7 9 4 6 1 4 4 3 6 7 7 4 2 2 2 5 4 2 2 2 1 4 3 2 4 2 3 1 5 1 3 8 4 1 3 2 4 7 8
7 7 5 6 7 5 6 4 9 5 5 1 4 7 4 4 2 1 4 2 2 4 3 4 5 3 3 2 5 2 1 3 4 1 4 2 5 5 4 5 4 1 4 9 6
18 13 6 3 8 8 2 6 5 4 6 7 5 3 2 2 3 2 4 2 2 3 5 4 1 1 3 3 4 2 2 2 2 3 3 3 6 1 3 3 5 4 5 7 9
9 9 13 10 7 5 5 5 4 2 2 4 2 1 3 4 2 3 2 1 2 3 4 4 4 5 2 3 4 2 4 2 1 2 4 5 5 5 4 7 6 6 7 7 7
7 4 10 7 12 10 4 3 3 6 4 1 4 4 3 4 6 3 2 0 3 2 2 1 3 1 5 6 8 5 3 4 2 2 1 3 5 5 6 7 7 9 9 8 8
8 4 11 6 5 4 2 0 1 2 4 2 4 6 2 2 4 4 3 2 5 6 2 2 2 3 8 5 6 5 6 5 4 4 3 3 6 5 6 7 9 10 11 11 13
5 4 11 8 3 2 0 2 3 3 3 4 3 2 1 2 3 3 3 3 5 1 3 2 2 2 6 6 3 4 5 5 3 3 6 4 5 2 4 5 11 12 13 15 15
4 2 4 5 6 1 2 2 2 2 2 4 1 3 2 0 0 4 3 3 6 1 1 2 2 5 7 4 3 4 6 7 6 3 3 8 7 5 7 8 12 18 17 18 20
3 2 1 1 3 4 3 3 2 2 3 0 1 4 2 1 1 2 3 2 3 4 1 3 3 2 6 8 5 7 8 8 11 12 7 3 8 5 7 10 23 25 22 23 25
4 3 2 3 2 4 3 3 4 3 4 3 3 4 3 3 3 1 2 3 4 2 3 1 3 4 5 7 5 7 11 15 15 15 16 16 25 12 29 24 21 27 27 30 30
6 5 2 1 2 3 1 2 2 1 1 1 1 3 3 3 3 5 6 6 4 5 5 5 2 3 5 6 8 7 9 18 9 8 21 16 24 6 9 8 20 28 31 32 31

GFSSW_850_spd_114.txt.gz
Wind_Speed
13 9 9 10 15 11 11 9 9 8 5 8 15 15 19 15 9 9 8 4 3 11 13 16 19 14 12 6 4 2 4 3 2 4 5 2 2 4 3 3 4 4 6 6 3
5 3 5 6 6 8 11 9 9 9 8 7 14 16 16 17 11 10 8 8 5 11 17 19 18 15 8 4 2 5 4 3 2 2 4 5 5 2 2 3 2 3 4 3 5
5 5 4 5 8 5 7 8 11 8 9 9 7 15 15 19 14 4 7 7 7 14 16 21 15 14 6 6 2 3 4 5 3 7 6 3 3 2 3 1 4 2 7 10 13
9 8 7 5 7 8 8 9 8 10 9 9 7 10 17 17 8 6 9 7 15 14 9 14 11 6 5 6 2 6 7 7 5 3 3 2 1 1 4 4 2 7 8 11 10
11 9 9 9 6 7 8 7 8 8 8 7 7 13 16 14 7 6 9 12 16 12 9 11 10 6 6 9 7 5 4 8 7 4 2 0 1 4 8 8 8 3 2 4 5
11 10 9 9 8 5 5 7 9 9 7 5 7 16 12 6 10 10 11 15 13 13 10 11 4 7 10 6 5 7 10 8 4 3 2 1 1 5 0 8 7 2 1 2 4
12 11 11 10 11 11 11 9 11 7 7 7 9 13 7 5 10 12 13 12 11 12 10 10 9 3 6 5 8 12 5 3 1 1 1 3 3 6 7 8 5 3 7 7 4
10 10 10 11 11 11 10 8 10 9 7 6 11 9 6 8 11 17 11 8 6 10 12 11 10 14 5 11 5 5 5 3 1 2 1 2 4 4 13 10 4 6 11 11 7
11 9 9 10 9 10 10 10 12 12 10 9 12 9 4 12 20 24 9 10 7 10 12 11 10 7 5 5 5 6 2 2 1 3 1 1 3 4 8 9 15 9 12 10 6
10 11 11 10 8 12 15 17 17 17 17 9 11 10 5 7 13 17 14 4 5 11 11 5 5 4 3 5 4 4 4 2 1 0 1 3 8 8 14 20 15 9 14 11 5
10 10 10 9 12 14 16 19 9 11 29 14 7 15 19 19 20 18 12 4 6 6 3 4 6 3 4 3 5 6 5 4 2 0 2 5 8 9 20 19 7 13 16 10 4
8 10 13 15 15 12 9 10 12 12 12 23 24 22 12 14 12 10 7 5 5 4 3 6 4 2 4 5 5 5 6 2 1 1 2 4 14 10 12 9 15 17 12 9 6
7 10 13 14 8 8 17 20 18 10 7 12 17 13 9 12 4 9 8 9 8 5 4 5 4 3 4 4 6 5 6 2 3 4 1 5 6 2 2 3 10 9 10 7 4
9 13 13 10 9 18 19 15 10 1 5 10 8 7 7 4 8 8 6 5 4 5 5 6 3 4 5 4 3 3 1 3 3 3 2 4 4 5 2 5 6 10 9 5 4
15 16 14 4 13 13 13 7 8 0 5 7 5 4 7 4 9 7 8 6 4 2 4 5 3 3 5 1 2 3 1 2 1 2 3 1 3 6 2 5 7 10 9 5 6
16 14 14 13 13 11 6 5 9 5 6 3 3 3 3 7 2 3 4 6 5 8 7 3 1 2 2 3 3 2 3 4 3 2 3 3 3 5 4 5 3 6 9 6 7
9 10 11 12 8 5 1 10 4 6 2 4 4 2 5 3 3 3 3 3 3 5 4 2 3 2 2 4 4 3 5 3 5 4 4 2 2 9 6 4 5 9 10 9 9
5 4 1 2 1 2 8 3 8 5 4 2 3 4 4 7 3 1 2 2 2 5 3 4 5 2 3 3 5 2 4 4 5 0 4 3 5 6 2 3 5 7 7 7 9
12 7 4 3 6 7 3 6 5 4 5 5 3 0 2 1 3 1 2 2 1 3 5 4 2 2 3 2 3 3 1 1 4 2 2 3 7 6 2 6 8 11 10 10 8
8 6 13 9 7 6 5 6 4 3 3 3 1 2 3 4 3 2 2 1 3 2 4 6 4 4 1 2 1 2 5 3 2 2 4 4 5 5 4 7 7 9 14 9 7
5 3 15 9 9 8 3 3 4 2 1 4 1 4 3 3 3 2 1 1 4 1 2 3 4 2 3 5 7 3 1 3 2 4 3 3 6 6 7 5 6 10 11 10 9
3 3 10 8 4 4 2 2 3 3 2 2 0 3 2 2 2 2 3 4 4 4 1 2 4 4 8 4 6 4 7 5 4 4 3 2 7 3 6 5 8 10 11 12 13
3 3 10 9 3 3 2 3 3 4 3 4 4 4 3 2 3 2 2 2 3 3 2 1 1 2 6 5 2 4 5 4 3 2 5 4 6 1 4 5 11 14 15 16 16
1 2 4 5 4 4 2 2 2 2 3 3 3 4 4 4 3 2 2 1 2 3 4 3 0 4 6 4 4 5 6 7 6 3 3 9 8 7 7 9 14 20 21 21 22
2 1 1 1 2 3 2 1 2 3 3 3 3 3 2 1 2 2 2 1 1 2 2 3 3 2 6 9 6 8 9 9 12 16 9 5 12 15 10 12 23 24 23 24 27
1 3 3 3 0 2 2 3 3 1 0 1 3 3 3 2 3 5 3 3 5 1 4 2 3 2 5 4 5 8 14 16 17 16 18 17 24 18 28 20 20 25 27 28 32
3 2 1 1 1 3 3 4 4 4 3 3 3 1 2 2 3 2 4 2 1 5 5 3 1 2 5 3 8 9 15 19 7 6 20 16 26 2 6 5 16 22 22 27 32

GFSSW_850_spd_117.txt.gz
Wind_Speed
6 3 8 9 11 15 11 7 14 10 9 11 17 25 22 13 13 10 9 5 4 11 15 15 17 19 14 7 5 4 5 3 5 6 5 2 3 3 4 5 6 5 8 9 4
8 5 1 2 2 7 16 9 9 10 7 9 16 18 23 21 11 12 8 9 7 10 14 15 16 17 7 5 3 5 4 5 1 2 4 4 4 3 3 4 5 10 8 4 1
12 9 3 3 2 4 8 10 15 8 8 6 11 15 19 22 16 6 11 7 7 10 15 17 16 10 5 5 3 3 4 5 2 7 7 4 3 1 6 1 3 4 2 2 4
12 12 8 6 3 5 5 7 9 6 6 6 7 18 17 19 7 7 8 8 8 12 14 14 10 5 4 5 4 7 6 6 4 5 5 4 2 1 2 1 7 1 2 2 2
12 11 10 7 5 6 6 6 7 8 6 6 5 13 15 10 7 6 6 9 12 9 9 12 7 5 5 7 6 5 4 9 7 6 6 4 2 2 6 6 5 1 1 3 4
12 10 10 9 7 5 6 6 8 9 8 6 6 13 10 5 5 6 9 10 11 8 11 12 5 9 9 5 4 6 11 11 4 4 3 2 1 2 1 4 7 5 3 4 4
9 9 9 9 10 11 10 6 8 6 5 5 7 11 9 4 5 4 13 11 12 11 13 9 14 3 9 5 7 10 6 4 4 2 3 3 2 5 5 9 8 4 6 7 5
10 10 7 8 10 9 10 9 9 8 7 8 11 13 6 3 10 14 13 16 11 11 14 9 10 14 6 14 6 5 5 4 3 1 2 2 5 2 10 10 6 3 10 9 7
7 7 7 9 9 9 9 10 10 11 11 11 11 9 6 9 13 16 11 13 11 9 13 11 7 7 5 6 5 6 3 3 1 1 1 2 4 2 8 11 9 4 15 12 10
6 6 6 9 10 12 16 17 14 14 17 13 10 7 5 5 12 20 12 11 7 10 11 5 6 4 4 4 5 5 5 2 4 2 1 2 8 8 11 13 19 13 17 16 11
5 7 5 9 11 15 16 13 7 13 28 11 13 12 14 18 15 16 10 7 9 8 4 6 7 2 2 0 5 7 5 5 1 0 1 5 7 10 19 16 18 17 19 19 13
5 9 13 12 10 7 8 8 11 13 11 26 23 20 11 10 11 15 14 7 6 5 2 7 4 2 2 4 6 6 5 2 2 0 2 5 12 12 8 8 15 20 21 20 14
6 9 10 7 6 11 18 21 15 8 7 13 14 12 7 14 8 10 8 1 7 5 5 6 2 2 2 4 7 5 5 2 3 3 1 7 7 2 1 1 2 13 18 16 13
8 9 8 10 10 18 15 12 8 1 4 9 7 7 4 4 6 8 6 1 5 6 5 7 4 4 4 5 3 3 1 3 3 3 2 4 4 4 2 3 3 10 15 15 12
9 9 8 6 13 7 6 8 9 0 5 7 5 5 7 4 4 6 6 8 5 3 4 4 2 5 6 2 2 3 1 2 2 3 3 3 3 7 1 5 8 14 16 15 12
9 5 5 11 11 5 1 9 6 5 5 3 5 4 3 6 1 3 5 9 6 7 7 4 2 3 1 2 3 4 4 6 4 3 3 2 4 5 4 5 2 6 20 17 13
7 7 5 4 1 1 5 9 5 6 2 4 3 2 3 1 3 4 4 4 3 5 4 5 3 3 2 4 4 5 5 3 4 3 4 2 1 9 6 6 5 8 18 16 12
5 5 4 5 5 5 10 3 8 4 3 1 2 1 4 1 4 3 3 2 3 5 3 4 5 2 1 2 4 2 4 4 5 1 4 1 5 6 4 2 5 4 8 10 10
10 10 9 6 4 6 2 6 5 4 4 5 1 3 3 1 2 2 2 2 1 3 4 4 4 2 3 2 4 1 1 3 5 3 1 3 7 9 3 5 6 8 9 11 11
6 4 12 9 7 5 5 5 3 4 5 3 1 2 3 1 2 1 0 0 2 2 3 5 4 2 2 3 1 1 5 3 2 2 4 4 6 6 3 4 5 8 17 15 13
5 2 12 8 10 8 3 3 3 1 2 4 2 3 4 2 2 1 0 2 1 1 2 4 3 4 3 4 6 3 1 2 3 3 3 3 6 6 7 6 6 10 12 13 14
4 2 7 5 5 3 2 1 1 3 3 2 1 3 2 2 2 2 2 1 1 2 2 1 4 3 7 2 5 3 5 5 3 3 2 3 7 2 6 6 8 9 9 11 12
3 2 7 3 3 2 1 2 2 2 3 2 2 2 1 2 3 2 2 1 3 3 4 2 1 2 6 4 1 4 5 4 4 2 5 4 6 1 5 7 11 12 12 13 14
2 2 3 4 4 5 3 2 2 1 2 2 2 3 3 3 4 3 2 0 2 3 3 2 2 5 6 4 4 4 5 6 6 3 3 8 8 9 7 8 13 18 19 17 18
1 0 2 2 4 3 2 1 2 2 1 2 2 2 2 2 2 3 2 1 1 4 2 3 3 3 5 8 5 5 5 7 11 13 8 1 9 11 8 10 23 28 25 23 23
2 2 3 3 3 2 4 0 3 1 1 2 3 1 1 3 5 7 5 3 4 1 3 2 2 2 5 4 6 8 11 12 14 15 17 18 28 20 33 25 23 28 23 23 28
4 5 2 1 1 2 2 1 1 1 1 1 0 1 2 2 1 0 2 2 2 6 5 4 2 2 5 3 6 7 8 15 7 7 14 14 26 12 11 8 13 24 19 23 26